<?xml version="1.0" encoding="UTF-8" standalone="no" ?>
<gpx xmlns="http://www.topografix.com/GPX/1/1" xmlns:xsi="http://www.w3.org/2001/XMLSchema-instance" xsi:schemaLocation="http://www.topografix.com/GPX/1/1 http://www.topografix.com/GPX/1/1/gpx.xsd" version="1.1" creator="VisuGPX - https://www.visugpx.com">
  <metadata>
    <name>83-dim-Pourrières</name>
    <desc><![CDATA[83-dim-Pourrières : la Palière]]></desc>
  </metadata>
  <trk>
    <name><![CDATA[2014-03-02-pourrieres]]></name>
    <trkseg>
      <trkpt lat="43.51665" lon="5.73873">
        <ele>341.9</ele>
        <time>2014-03-02T08:24:54Z</time>
      </trkpt>
      <trkpt lat="43.5167" lon="5.73883">
        <ele>341.3</ele>
        <time>2014-03-02T08:25:04Z</time>
      </trkpt>
      <trkpt lat="43.51673" lon="5.73894">
        <ele>341</ele>
        <time>2014-03-02T08:25:22Z</time>
      </trkpt>
      <trkpt lat="43.51673" lon="5.73906">
        <ele>342.7</ele>
        <time>2014-03-02T08:25:33Z</time>
      </trkpt>
      <trkpt lat="43.51673" lon="5.73907">
        <ele>342.3</ele>
        <time>2014-03-02T08:25:34Z</time>
      </trkpt>
      <trkpt lat="43.51678" lon="5.7393">
        <ele>345.5</ele>
        <time>2014-03-02T08:25:51Z</time>
      </trkpt>
      <trkpt lat="43.51682" lon="5.7394">
        <ele>347.3</ele>
        <time>2014-03-02T08:26:03Z</time>
      </trkpt>
      <trkpt lat="43.51688" lon="5.73949">
        <ele>349.3</ele>
        <time>2014-03-02T08:26:15Z</time>
      </trkpt>
      <trkpt lat="43.51695" lon="5.73956">
        <ele>350.9</ele>
        <time>2014-03-02T08:26:27Z</time>
      </trkpt>
      <trkpt lat="43.51702" lon="5.73962">
        <ele>353.3</ele>
        <time>2014-03-02T08:26:39Z</time>
      </trkpt>
      <trkpt lat="43.51703" lon="5.73962">
        <ele>353.1</ele>
        <time>2014-03-02T08:26:40Z</time>
      </trkpt>
      <trkpt lat="43.51717" lon="5.73974">
        <ele>357.2</ele>
        <time>2014-03-02T08:27:06Z</time>
      </trkpt>
      <trkpt lat="43.51724" lon="5.7398">
        <ele>359</ele>
        <time>2014-03-02T08:27:20Z</time>
      </trkpt>
      <trkpt lat="43.51729" lon="5.7399">
        <ele>359.1</ele>
        <time>2014-03-02T08:27:34Z</time>
      </trkpt>
      <trkpt lat="43.51736" lon="5.73996">
        <ele>360.3</ele>
        <time>2014-03-02T08:27:46Z</time>
      </trkpt>
      <trkpt lat="43.51737" lon="5.73997">
        <ele>360.9</ele>
        <time>2014-03-02T08:27:47Z</time>
      </trkpt>
      <trkpt lat="43.51751" lon="5.74007">
        <ele>364.3</ele>
        <time>2014-03-02T08:28:08Z</time>
      </trkpt>
      <trkpt lat="43.51758" lon="5.74014">
        <ele>366.1</ele>
        <time>2014-03-02T08:28:19Z</time>
      </trkpt>
      <trkpt lat="43.51764" lon="5.74023">
        <ele>367.6</ele>
        <time>2014-03-02T08:28:31Z</time>
      </trkpt>
      <trkpt lat="43.5177" lon="5.74031">
        <ele>369.5</ele>
        <time>2014-03-02T08:28:43Z</time>
      </trkpt>
      <trkpt lat="43.51777" lon="5.74038">
        <ele>371.3</ele>
        <time>2014-03-02T08:28:55Z</time>
      </trkpt>
      <trkpt lat="43.51778" lon="5.74039">
        <ele>371.2</ele>
        <time>2014-03-02T08:28:56Z</time>
      </trkpt>
      <trkpt lat="43.51793" lon="5.74048">
        <ele>374.5</ele>
        <time>2014-03-02T08:29:18Z</time>
      </trkpt>
      <trkpt lat="43.51801" lon="5.74054">
        <ele>376.1</ele>
        <time>2014-03-02T08:29:32Z</time>
      </trkpt>
      <trkpt lat="43.51807" lon="5.74061">
        <ele>377.3</ele>
        <time>2014-03-02T08:29:45Z</time>
      </trkpt>
      <trkpt lat="43.51814" lon="5.74069">
        <ele>378</ele>
        <time>2014-03-02T08:29:55Z</time>
      </trkpt>
      <trkpt lat="43.51821" lon="5.74076">
        <ele>379.1</ele>
        <time>2014-03-02T08:30:06Z</time>
      </trkpt>
      <trkpt lat="43.51821" lon="5.74076">
        <ele>379.5</ele>
        <time>2014-03-02T08:30:08Z</time>
      </trkpt>
      <trkpt lat="43.51832" lon="5.74094">
        <ele>381.9</ele>
        <time>2014-03-02T08:30:29Z</time>
      </trkpt>
      <trkpt lat="43.51838" lon="5.74102">
        <ele>383.2</ele>
        <time>2014-03-02T08:30:39Z</time>
      </trkpt>
      <trkpt lat="43.51844" lon="5.74111">
        <ele>385.3</ele>
        <time>2014-03-02T08:30:50Z</time>
      </trkpt>
      <trkpt lat="43.5185" lon="5.74119">
        <ele>386</ele>
        <time>2014-03-02T08:31:01Z</time>
      </trkpt>
      <trkpt lat="43.51857" lon="5.74127">
        <ele>387.4</ele>
        <time>2014-03-02T08:31:15Z</time>
      </trkpt>
      <trkpt lat="43.51857" lon="5.74128">
        <ele>387.6</ele>
        <time>2014-03-02T08:31:16Z</time>
      </trkpt>
      <trkpt lat="43.51868" lon="5.74143">
        <ele>391.4</ele>
        <time>2014-03-02T08:31:38Z</time>
      </trkpt>
      <trkpt lat="43.51875" lon="5.74151">
        <ele>392.8</ele>
        <time>2014-03-02T08:31:49Z</time>
      </trkpt>
      <trkpt lat="43.51882" lon="5.74157">
        <ele>394.9</ele>
        <time>2014-03-02T08:32:00Z</time>
      </trkpt>
      <trkpt lat="43.51889" lon="5.74163">
        <ele>395.1</ele>
        <time>2014-03-02T08:32:11Z</time>
      </trkpt>
      <trkpt lat="43.51897" lon="5.74168">
        <ele>396.5</ele>
        <time>2014-03-02T08:32:21Z</time>
      </trkpt>
      <trkpt lat="43.51898" lon="5.74168">
        <ele>396.4</ele>
        <time>2014-03-02T08:32:22Z</time>
      </trkpt>
      <trkpt lat="43.51914" lon="5.74171">
        <ele>398.2</ele>
        <time>2014-03-02T08:32:44Z</time>
      </trkpt>
      <trkpt lat="43.51921" lon="5.74176">
        <ele>398.8</ele>
        <time>2014-03-02T08:32:55Z</time>
      </trkpt>
      <trkpt lat="43.5193" lon="5.74179">
        <ele>399.2</ele>
        <time>2014-03-02T08:35:04Z</time>
      </trkpt>
      <trkpt lat="43.51931" lon="5.74179">
        <ele>399.3</ele>
        <time>2014-03-02T08:35:05Z</time>
      </trkpt>
      <trkpt lat="43.51943" lon="5.74193">
        <ele>401.4</ele>
        <time>2014-03-02T08:35:25Z</time>
      </trkpt>
      <trkpt lat="43.51951" lon="5.74198">
        <ele>401.6</ele>
        <time>2014-03-02T08:35:34Z</time>
      </trkpt>
      <trkpt lat="43.51958" lon="5.74205">
        <ele>402</ele>
        <time>2014-03-02T08:35:43Z</time>
      </trkpt>
      <trkpt lat="43.51962" lon="5.74215">
        <ele>402.7</ele>
        <time>2014-03-02T08:36:00Z</time>
      </trkpt>
      <trkpt lat="43.51956" lon="5.74224">
        <ele>404.2</ele>
        <time>2014-03-02T08:36:08Z</time>
      </trkpt>
      <trkpt lat="43.51956" lon="5.74225">
        <ele>404.4</ele>
        <time>2014-03-02T08:36:09Z</time>
      </trkpt>
      <trkpt lat="43.51947" lon="5.74243">
        <ele>402.2</ele>
        <time>2014-03-02T08:36:26Z</time>
      </trkpt>
      <trkpt lat="43.51942" lon="5.74253">
        <ele>401.6</ele>
        <time>2014-03-02T08:36:36Z</time>
      </trkpt>
      <trkpt lat="43.51938" lon="5.74263">
        <ele>401.3</ele>
        <time>2014-03-02T08:36:45Z</time>
      </trkpt>
      <trkpt lat="43.51931" lon="5.74271">
        <ele>400.8</ele>
        <time>2014-03-02T08:36:53Z</time>
      </trkpt>
      <trkpt lat="43.51928" lon="5.74281">
        <ele>400.8</ele>
        <time>2014-03-02T08:37:02Z</time>
      </trkpt>
      <trkpt lat="43.51923" lon="5.74291">
        <ele>399.8</ele>
        <time>2014-03-02T08:37:11Z</time>
      </trkpt>
      <trkpt lat="43.51923" lon="5.74292">
        <ele>399.6</ele>
        <time>2014-03-02T08:37:12Z</time>
      </trkpt>
      <trkpt lat="43.51913" lon="5.74309">
        <ele>398.8</ele>
        <time>2014-03-02T08:37:28Z</time>
      </trkpt>
      <trkpt lat="43.5191" lon="5.7432">
        <ele>398.1</ele>
        <time>2014-03-02T08:37:36Z</time>
      </trkpt>
      <trkpt lat="43.5191" lon="5.74332">
        <ele>398.2</ele>
        <time>2014-03-02T08:37:44Z</time>
      </trkpt>
      <trkpt lat="43.51917" lon="5.74339">
        <ele>399.7</ele>
        <time>2014-03-02T08:37:53Z</time>
      </trkpt>
      <trkpt lat="43.51924" lon="5.74344">
        <ele>401</ele>
        <time>2014-03-02T08:38:03Z</time>
      </trkpt>
      <trkpt lat="43.51932" lon="5.74348">
        <ele>401.9</ele>
        <time>2014-03-02T08:38:13Z</time>
      </trkpt>
      <trkpt lat="43.51933" lon="5.74348">
        <ele>401.9</ele>
        <time>2014-03-02T08:38:14Z</time>
      </trkpt>
      <trkpt lat="43.51949" lon="5.74345">
        <ele>404.2</ele>
        <time>2014-03-02T08:38:36Z</time>
      </trkpt>
      <trkpt lat="43.51957" lon="5.74343">
        <ele>406</ele>
        <time>2014-03-02T08:38:47Z</time>
      </trkpt>
      <trkpt lat="43.51965" lon="5.74339">
        <ele>407.2</ele>
        <time>2014-03-02T08:38:58Z</time>
      </trkpt>
      <trkpt lat="43.51973" lon="5.74335">
        <ele>408.9</ele>
        <time>2014-03-02T08:39:10Z</time>
      </trkpt>
      <trkpt lat="43.51982" lon="5.74332">
        <ele>411.1</ele>
        <time>2014-03-02T08:39:22Z</time>
      </trkpt>
      <trkpt lat="43.51982" lon="5.74331">
        <ele>411.6</ele>
        <time>2014-03-02T08:39:23Z</time>
      </trkpt>
      <trkpt lat="43.51999" lon="5.74331">
        <ele>414.1</ele>
        <time>2014-03-02T08:39:47Z</time>
      </trkpt>
      <trkpt lat="43.52004" lon="5.74339">
        <ele>415.3</ele>
        <time>2014-03-02T08:39:58Z</time>
      </trkpt>
      <trkpt lat="43.5201" lon="5.74348">
        <ele>416.5</ele>
        <time>2014-03-02T08:40:09Z</time>
      </trkpt>
      <trkpt lat="43.52016" lon="5.74357">
        <ele>416.3</ele>
        <time>2014-03-02T08:40:22Z</time>
      </trkpt>
      <trkpt lat="43.52025" lon="5.74361">
        <ele>416.7</ele>
        <time>2014-03-02T08:40:32Z</time>
      </trkpt>
      <trkpt lat="43.52026" lon="5.7436">
        <ele>416.9</ele>
        <time>2014-03-02T08:40:33Z</time>
      </trkpt>
      <trkpt lat="43.52041" lon="5.7436">
        <ele>419</ele>
        <time>2014-03-02T08:40:50Z</time>
      </trkpt>
      <trkpt lat="43.5205" lon="5.74358">
        <ele>421.1</ele>
        <time>2014-03-02T08:41:00Z</time>
      </trkpt>
      <trkpt lat="43.52058" lon="5.74354">
        <ele>422.6</ele>
        <time>2014-03-02T08:41:11Z</time>
      </trkpt>
      <trkpt lat="43.52067" lon="5.74355">
        <ele>423.6</ele>
        <time>2014-03-02T08:41:23Z</time>
      </trkpt>
      <trkpt lat="43.52075" lon="5.74355">
        <ele>425.5</ele>
        <time>2014-03-02T08:41:35Z</time>
      </trkpt>
      <trkpt lat="43.52076" lon="5.74355">
        <ele>425.5</ele>
        <time>2014-03-02T08:41:36Z</time>
      </trkpt>
      <trkpt lat="43.5209" lon="5.74363">
        <ele>426.8</ele>
        <time>2014-03-02T08:41:54Z</time>
      </trkpt>
      <trkpt lat="43.52099" lon="5.74365">
        <ele>427.9</ele>
        <time>2014-03-02T08:42:05Z</time>
      </trkpt>
      <trkpt lat="43.52106" lon="5.74372">
        <ele>428.9</ele>
        <time>2014-03-02T08:42:14Z</time>
      </trkpt>
      <trkpt lat="43.52114" lon="5.74378">
        <ele>429.9</ele>
        <time>2014-03-02T08:42:25Z</time>
      </trkpt>
      <trkpt lat="43.52122" lon="5.74381">
        <ele>431.1</ele>
        <time>2014-03-02T08:42:35Z</time>
      </trkpt>
      <trkpt lat="43.5213" lon="5.74384">
        <ele>432.3</ele>
        <time>2014-03-02T08:42:45Z</time>
      </trkpt>
      <trkpt lat="43.52131" lon="5.74384">
        <ele>432.4</ele>
        <time>2014-03-02T08:42:46Z</time>
      </trkpt>
      <trkpt lat="43.52147" lon="5.74389">
        <ele>436.2</ele>
        <time>2014-03-02T08:43:09Z</time>
      </trkpt>
      <trkpt lat="43.52155" lon="5.7439">
        <ele>437.5</ele>
        <time>2014-03-02T08:43:19Z</time>
      </trkpt>
      <trkpt lat="43.52163" lon="5.7439">
        <ele>437.9</ele>
        <time>2014-03-02T08:43:30Z</time>
      </trkpt>
      <trkpt lat="43.52172" lon="5.74392">
        <ele>439.9</ele>
        <time>2014-03-02T08:43:43Z</time>
      </trkpt>
      <trkpt lat="43.52181" lon="5.74393">
        <ele>440.5</ele>
        <time>2014-03-02T08:43:54Z</time>
      </trkpt>
      <trkpt lat="43.52182" lon="5.74394">
        <ele>440.7</ele>
        <time>2014-03-02T08:43:55Z</time>
      </trkpt>
      <trkpt lat="43.52197" lon="5.744">
        <ele>443.9</ele>
        <time>2014-03-02T08:44:17Z</time>
      </trkpt>
      <trkpt lat="43.52206" lon="5.74403">
        <ele>445.8</ele>
        <time>2014-03-02T08:44:32Z</time>
      </trkpt>
      <trkpt lat="43.52214" lon="5.74403">
        <ele>447.6</ele>
        <time>2014-03-02T08:44:44Z</time>
      </trkpt>
      <trkpt lat="43.52223" lon="5.74402">
        <ele>448.4</ele>
        <time>2014-03-02T08:44:56Z</time>
      </trkpt>
      <trkpt lat="43.52223" lon="5.74402">
        <ele>448.5</ele>
        <time>2014-03-02T08:44:57Z</time>
      </trkpt>
      <trkpt lat="43.5224" lon="5.74402">
        <ele>448.5</ele>
        <time>2014-03-02T08:45:18Z</time>
      </trkpt>
      <trkpt lat="43.52248" lon="5.74401">
        <ele>449.2</ele>
        <time>2014-03-02T08:45:30Z</time>
      </trkpt>
      <trkpt lat="43.52257" lon="5.74397">
        <ele>449.6</ele>
        <time>2014-03-02T08:45:41Z</time>
      </trkpt>
      <trkpt lat="43.52264" lon="5.74392">
        <ele>451.2</ele>
        <time>2014-03-02T08:45:50Z</time>
      </trkpt>
      <trkpt lat="43.5227" lon="5.74383">
        <ele>451</ele>
        <time>2014-03-02T08:45:58Z</time>
      </trkpt>
      <trkpt lat="43.5227" lon="5.74382">
        <ele>451.1</ele>
        <time>2014-03-02T08:45:59Z</time>
      </trkpt>
      <trkpt lat="43.5228" lon="5.74365">
        <ele>452.5</ele>
        <time>2014-03-02T08:46:15Z</time>
      </trkpt>
      <trkpt lat="43.52286" lon="5.74356">
        <ele>453</ele>
        <time>2014-03-02T08:46:24Z</time>
      </trkpt>
      <trkpt lat="43.52294" lon="5.74356">
        <ele>453.2</ele>
        <time>2014-03-02T08:46:37Z</time>
      </trkpt>
      <trkpt lat="43.52303" lon="5.74356">
        <ele>454.5</ele>
        <time>2014-03-02T08:46:48Z</time>
      </trkpt>
      <trkpt lat="43.52312" lon="5.74356">
        <ele>455</ele>
        <time>2014-03-02T08:47:00Z</time>
      </trkpt>
      <trkpt lat="43.52312" lon="5.74357">
        <ele>455</ele>
        <time>2014-03-02T08:47:01Z</time>
      </trkpt>
      <trkpt lat="43.52328" lon="5.74358">
        <ele>458</ele>
        <time>2014-03-02T08:47:20Z</time>
      </trkpt>
      <trkpt lat="43.52335" lon="5.74366">
        <ele>458.8</ele>
        <time>2014-03-02T08:47:32Z</time>
      </trkpt>
      <trkpt lat="43.52341" lon="5.74373">
        <ele>460.2</ele>
        <time>2014-03-02T08:47:43Z</time>
      </trkpt>
      <trkpt lat="43.52348" lon="5.7438">
        <ele>460.3</ele>
        <time>2014-03-02T08:47:51Z</time>
      </trkpt>
      <trkpt lat="43.52355" lon="5.74386">
        <ele>462</ele>
        <time>2014-03-02T08:47:59Z</time>
      </trkpt>
      <trkpt lat="43.52361" lon="5.74393">
        <ele>462.7</ele>
        <time>2014-03-02T08:48:07Z</time>
      </trkpt>
      <trkpt lat="43.52361" lon="5.74394">
        <ele>462.3</ele>
        <time>2014-03-02T08:48:08Z</time>
      </trkpt>
      <trkpt lat="43.52375" lon="5.74405">
        <ele>463</ele>
        <time>2014-03-02T08:48:24Z</time>
      </trkpt>
      <trkpt lat="43.52384" lon="5.74407">
        <ele>462.8</ele>
        <time>2014-03-02T08:48:34Z</time>
      </trkpt>
      <trkpt lat="43.52392" lon="5.74409">
        <ele>463.2</ele>
        <time>2014-03-02T08:48:41Z</time>
      </trkpt>
      <trkpt lat="43.524" lon="5.74412">
        <ele>463</ele>
        <time>2014-03-02T08:48:49Z</time>
      </trkpt>
      <trkpt lat="43.52408" lon="5.74414">
        <ele>462.8</ele>
        <time>2014-03-02T08:48:56Z</time>
      </trkpt>
      <trkpt lat="43.52417" lon="5.74417">
        <ele>463</ele>
        <time>2014-03-02T08:49:04Z</time>
      </trkpt>
      <trkpt lat="43.52425" lon="5.74419">
        <ele>462.4</ele>
        <time>2014-03-02T08:49:13Z</time>
      </trkpt>
      <trkpt lat="43.52426" lon="5.74419">
        <ele>462.3</ele>
        <time>2014-03-02T08:49:14Z</time>
      </trkpt>
      <trkpt lat="43.52441" lon="5.74425">
        <ele>461.9</ele>
        <time>2014-03-02T08:49:31Z</time>
      </trkpt>
      <trkpt lat="43.52449" lon="5.74421">
        <ele>461.9</ele>
        <time>2014-03-02T08:49:39Z</time>
      </trkpt>
      <trkpt lat="43.52455" lon="5.74413">
        <ele>462.3</ele>
        <time>2014-03-02T08:49:48Z</time>
      </trkpt>
      <trkpt lat="43.52462" lon="5.74406">
        <ele>462.8</ele>
        <time>2014-03-02T08:49:58Z</time>
      </trkpt>
      <trkpt lat="43.52467" lon="5.74395">
        <ele>462.3</ele>
        <time>2014-03-02T08:50:19Z</time>
      </trkpt>
      <trkpt lat="43.52467" lon="5.74395">
        <ele>462.3</ele>
        <time>2014-03-02T08:50:20Z</time>
      </trkpt>
      <trkpt lat="43.52476" lon="5.74397">
        <ele>463.7</ele>
        <time>2014-03-02T08:55:32Z</time>
      </trkpt>
      <trkpt lat="43.52492" lon="5.74401">
        <ele>462.9</ele>
        <time>2014-03-02T08:55:48Z</time>
      </trkpt>
      <trkpt lat="43.525" lon="5.74402">
        <ele>463.1</ele>
        <time>2014-03-02T08:55:55Z</time>
      </trkpt>
      <trkpt lat="43.52509" lon="5.74404">
        <ele>462.7</ele>
        <time>2014-03-02T08:56:03Z</time>
      </trkpt>
      <trkpt lat="43.52516" lon="5.7441">
        <ele>462.3</ele>
        <time>2014-03-02T08:56:13Z</time>
      </trkpt>
      <trkpt lat="43.52523" lon="5.74415">
        <ele>462.4</ele>
        <time>2014-03-02T08:56:21Z</time>
      </trkpt>
      <trkpt lat="43.5253" lon="5.7442">
        <ele>463.2</ele>
        <time>2014-03-02T08:56:29Z</time>
      </trkpt>
      <trkpt lat="43.52538" lon="5.74427">
        <ele>463.1</ele>
        <time>2014-03-02T08:56:39Z</time>
      </trkpt>
      <trkpt lat="43.52538" lon="5.74427">
        <ele>462.9</ele>
        <time>2014-03-02T08:56:40Z</time>
      </trkpt>
      <trkpt lat="43.52542" lon="5.74447">
        <ele>462.3</ele>
        <time>2014-03-02T08:56:57Z</time>
      </trkpt>
      <trkpt lat="43.52542" lon="5.74459">
        <ele>462</ele>
        <time>2014-03-02T08:57:06Z</time>
      </trkpt>
      <trkpt lat="43.52544" lon="5.74471">
        <ele>461.3</ele>
        <time>2014-03-02T08:57:15Z</time>
      </trkpt>
      <trkpt lat="43.52551" lon="5.74477">
        <ele>460.9</ele>
        <time>2014-03-02T08:57:22Z</time>
      </trkpt>
      <trkpt lat="43.52559" lon="5.7448">
        <ele>462</ele>
        <time>2014-03-02T08:57:30Z</time>
      </trkpt>
      <trkpt lat="43.52566" lon="5.74484">
        <ele>462.6</ele>
        <time>2014-03-02T08:57:37Z</time>
      </trkpt>
      <trkpt lat="43.52575" lon="5.74487">
        <ele>462.2</ele>
        <time>2014-03-02T08:57:44Z</time>
      </trkpt>
      <trkpt lat="43.52575" lon="5.74488">
        <ele>461.8</ele>
        <time>2014-03-02T08:57:45Z</time>
      </trkpt>
      <trkpt lat="43.52591" lon="5.74492">
        <ele>463.4</ele>
        <time>2014-03-02T08:58:00Z</time>
      </trkpt>
      <trkpt lat="43.52597" lon="5.74499">
        <ele>463.1</ele>
        <time>2014-03-02T08:58:06Z</time>
      </trkpt>
      <trkpt lat="43.52605" lon="5.74502">
        <ele>462.9</ele>
        <time>2014-03-02T08:58:13Z</time>
      </trkpt>
      <trkpt lat="43.52613" lon="5.74507">
        <ele>463.1</ele>
        <time>2014-03-02T08:58:22Z</time>
      </trkpt>
      <trkpt lat="43.52621" lon="5.74511">
        <ele>463.2</ele>
        <time>2014-03-02T08:58:32Z</time>
      </trkpt>
      <trkpt lat="43.52629" lon="5.74515">
        <ele>462.6</ele>
        <time>2014-03-02T08:58:39Z</time>
      </trkpt>
      <trkpt lat="43.52637" lon="5.74517">
        <ele>462.8</ele>
        <time>2014-03-02T08:58:47Z</time>
      </trkpt>
      <trkpt lat="43.52638" lon="5.74518">
        <ele>462.4</ele>
        <time>2014-03-02T08:58:48Z</time>
      </trkpt>
      <trkpt lat="43.5265" lon="5.74532">
        <ele>461.5</ele>
        <time>2014-03-02T08:59:02Z</time>
      </trkpt>
      <trkpt lat="43.52654" lon="5.74541">
        <ele>461.3</ele>
        <time>2014-03-02T08:59:09Z</time>
      </trkpt>
      <trkpt lat="43.52659" lon="5.74551">
        <ele>460.2</ele>
        <time>2014-03-02T08:59:16Z</time>
      </trkpt>
      <trkpt lat="43.52664" lon="5.74559">
        <ele>460.1</ele>
        <time>2014-03-02T08:59:24Z</time>
      </trkpt>
      <trkpt lat="43.52669" lon="5.74568">
        <ele>459.2</ele>
        <time>2014-03-02T08:59:31Z</time>
      </trkpt>
      <trkpt lat="43.52674" lon="5.74577">
        <ele>458.2</ele>
        <time>2014-03-02T08:59:39Z</time>
      </trkpt>
      <trkpt lat="43.52679" lon="5.74585">
        <ele>457.8</ele>
        <time>2014-03-02T08:59:46Z</time>
      </trkpt>
      <trkpt lat="43.52684" lon="5.74594">
        <ele>457.5</ele>
        <time>2014-03-02T08:59:53Z</time>
      </trkpt>
      <trkpt lat="43.52684" lon="5.74596">
        <ele>457.4</ele>
        <time>2014-03-02T08:59:54Z</time>
      </trkpt>
      <trkpt lat="43.52688" lon="5.74617">
        <ele>457</ele>
        <time>2014-03-02T09:00:09Z</time>
      </trkpt>
      <trkpt lat="43.52689" lon="5.74629">
        <ele>455.8</ele>
        <time>2014-03-02T09:00:18Z</time>
      </trkpt>
      <trkpt lat="43.52693" lon="5.74639">
        <ele>455</ele>
        <time>2014-03-02T09:00:25Z</time>
      </trkpt>
      <trkpt lat="43.52698" lon="5.74648">
        <ele>454.8</ele>
        <time>2014-03-02T09:00:32Z</time>
      </trkpt>
      <trkpt lat="43.52707" lon="5.74646">
        <ele>453.4</ele>
        <time>2014-03-02T09:00:48Z</time>
      </trkpt>
      <trkpt lat="43.52711" lon="5.74636">
        <ele>453.9</ele>
        <time>2014-03-02T09:00:55Z</time>
      </trkpt>
      <trkpt lat="43.52711" lon="5.74635">
        <ele>453.8</ele>
        <time>2014-03-02T09:00:56Z</time>
      </trkpt>
      <trkpt lat="43.52718" lon="5.74617">
        <ele>452.2</ele>
        <time>2014-03-02T09:01:10Z</time>
      </trkpt>
      <trkpt lat="43.52722" lon="5.74607">
        <ele>450.9</ele>
        <time>2014-03-02T09:01:18Z</time>
      </trkpt>
      <trkpt lat="43.52726" lon="5.74596">
        <ele>449.8</ele>
        <time>2014-03-02T09:01:27Z</time>
      </trkpt>
      <trkpt lat="43.5273" lon="5.74587">
        <ele>448.8</ele>
        <time>2014-03-02T09:01:35Z</time>
      </trkpt>
      <trkpt lat="43.52733" lon="5.74576">
        <ele>449.1</ele>
        <time>2014-03-02T09:01:43Z</time>
      </trkpt>
      <trkpt lat="43.52735" lon="5.74565">
        <ele>448.8</ele>
        <time>2014-03-02T09:01:50Z</time>
      </trkpt>
      <trkpt lat="43.52737" lon="5.74554">
        <ele>447.9</ele>
        <time>2014-03-02T09:01:57Z</time>
      </trkpt>
      <trkpt lat="43.52737" lon="5.74552">
        <ele>447.7</ele>
        <time>2014-03-02T09:01:58Z</time>
      </trkpt>
      <trkpt lat="43.52737" lon="5.74531">
        <ele>447.5</ele>
        <time>2014-03-02T09:02:11Z</time>
      </trkpt>
      <trkpt lat="43.52741" lon="5.7452">
        <ele>445.5</ele>
        <time>2014-03-02T09:02:19Z</time>
      </trkpt>
      <trkpt lat="43.52745" lon="5.74509">
        <ele>445.7</ele>
        <time>2014-03-02T09:02:28Z</time>
      </trkpt>
      <trkpt lat="43.52748" lon="5.74499">
        <ele>446.2</ele>
        <time>2014-03-02T09:02:36Z</time>
      </trkpt>
      <trkpt lat="43.52751" lon="5.74488">
        <ele>446.1</ele>
        <time>2014-03-02T09:02:44Z</time>
      </trkpt>
      <trkpt lat="43.52759" lon="5.74485">
        <ele>444.6</ele>
        <time>2014-03-02T09:03:01Z</time>
      </trkpt>
      <trkpt lat="43.5276" lon="5.74486">
        <ele>444.6</ele>
        <time>2014-03-02T09:03:02Z</time>
      </trkpt>
      <trkpt lat="43.52772" lon="5.74501">
        <ele>446.2</ele>
        <time>2014-03-02T09:03:21Z</time>
      </trkpt>
      <trkpt lat="43.52779" lon="5.74507">
        <ele>446.6</ele>
        <time>2014-03-02T09:03:30Z</time>
      </trkpt>
      <trkpt lat="43.52786" lon="5.74514">
        <ele>447</ele>
        <time>2014-03-02T09:03:38Z</time>
      </trkpt>
      <trkpt lat="43.52792" lon="5.74522">
        <ele>447.7</ele>
        <time>2014-03-02T09:03:47Z</time>
      </trkpt>
      <trkpt lat="43.52799" lon="5.74529">
        <ele>448.1</ele>
        <time>2014-03-02T09:03:55Z</time>
      </trkpt>
      <trkpt lat="43.52805" lon="5.74535">
        <ele>449.1</ele>
        <time>2014-03-02T09:04:01Z</time>
      </trkpt>
      <trkpt lat="43.52813" lon="5.74541">
        <ele>449.4</ele>
        <time>2014-03-02T09:04:09Z</time>
      </trkpt>
      <trkpt lat="43.52814" lon="5.74541">
        <ele>449.2</ele>
        <time>2014-03-02T09:04:10Z</time>
      </trkpt>
      <trkpt lat="43.52826" lon="5.74555">
        <ele>451</ele>
        <time>2014-03-02T09:04:29Z</time>
      </trkpt>
      <trkpt lat="43.52833" lon="5.74561">
        <ele>451.3</ele>
        <time>2014-03-02T09:04:36Z</time>
      </trkpt>
      <trkpt lat="43.52837" lon="5.74571">
        <ele>452</ele>
        <time>2014-03-02T09:05:16Z</time>
      </trkpt>
      <trkpt lat="43.52837" lon="5.74572">
        <ele>452</ele>
        <time>2014-03-02T09:05:17Z</time>
      </trkpt>
      <trkpt lat="43.52846" lon="5.74566">
        <ele>450.9</ele>
        <time>2014-03-02T09:06:52Z</time>
      </trkpt>
      <trkpt lat="43.52861" lon="5.74577">
        <ele>452.1</ele>
        <time>2014-03-02T09:07:13Z</time>
      </trkpt>
      <trkpt lat="43.52867" lon="5.74585">
        <ele>452.4</ele>
        <time>2014-03-02T09:07:26Z</time>
      </trkpt>
      <trkpt lat="43.52872" lon="5.74594">
        <ele>453.5</ele>
        <time>2014-03-02T09:07:36Z</time>
      </trkpt>
      <trkpt lat="43.52877" lon="5.74604">
        <ele>454.3</ele>
        <time>2014-03-02T09:07:44Z</time>
      </trkpt>
      <trkpt lat="43.52882" lon="5.74612">
        <ele>454.4</ele>
        <time>2014-03-02T09:07:53Z</time>
      </trkpt>
      <trkpt lat="43.52883" lon="5.74613">
        <ele>454.3</ele>
        <time>2014-03-02T09:07:54Z</time>
      </trkpt>
      <trkpt lat="43.52896" lon="5.74627">
        <ele>455.1</ele>
        <time>2014-03-02T09:08:10Z</time>
      </trkpt>
      <trkpt lat="43.52903" lon="5.74631">
        <ele>455.2</ele>
        <time>2014-03-02T09:08:18Z</time>
      </trkpt>
      <trkpt lat="43.52911" lon="5.74635">
        <ele>455.6</ele>
        <time>2014-03-02T09:08:26Z</time>
      </trkpt>
      <trkpt lat="43.5292" lon="5.74638">
        <ele>455.6</ele>
        <time>2014-03-02T09:08:33Z</time>
      </trkpt>
      <trkpt lat="43.52927" lon="5.7464">
        <ele>456.2</ele>
        <time>2014-03-02T09:08:40Z</time>
      </trkpt>
      <trkpt lat="43.52935" lon="5.74644">
        <ele>456.4</ele>
        <time>2014-03-02T09:08:49Z</time>
      </trkpt>
      <trkpt lat="43.52943" lon="5.74649">
        <ele>456.9</ele>
        <time>2014-03-02T09:08:59Z</time>
      </trkpt>
      <trkpt lat="43.52944" lon="5.7465">
        <ele>456.9</ele>
        <time>2014-03-02T09:09:00Z</time>
      </trkpt>
      <trkpt lat="43.52957" lon="5.74662">
        <ele>457.6</ele>
        <time>2014-03-02T09:09:16Z</time>
      </trkpt>
      <trkpt lat="43.52964" lon="5.74669">
        <ele>457.8</ele>
        <time>2014-03-02T09:09:23Z</time>
      </trkpt>
      <trkpt lat="43.5297" lon="5.74677">
        <ele>458</ele>
        <time>2014-03-02T09:09:31Z</time>
      </trkpt>
      <trkpt lat="43.52974" lon="5.74686">
        <ele>458</ele>
        <time>2014-03-02T09:09:39Z</time>
      </trkpt>
      <trkpt lat="43.52981" lon="5.74694">
        <ele>458.4</ele>
        <time>2014-03-02T09:09:47Z</time>
      </trkpt>
      <trkpt lat="43.52988" lon="5.74699">
        <ele>458.8</ele>
        <time>2014-03-02T09:09:56Z</time>
      </trkpt>
      <trkpt lat="43.52996" lon="5.74704">
        <ele>459</ele>
        <time>2014-03-02T09:10:03Z</time>
      </trkpt>
      <trkpt lat="43.52997" lon="5.74704">
        <ele>459.2</ele>
        <time>2014-03-02T09:10:04Z</time>
      </trkpt>
      <trkpt lat="43.53009" lon="5.74718">
        <ele>460.1</ele>
        <time>2014-03-02T09:10:21Z</time>
      </trkpt>
      <trkpt lat="43.53017" lon="5.74723">
        <ele>460.5</ele>
        <time>2014-03-02T09:10:29Z</time>
      </trkpt>
      <trkpt lat="43.53024" lon="5.74728">
        <ele>460.7</ele>
        <time>2014-03-02T09:10:36Z</time>
      </trkpt>
      <trkpt lat="43.5303" lon="5.74736">
        <ele>461.6</ele>
        <time>2014-03-02T09:10:44Z</time>
      </trkpt>
      <trkpt lat="43.53037" lon="5.74743">
        <ele>461.7</ele>
        <time>2014-03-02T09:10:52Z</time>
      </trkpt>
      <trkpt lat="43.53043" lon="5.7475">
        <ele>461.4</ele>
        <time>2014-03-02T09:10:59Z</time>
      </trkpt>
      <trkpt lat="43.5305" lon="5.74758">
        <ele>461.4</ele>
        <time>2014-03-02T09:11:07Z</time>
      </trkpt>
      <trkpt lat="43.5305" lon="5.74759">
        <ele>461.4</ele>
        <time>2014-03-02T09:11:08Z</time>
      </trkpt>
      <trkpt lat="43.53061" lon="5.74774">
        <ele>461.6</ele>
        <time>2014-03-02T09:11:23Z</time>
      </trkpt>
      <trkpt lat="43.53067" lon="5.74781">
        <ele>461.8</ele>
        <time>2014-03-02T09:11:31Z</time>
      </trkpt>
      <trkpt lat="43.53072" lon="5.74791">
        <ele>462</ele>
        <time>2014-03-02T09:11:40Z</time>
      </trkpt>
      <trkpt lat="43.53077" lon="5.748">
        <ele>461.9</ele>
        <time>2014-03-02T09:11:49Z</time>
      </trkpt>
      <trkpt lat="43.53084" lon="5.74807">
        <ele>462.3</ele>
        <time>2014-03-02T09:11:56Z</time>
      </trkpt>
      <trkpt lat="43.53089" lon="5.74817">
        <ele>462.2</ele>
        <time>2014-03-02T09:12:04Z</time>
      </trkpt>
      <trkpt lat="43.53093" lon="5.74828">
        <ele>463.2</ele>
        <time>2014-03-02T09:12:14Z</time>
      </trkpt>
      <trkpt lat="43.53093" lon="5.74829">
        <ele>463.3</ele>
        <time>2014-03-02T09:12:15Z</time>
      </trkpt>
      <trkpt lat="43.53104" lon="5.74844">
        <ele>464.3</ele>
        <time>2014-03-02T09:12:30Z</time>
      </trkpt>
      <trkpt lat="43.53112" lon="5.7485">
        <ele>464.2</ele>
        <time>2014-03-02T09:12:38Z</time>
      </trkpt>
      <trkpt lat="43.53118" lon="5.74857">
        <ele>464.1</ele>
        <time>2014-03-02T09:12:46Z</time>
      </trkpt>
      <trkpt lat="43.53126" lon="5.74859">
        <ele>464.5</ele>
        <time>2014-03-02T09:12:54Z</time>
      </trkpt>
      <trkpt lat="43.53134" lon="5.74862">
        <ele>465</ele>
        <time>2014-03-02T09:13:04Z</time>
      </trkpt>
      <trkpt lat="43.53142" lon="5.74865">
        <ele>465.1</ele>
        <time>2014-03-02T09:13:12Z</time>
      </trkpt>
      <trkpt lat="43.5315" lon="5.74867">
        <ele>465.2</ele>
        <time>2014-03-02T09:13:20Z</time>
      </trkpt>
      <trkpt lat="43.53151" lon="5.74867">
        <ele>465.4</ele>
        <time>2014-03-02T09:13:21Z</time>
      </trkpt>
      <trkpt lat="43.53166" lon="5.74872">
        <ele>466.1</ele>
        <time>2014-03-02T09:13:34Z</time>
      </trkpt>
      <trkpt lat="43.53175" lon="5.74872">
        <ele>466.4</ele>
        <time>2014-03-02T09:13:41Z</time>
      </trkpt>
      <trkpt lat="43.53183" lon="5.74874">
        <ele>466.9</ele>
        <time>2014-03-02T09:13:51Z</time>
      </trkpt>
      <trkpt lat="43.53192" lon="5.74875">
        <ele>467</ele>
        <time>2014-03-02T09:14:00Z</time>
      </trkpt>
      <trkpt lat="43.53199" lon="5.74881">
        <ele>467.9</ele>
        <time>2014-03-02T09:14:07Z</time>
      </trkpt>
      <trkpt lat="43.53207" lon="5.74886">
        <ele>468.4</ele>
        <time>2014-03-02T09:14:17Z</time>
      </trkpt>
      <trkpt lat="43.53214" lon="5.7489">
        <ele>468.6</ele>
        <time>2014-03-02T09:14:24Z</time>
      </trkpt>
      <trkpt lat="43.53215" lon="5.74891">
        <ele>468.7</ele>
        <time>2014-03-02T09:14:25Z</time>
      </trkpt>
      <trkpt lat="43.53231" lon="5.74896">
        <ele>469.6</ele>
        <time>2014-03-02T09:14:39Z</time>
      </trkpt>
      <trkpt lat="43.53239" lon="5.74899">
        <ele>469.2</ele>
        <time>2014-03-02T09:14:46Z</time>
      </trkpt>
      <trkpt lat="43.53247" lon="5.74904">
        <ele>469.9</ele>
        <time>2014-03-02T09:14:54Z</time>
      </trkpt>
      <trkpt lat="43.53255" lon="5.74908">
        <ele>470.4</ele>
        <time>2014-03-02T09:15:03Z</time>
      </trkpt>
      <trkpt lat="43.53262" lon="5.74912">
        <ele>470.8</ele>
        <time>2014-03-02T09:15:10Z</time>
      </trkpt>
      <trkpt lat="43.5327" lon="5.74914">
        <ele>470.9</ele>
        <time>2014-03-02T09:15:17Z</time>
      </trkpt>
      <trkpt lat="43.53278" lon="5.74917">
        <ele>471.5</ele>
        <time>2014-03-02T09:15:24Z</time>
      </trkpt>
      <trkpt lat="43.53287" lon="5.74916">
        <ele>471.6</ele>
        <time>2014-03-02T09:15:33Z</time>
      </trkpt>
      <trkpt lat="43.53288" lon="5.74916">
        <ele>471.6</ele>
        <time>2014-03-02T09:15:34Z</time>
      </trkpt>
      <trkpt lat="43.53303" lon="5.74922">
        <ele>472</ele>
        <time>2014-03-02T09:15:49Z</time>
      </trkpt>
      <trkpt lat="43.53312" lon="5.74925">
        <ele>472.5</ele>
        <time>2014-03-02T09:15:56Z</time>
      </trkpt>
      <trkpt lat="43.5332" lon="5.74929">
        <ele>472.9</ele>
        <time>2014-03-02T09:16:03Z</time>
      </trkpt>
      <trkpt lat="43.53328" lon="5.74931">
        <ele>473.2</ele>
        <time>2014-03-02T09:16:12Z</time>
      </trkpt>
      <trkpt lat="43.53337" lon="5.7493">
        <ele>473.8</ele>
        <time>2014-03-02T09:16:22Z</time>
      </trkpt>
      <trkpt lat="43.53345" lon="5.74932">
        <ele>474.2</ele>
        <time>2014-03-02T09:16:29Z</time>
      </trkpt>
      <trkpt lat="43.53354" lon="5.74934">
        <ele>473.9</ele>
        <time>2014-03-02T09:16:36Z</time>
      </trkpt>
      <trkpt lat="43.53355" lon="5.74935">
        <ele>473.9</ele>
        <time>2014-03-02T09:16:37Z</time>
      </trkpt>
      <trkpt lat="43.53371" lon="5.74939">
        <ele>474.5</ele>
        <time>2014-03-02T09:16:52Z</time>
      </trkpt>
      <trkpt lat="43.5338" lon="5.74942">
        <ele>475.4</ele>
        <time>2014-03-02T09:17:02Z</time>
      </trkpt>
      <trkpt lat="43.53388" lon="5.74945">
        <ele>475.9</ele>
        <time>2014-03-02T09:17:09Z</time>
      </trkpt>
      <trkpt lat="43.53396" lon="5.74946">
        <ele>476.5</ele>
        <time>2014-03-02T09:17:16Z</time>
      </trkpt>
      <trkpt lat="43.53405" lon="5.74946">
        <ele>476.5</ele>
        <time>2014-03-02T09:17:24Z</time>
      </trkpt>
      <trkpt lat="43.53413" lon="5.74948">
        <ele>476.7</ele>
        <time>2014-03-02T09:17:32Z</time>
      </trkpt>
      <trkpt lat="43.53421" lon="5.7495">
        <ele>476.7</ele>
        <time>2014-03-02T09:17:40Z</time>
      </trkpt>
      <trkpt lat="43.53422" lon="5.74951">
        <ele>476.7</ele>
        <time>2014-03-02T09:17:41Z</time>
      </trkpt>
      <trkpt lat="43.53438" lon="5.7495">
        <ele>476.9</ele>
        <time>2014-03-02T09:18:00Z</time>
      </trkpt>
      <trkpt lat="43.53446" lon="5.74949">
        <ele>477.6</ele>
        <time>2014-03-02T09:18:11Z</time>
      </trkpt>
      <trkpt lat="43.53455" lon="5.7495">
        <ele>477.6</ele>
        <time>2014-03-02T09:18:21Z</time>
      </trkpt>
      <trkpt lat="43.53464" lon="5.74952">
        <ele>478.6</ele>
        <time>2014-03-02T09:18:31Z</time>
      </trkpt>
      <trkpt lat="43.53473" lon="5.7495">
        <ele>478.7</ele>
        <time>2014-03-02T09:18:39Z</time>
      </trkpt>
      <trkpt lat="43.53481" lon="5.74946">
        <ele>479.1</ele>
        <time>2014-03-02T09:18:45Z</time>
      </trkpt>
      <trkpt lat="43.53483" lon="5.74946">
        <ele>479.2</ele>
        <time>2014-03-02T09:18:46Z</time>
      </trkpt>
      <trkpt lat="43.53498" lon="5.74941">
        <ele>479.3</ele>
        <time>2014-03-02T09:19:00Z</time>
      </trkpt>
      <trkpt lat="43.53506" lon="5.74937">
        <ele>479.7</ele>
        <time>2014-03-02T09:19:10Z</time>
      </trkpt>
      <trkpt lat="43.53514" lon="5.74934">
        <ele>480.4</ele>
        <time>2014-03-02T09:19:16Z</time>
      </trkpt>
      <trkpt lat="43.53522" lon="5.7493">
        <ele>480.3</ele>
        <time>2014-03-02T09:19:23Z</time>
      </trkpt>
      <trkpt lat="43.53531" lon="5.74931">
        <ele>480.4</ele>
        <time>2014-03-02T09:19:31Z</time>
      </trkpt>
      <trkpt lat="43.53539" lon="5.74928">
        <ele>479.5</ele>
        <time>2014-03-02T09:19:40Z</time>
      </trkpt>
      <trkpt lat="43.53547" lon="5.74925">
        <ele>479.3</ele>
        <time>2014-03-02T09:19:47Z</time>
      </trkpt>
      <trkpt lat="43.53548" lon="5.74924">
        <ele>479.4</ele>
        <time>2014-03-02T09:19:48Z</time>
      </trkpt>
      <trkpt lat="43.5356" lon="5.74909">
        <ele>480.2</ele>
        <time>2014-03-02T09:20:06Z</time>
      </trkpt>
      <trkpt lat="43.53566" lon="5.749">
        <ele>480.7</ele>
        <time>2014-03-02T09:20:14Z</time>
      </trkpt>
      <trkpt lat="43.5357" lon="5.74891">
        <ele>481.2</ele>
        <time>2014-03-02T09:20:24Z</time>
      </trkpt>
      <trkpt lat="43.53571" lon="5.74879">
        <ele>481.6</ele>
        <time>2014-03-02T09:20:36Z</time>
      </trkpt>
      <trkpt lat="43.53577" lon="5.7487">
        <ele>481.7</ele>
        <time>2014-03-02T09:20:43Z</time>
      </trkpt>
      <trkpt lat="43.53579" lon="5.74858">
        <ele>481.6</ele>
        <time>2014-03-02T09:20:53Z</time>
      </trkpt>
      <trkpt lat="43.53579" lon="5.74856">
        <ele>481.7</ele>
        <time>2014-03-02T09:20:54Z</time>
      </trkpt>
      <trkpt lat="43.53588" lon="5.74838">
        <ele>483.4</ele>
        <time>2014-03-02T09:21:08Z</time>
      </trkpt>
      <trkpt lat="43.5359" lon="5.74828">
        <ele>483.3</ele>
        <time>2014-03-02T09:21:17Z</time>
      </trkpt>
      <trkpt lat="43.53593" lon="5.74817">
        <ele>483.8</ele>
        <time>2014-03-02T09:21:24Z</time>
      </trkpt>
      <trkpt lat="43.53595" lon="5.74806">
        <ele>484.6</ele>
        <time>2014-03-02T09:21:33Z</time>
      </trkpt>
      <trkpt lat="43.53599" lon="5.74797">
        <ele>484.8</ele>
        <time>2014-03-02T09:21:41Z</time>
      </trkpt>
      <trkpt lat="43.53603" lon="5.74786">
        <ele>485.6</ele>
        <time>2014-03-02T09:21:48Z</time>
      </trkpt>
      <trkpt lat="43.53605" lon="5.74774">
        <ele>486.2</ele>
        <time>2014-03-02T09:21:56Z</time>
      </trkpt>
      <trkpt lat="43.53605" lon="5.74772">
        <ele>486.1</ele>
        <time>2014-03-02T09:21:57Z</time>
      </trkpt>
      <trkpt lat="43.53612" lon="5.74752">
        <ele>485.7</ele>
        <time>2014-03-02T09:22:13Z</time>
      </trkpt>
      <trkpt lat="43.53618" lon="5.74743">
        <ele>486.2</ele>
        <time>2014-03-02T09:22:21Z</time>
      </trkpt>
      <trkpt lat="43.53623" lon="5.74734">
        <ele>486.7</ele>
        <time>2014-03-02T09:22:30Z</time>
      </trkpt>
      <trkpt lat="43.53629" lon="5.74726">
        <ele>488.3</ele>
        <time>2014-03-02T09:22:38Z</time>
      </trkpt>
      <trkpt lat="43.53636" lon="5.74718">
        <ele>487.9</ele>
        <time>2014-03-02T09:22:47Z</time>
      </trkpt>
      <trkpt lat="43.53643" lon="5.7471">
        <ele>488.3</ele>
        <time>2014-03-02T09:22:56Z</time>
      </trkpt>
      <trkpt lat="43.53648" lon="5.74701">
        <ele>488.9</ele>
        <time>2014-03-02T09:23:04Z</time>
      </trkpt>
      <trkpt lat="43.53649" lon="5.747">
        <ele>489</ele>
        <time>2014-03-02T09:23:05Z</time>
      </trkpt>
      <trkpt lat="43.53662" lon="5.74687">
        <ele>490</ele>
        <time>2014-03-02T09:23:20Z</time>
      </trkpt>
      <trkpt lat="43.53668" lon="5.7468">
        <ele>490.1</ele>
        <time>2014-03-02T09:23:30Z</time>
      </trkpt>
      <trkpt lat="43.53674" lon="5.7467">
        <ele>491.1</ele>
        <time>2014-03-02T09:23:38Z</time>
      </trkpt>
      <trkpt lat="43.53679" lon="5.74661">
        <ele>491.8</ele>
        <time>2014-03-02T09:23:47Z</time>
      </trkpt>
      <trkpt lat="43.53684" lon="5.74651">
        <ele>492.6</ele>
        <time>2014-03-02T09:23:58Z</time>
      </trkpt>
      <trkpt lat="43.53692" lon="5.74645">
        <ele>493.4</ele>
        <time>2014-03-02T09:24:07Z</time>
      </trkpt>
      <trkpt lat="43.53693" lon="5.74645">
        <ele>493.6</ele>
        <time>2014-03-02T09:24:08Z</time>
      </trkpt>
      <trkpt lat="43.53704" lon="5.7463">
        <ele>494.3</ele>
        <time>2014-03-02T09:24:22Z</time>
      </trkpt>
      <trkpt lat="43.5371" lon="5.74621">
        <ele>494.9</ele>
        <time>2014-03-02T09:24:29Z</time>
      </trkpt>
      <trkpt lat="43.53715" lon="5.74613">
        <ele>495.6</ele>
        <time>2014-03-02T09:24:37Z</time>
      </trkpt>
      <trkpt lat="43.53721" lon="5.74604">
        <ele>496.5</ele>
        <time>2014-03-02T09:24:46Z</time>
      </trkpt>
      <trkpt lat="43.53726" lon="5.74595">
        <ele>496.8</ele>
        <time>2014-03-02T09:24:55Z</time>
      </trkpt>
      <trkpt lat="43.53731" lon="5.74587">
        <ele>496.9</ele>
        <time>2014-03-02T09:25:02Z</time>
      </trkpt>
      <trkpt lat="43.53737" lon="5.74579">
        <ele>497.3</ele>
        <time>2014-03-02T09:25:09Z</time>
      </trkpt>
      <trkpt lat="43.53738" lon="5.74578">
        <ele>497.3</ele>
        <time>2014-03-02T09:25:10Z</time>
      </trkpt>
      <trkpt lat="43.53749" lon="5.74563">
        <ele>498.3</ele>
        <time>2014-03-02T09:25:24Z</time>
      </trkpt>
      <trkpt lat="43.53755" lon="5.74553">
        <ele>498.1</ele>
        <time>2014-03-02T09:25:31Z</time>
      </trkpt>
      <trkpt lat="43.53759" lon="5.74543">
        <ele>498.1</ele>
        <time>2014-03-02T09:25:39Z</time>
      </trkpt>
      <trkpt lat="43.53763" lon="5.74533">
        <ele>497.9</ele>
        <time>2014-03-02T09:25:46Z</time>
      </trkpt>
      <trkpt lat="43.53765" lon="5.74522">
        <ele>496.6</ele>
        <time>2014-03-02T09:25:53Z</time>
      </trkpt>
      <trkpt lat="43.53766" lon="5.74511">
        <ele>496.5</ele>
        <time>2014-03-02T09:25:59Z</time>
      </trkpt>
      <trkpt lat="43.53761" lon="5.745">
        <ele>495.9</ele>
        <time>2014-03-02T09:26:06Z</time>
      </trkpt>
      <trkpt lat="43.53757" lon="5.7449">
        <ele>495.4</ele>
        <time>2014-03-02T09:26:13Z</time>
      </trkpt>
      <trkpt lat="43.53756" lon="5.74489">
        <ele>495.3</ele>
        <time>2014-03-02T09:26:14Z</time>
      </trkpt>
      <trkpt lat="43.53747" lon="5.74472">
        <ele>495.1</ele>
        <time>2014-03-02T09:26:29Z</time>
      </trkpt>
      <trkpt lat="43.53741" lon="5.74463">
        <ele>494.2</ele>
        <time>2014-03-02T09:26:38Z</time>
      </trkpt>
      <trkpt lat="43.53736" lon="5.74454">
        <ele>493.6</ele>
        <time>2014-03-02T09:26:45Z</time>
      </trkpt>
      <trkpt lat="43.53732" lon="5.74444">
        <ele>493.7</ele>
        <time>2014-03-02T09:26:53Z</time>
      </trkpt>
      <trkpt lat="43.53729" lon="5.74433">
        <ele>492.7</ele>
        <time>2014-03-02T09:27:00Z</time>
      </trkpt>
      <trkpt lat="43.53727" lon="5.74422">
        <ele>491.6</ele>
        <time>2014-03-02T09:27:07Z</time>
      </trkpt>
      <trkpt lat="43.53728" lon="5.74411">
        <ele>491.6</ele>
        <time>2014-03-02T09:27:14Z</time>
      </trkpt>
      <trkpt lat="43.53729" lon="5.74409">
        <ele>491.5</ele>
        <time>2014-03-02T09:27:15Z</time>
      </trkpt>
      <trkpt lat="43.53733" lon="5.7439">
        <ele>491.8</ele>
        <time>2014-03-02T09:27:28Z</time>
      </trkpt>
      <trkpt lat="43.53737" lon="5.74379">
        <ele>491.8</ele>
        <time>2014-03-02T09:27:37Z</time>
      </trkpt>
      <trkpt lat="43.53745" lon="5.74374">
        <ele>491.3</ele>
        <time>2014-03-02T09:27:43Z</time>
      </trkpt>
      <trkpt lat="43.53752" lon="5.74367">
        <ele>490.8</ele>
        <time>2014-03-02T09:27:51Z</time>
      </trkpt>
      <trkpt lat="43.5376" lon="5.74363">
        <ele>490.7</ele>
        <time>2014-03-02T09:27:59Z</time>
      </trkpt>
      <trkpt lat="43.53769" lon="5.74364">
        <ele>489.9</ele>
        <time>2014-03-02T09:28:08Z</time>
      </trkpt>
      <trkpt lat="43.53777" lon="5.74361">
        <ele>490.2</ele>
        <time>2014-03-02T09:28:16Z</time>
      </trkpt>
      <trkpt lat="43.53778" lon="5.7436">
        <ele>490.2</ele>
        <time>2014-03-02T09:28:17Z</time>
      </trkpt>
      <trkpt lat="43.53788" lon="5.74343">
        <ele>492.3</ele>
        <time>2014-03-02T09:28:37Z</time>
      </trkpt>
      <trkpt lat="43.53788" lon="5.74331">
        <ele>494</ele>
        <time>2014-03-02T09:28:46Z</time>
      </trkpt>
      <trkpt lat="43.53787" lon="5.74319">
        <ele>495.1</ele>
        <time>2014-03-02T09:28:55Z</time>
      </trkpt>
      <trkpt lat="43.5379" lon="5.74308">
        <ele>495.4</ele>
        <time>2014-03-02T09:29:04Z</time>
      </trkpt>
      <trkpt lat="43.53793" lon="5.74297">
        <ele>496.1</ele>
        <time>2014-03-02T09:29:13Z</time>
      </trkpt>
      <trkpt lat="43.53797" lon="5.74287">
        <ele>496.9</ele>
        <time>2014-03-02T09:29:22Z</time>
      </trkpt>
      <trkpt lat="43.53798" lon="5.74286">
        <ele>497</ele>
        <time>2014-03-02T09:29:23Z</time>
      </trkpt>
      <trkpt lat="43.53806" lon="5.74266">
        <ele>499.4</ele>
        <time>2014-03-02T09:29:42Z</time>
      </trkpt>
      <trkpt lat="43.53808" lon="5.74254">
        <ele>501.1</ele>
        <time>2014-03-02T09:29:52Z</time>
      </trkpt>
      <trkpt lat="43.53812" lon="5.74244">
        <ele>502.9</ele>
        <time>2014-03-02T09:30:01Z</time>
      </trkpt>
      <trkpt lat="43.53818" lon="5.74234">
        <ele>505.1</ele>
        <time>2014-03-02T09:30:10Z</time>
      </trkpt>
      <trkpt lat="43.53824" lon="5.74226">
        <ele>505.9</ele>
        <time>2014-03-02T09:30:19Z</time>
      </trkpt>
      <trkpt lat="43.5383" lon="5.74217">
        <ele>507.6</ele>
        <time>2014-03-02T09:30:28Z</time>
      </trkpt>
      <trkpt lat="43.5383" lon="5.74216">
        <ele>507.7</ele>
        <time>2014-03-02T09:30:29Z</time>
      </trkpt>
      <trkpt lat="43.53841" lon="5.74199">
        <ele>510.7</ele>
        <time>2014-03-02T09:30:49Z</time>
      </trkpt>
      <trkpt lat="43.53848" lon="5.74192">
        <ele>512.4</ele>
        <time>2014-03-02T09:30:59Z</time>
      </trkpt>
      <trkpt lat="43.53853" lon="5.74182">
        <ele>514.1</ele>
        <time>2014-03-02T09:31:11Z</time>
      </trkpt>
      <trkpt lat="43.53859" lon="5.74173">
        <ele>515.2</ele>
        <time>2014-03-02T09:31:20Z</time>
      </trkpt>
      <trkpt lat="43.53863" lon="5.74162">
        <ele>515.8</ele>
        <time>2014-03-02T09:31:29Z</time>
      </trkpt>
      <trkpt lat="43.53864" lon="5.74161">
        <ele>515.8</ele>
        <time>2014-03-02T09:31:30Z</time>
      </trkpt>
      <trkpt lat="43.53873" lon="5.74144">
        <ele>518</ele>
        <time>2014-03-02T09:31:47Z</time>
      </trkpt>
      <trkpt lat="43.53877" lon="5.74134">
        <ele>518.6</ele>
        <time>2014-03-02T09:31:56Z</time>
      </trkpt>
      <trkpt lat="43.5388" lon="5.74123">
        <ele>519.5</ele>
        <time>2014-03-02T09:32:04Z</time>
      </trkpt>
      <trkpt lat="43.53881" lon="5.74112">
        <ele>519.9</ele>
        <time>2014-03-02T09:32:12Z</time>
      </trkpt>
      <trkpt lat="43.53882" lon="5.741">
        <ele>520.4</ele>
        <time>2014-03-02T09:32:20Z</time>
      </trkpt>
      <trkpt lat="43.53884" lon="5.74089">
        <ele>520.2</ele>
        <time>2014-03-02T09:32:27Z</time>
      </trkpt>
      <trkpt lat="43.53884" lon="5.74076">
        <ele>520.3</ele>
        <time>2014-03-02T09:32:36Z</time>
      </trkpt>
      <trkpt lat="43.53885" lon="5.74075">
        <ele>520.3</ele>
        <time>2014-03-02T09:32:37Z</time>
      </trkpt>
      <trkpt lat="43.53887" lon="5.74053">
        <ele>520.3</ele>
        <time>2014-03-02T09:32:52Z</time>
      </trkpt>
      <trkpt lat="43.5389" lon="5.74042">
        <ele>519.8</ele>
        <time>2014-03-02T09:32:59Z</time>
      </trkpt>
      <trkpt lat="43.5389" lon="5.74031">
        <ele>519.8</ele>
        <time>2014-03-02T09:33:06Z</time>
      </trkpt>
      <trkpt lat="43.53891" lon="5.74019">
        <ele>519.1</ele>
        <time>2014-03-02T09:33:13Z</time>
      </trkpt>
      <trkpt lat="43.53891" lon="5.74008">
        <ele>518.7</ele>
        <time>2014-03-02T09:33:21Z</time>
      </trkpt>
      <trkpt lat="43.53889" lon="5.73997">
        <ele>518.1</ele>
        <time>2014-03-02T09:33:28Z</time>
      </trkpt>
      <trkpt lat="43.53887" lon="5.73985">
        <ele>518.1</ele>
        <time>2014-03-02T09:33:38Z</time>
      </trkpt>
      <trkpt lat="43.53888" lon="5.73984">
        <ele>518.1</ele>
        <time>2014-03-02T09:33:39Z</time>
      </trkpt>
      <trkpt lat="43.53901" lon="5.73981">
        <ele>516.9</ele>
        <time>2014-03-02T09:46:25Z</time>
      </trkpt>
      <trkpt lat="43.53902" lon="5.73981">
        <ele>517.1</ele>
        <time>2014-03-02T09:46:26Z</time>
      </trkpt>
      <trkpt lat="43.53918" lon="5.73985">
        <ele>518.4</ele>
        <time>2014-03-02T09:46:42Z</time>
      </trkpt>
      <trkpt lat="43.53926" lon="5.73984">
        <ele>519.1</ele>
        <time>2014-03-02T09:46:51Z</time>
      </trkpt>
      <trkpt lat="43.53934" lon="5.73983">
        <ele>519.4</ele>
        <time>2014-03-02T09:46:59Z</time>
      </trkpt>
      <trkpt lat="43.53943" lon="5.73981">
        <ele>520.2</ele>
        <time>2014-03-02T09:47:07Z</time>
      </trkpt>
      <trkpt lat="43.53951" lon="5.73981">
        <ele>520.3</ele>
        <time>2014-03-02T09:47:13Z</time>
      </trkpt>
      <trkpt lat="43.53959" lon="5.7398">
        <ele>520.7</ele>
        <time>2014-03-02T09:47:22Z</time>
      </trkpt>
      <trkpt lat="43.53968" lon="5.73981">
        <ele>521.4</ele>
        <time>2014-03-02T09:47:31Z</time>
      </trkpt>
      <trkpt lat="43.53969" lon="5.73981">
        <ele>521.5</ele>
        <time>2014-03-02T09:47:32Z</time>
      </trkpt>
      <trkpt lat="43.53985" lon="5.73987">
        <ele>522.4</ele>
        <time>2014-03-02T09:47:47Z</time>
      </trkpt>
      <trkpt lat="43.53993" lon="5.7399">
        <ele>524.3</ele>
        <time>2014-03-02T09:47:57Z</time>
      </trkpt>
      <trkpt lat="43.54" lon="5.73994">
        <ele>524.4</ele>
        <time>2014-03-02T09:48:06Z</time>
      </trkpt>
      <trkpt lat="43.54008" lon="5.73997">
        <ele>525.1</ele>
        <time>2014-03-02T09:48:13Z</time>
      </trkpt>
      <trkpt lat="43.54016" lon="5.73999">
        <ele>525.9</ele>
        <time>2014-03-02T09:48:22Z</time>
      </trkpt>
      <trkpt lat="43.54025" lon="5.73999">
        <ele>526.6</ele>
        <time>2014-03-02T09:48:30Z</time>
      </trkpt>
      <trkpt lat="43.54033" lon="5.73997">
        <ele>527.5</ele>
        <time>2014-03-02T09:48:40Z</time>
      </trkpt>
      <trkpt lat="43.54034" lon="5.73996">
        <ele>527.4</ele>
        <time>2014-03-02T09:48:41Z</time>
      </trkpt>
      <trkpt lat="43.54051" lon="5.73995">
        <ele>528.6</ele>
        <time>2014-03-02T09:48:57Z</time>
      </trkpt>
      <trkpt lat="43.54059" lon="5.73994">
        <ele>529.8</ele>
        <time>2014-03-02T09:49:05Z</time>
      </trkpt>
      <trkpt lat="43.54067" lon="5.73994">
        <ele>530.1</ele>
        <time>2014-03-02T09:49:12Z</time>
      </trkpt>
      <trkpt lat="43.54075" lon="5.73993">
        <ele>530.9</ele>
        <time>2014-03-02T09:49:21Z</time>
      </trkpt>
      <trkpt lat="43.54084" lon="5.73992">
        <ele>531.4</ele>
        <time>2014-03-02T09:49:30Z</time>
      </trkpt>
      <trkpt lat="43.54087" lon="5.74004">
        <ele>533.6</ele>
        <time>2014-03-02T09:49:45Z</time>
      </trkpt>
      <trkpt lat="43.54087" lon="5.74005">
        <ele>533.6</ele>
        <time>2014-03-02T09:49:46Z</time>
      </trkpt>
      <trkpt lat="43.54075" lon="5.7402">
        <ele>535.7</ele>
        <time>2014-03-02T09:50:06Z</time>
      </trkpt>
      <trkpt lat="43.54069" lon="5.74029">
        <ele>536.3</ele>
        <time>2014-03-02T09:50:16Z</time>
      </trkpt>
      <trkpt lat="43.54062" lon="5.74036">
        <ele>537.6</ele>
        <time>2014-03-02T09:50:25Z</time>
      </trkpt>
      <trkpt lat="43.54057" lon="5.74046">
        <ele>538.2</ele>
        <time>2014-03-02T09:50:34Z</time>
      </trkpt>
      <trkpt lat="43.54053" lon="5.74056">
        <ele>538.5</ele>
        <time>2014-03-02T09:50:44Z</time>
      </trkpt>
      <trkpt lat="43.54049" lon="5.74066">
        <ele>539.9</ele>
        <time>2014-03-02T09:50:53Z</time>
      </trkpt>
      <trkpt lat="43.54048" lon="5.74068">
        <ele>540.1</ele>
        <time>2014-03-02T09:50:54Z</time>
      </trkpt>
      <trkpt lat="43.54043" lon="5.74087">
        <ele>540.6</ele>
        <time>2014-03-02T09:51:09Z</time>
      </trkpt>
      <trkpt lat="43.54042" lon="5.74099">
        <ele>541.1</ele>
        <time>2014-03-02T09:51:17Z</time>
      </trkpt>
      <trkpt lat="43.5404" lon="5.7411">
        <ele>541.6</ele>
        <time>2014-03-02T09:51:26Z</time>
      </trkpt>
      <trkpt lat="43.5404" lon="5.74122">
        <ele>542.5</ele>
        <time>2014-03-02T09:51:35Z</time>
      </trkpt>
      <trkpt lat="43.54043" lon="5.74133">
        <ele>543.1</ele>
        <time>2014-03-02T09:51:44Z</time>
      </trkpt>
      <trkpt lat="43.54046" lon="5.74144">
        <ele>543.8</ele>
        <time>2014-03-02T09:51:53Z</time>
      </trkpt>
      <trkpt lat="43.54048" lon="5.74156">
        <ele>544.9</ele>
        <time>2014-03-02T09:52:02Z</time>
      </trkpt>
      <trkpt lat="43.54048" lon="5.74157">
        <ele>544.7</ele>
        <time>2014-03-02T09:52:03Z</time>
      </trkpt>
      <trkpt lat="43.54055" lon="5.74177">
        <ele>546</ele>
        <time>2014-03-02T09:52:17Z</time>
      </trkpt>
      <trkpt lat="43.54057" lon="5.74189">
        <ele>546.5</ele>
        <time>2014-03-02T09:52:25Z</time>
      </trkpt>
      <trkpt lat="43.54061" lon="5.742">
        <ele>546.9</ele>
        <time>2014-03-02T09:52:35Z</time>
      </trkpt>
      <trkpt lat="43.5407" lon="5.742">
        <ele>548.7</ele>
        <time>2014-03-02T09:52:45Z</time>
      </trkpt>
      <trkpt lat="43.54078" lon="5.74194">
        <ele>550.3</ele>
        <time>2014-03-02T09:52:57Z</time>
      </trkpt>
      <trkpt lat="43.54085" lon="5.7419">
        <ele>551.6</ele>
        <time>2014-03-02T09:53:07Z</time>
      </trkpt>
      <trkpt lat="43.54086" lon="5.74189">
        <ele>551.7</ele>
        <time>2014-03-02T09:53:08Z</time>
      </trkpt>
      <trkpt lat="43.541" lon="5.74179">
        <ele>553.8</ele>
        <time>2014-03-02T09:53:26Z</time>
      </trkpt>
      <trkpt lat="43.54108" lon="5.74176">
        <ele>553.8</ele>
        <time>2014-03-02T09:53:35Z</time>
      </trkpt>
      <trkpt lat="43.54116" lon="5.74171">
        <ele>554.1</ele>
        <time>2014-03-02T09:53:44Z</time>
      </trkpt>
      <trkpt lat="43.54123" lon="5.74166">
        <ele>554.4</ele>
        <time>2014-03-02T09:53:53Z</time>
      </trkpt>
      <trkpt lat="43.54132" lon="5.74164">
        <ele>554.9</ele>
        <time>2014-03-02T09:54:02Z</time>
      </trkpt>
      <trkpt lat="43.54139" lon="5.74161">
        <ele>556</ele>
        <time>2014-03-02T09:54:10Z</time>
      </trkpt>
      <trkpt lat="43.54141" lon="5.7416">
        <ele>556</ele>
        <time>2014-03-02T09:54:11Z</time>
      </trkpt>
      <trkpt lat="43.54156" lon="5.74159">
        <ele>557.4</ele>
        <time>2014-03-02T09:54:27Z</time>
      </trkpt>
      <trkpt lat="43.54165" lon="5.74159">
        <ele>558.6</ele>
        <time>2014-03-02T09:54:38Z</time>
      </trkpt>
      <trkpt lat="43.54173" lon="5.74161">
        <ele>560.3</ele>
        <time>2014-03-02T09:54:49Z</time>
      </trkpt>
      <trkpt lat="43.54181" lon="5.74166">
        <ele>562.3</ele>
        <time>2014-03-02T09:55:00Z</time>
      </trkpt>
      <trkpt lat="43.54189" lon="5.74171">
        <ele>564.1</ele>
        <time>2014-03-02T09:55:13Z</time>
      </trkpt>
      <trkpt lat="43.5419" lon="5.74172">
        <ele>563.8</ele>
        <time>2014-03-02T09:55:14Z</time>
      </trkpt>
      <trkpt lat="43.54205" lon="5.74178">
        <ele>566.4</ele>
        <time>2014-03-02T09:55:41Z</time>
      </trkpt>
      <trkpt lat="43.54212" lon="5.74182">
        <ele>567.6</ele>
        <time>2014-03-02T09:55:49Z</time>
      </trkpt>
      <trkpt lat="43.5422" lon="5.74188">
        <ele>568.8</ele>
        <time>2014-03-02T09:55:58Z</time>
      </trkpt>
      <trkpt lat="43.54228" lon="5.74193">
        <ele>569.7</ele>
        <time>2014-03-02T09:56:07Z</time>
      </trkpt>
      <trkpt lat="43.54236" lon="5.74197">
        <ele>570.7</ele>
        <time>2014-03-02T09:56:16Z</time>
      </trkpt>
      <trkpt lat="43.54237" lon="5.74197">
        <ele>571.1</ele>
        <time>2014-03-02T09:56:17Z</time>
      </trkpt>
      <trkpt lat="43.54251" lon="5.74203">
        <ele>574</ele>
        <time>2014-03-02T09:56:34Z</time>
      </trkpt>
      <trkpt lat="43.5426" lon="5.74202">
        <ele>576</ele>
        <time>2014-03-02T09:56:45Z</time>
      </trkpt>
      <trkpt lat="43.54268" lon="5.74201">
        <ele>576</ele>
        <time>2014-03-02T09:56:56Z</time>
      </trkpt>
      <trkpt lat="43.54276" lon="5.742">
        <ele>578.2</ele>
        <time>2014-03-02T09:57:08Z</time>
      </trkpt>
      <trkpt lat="43.54284" lon="5.74204">
        <ele>579.4</ele>
        <time>2014-03-02T09:57:19Z</time>
      </trkpt>
      <trkpt lat="43.54285" lon="5.74204">
        <ele>579.2</ele>
        <time>2014-03-02T09:57:20Z</time>
      </trkpt>
      <trkpt lat="43.54299" lon="5.74214">
        <ele>582.3</ele>
        <time>2014-03-02T09:57:44Z</time>
      </trkpt>
      <trkpt lat="43.54307" lon="5.74219">
        <ele>584.4</ele>
        <time>2014-03-02T09:57:55Z</time>
      </trkpt>
      <trkpt lat="43.54315" lon="5.74224">
        <ele>585.9</ele>
        <time>2014-03-02T09:58:06Z</time>
      </trkpt>
      <trkpt lat="43.54323" lon="5.7423">
        <ele>587.8</ele>
        <time>2014-03-02T09:58:18Z</time>
      </trkpt>
      <trkpt lat="43.54331" lon="5.74234">
        <ele>590.1</ele>
        <time>2014-03-02T09:58:29Z</time>
      </trkpt>
      <trkpt lat="43.54332" lon="5.74235">
        <ele>589.9</ele>
        <time>2014-03-02T09:58:30Z</time>
      </trkpt>
      <trkpt lat="43.54347" lon="5.74243">
        <ele>592.7</ele>
        <time>2014-03-02T09:58:53Z</time>
      </trkpt>
      <trkpt lat="43.54356" lon="5.74247">
        <ele>594.1</ele>
        <time>2014-03-02T09:59:03Z</time>
      </trkpt>
      <trkpt lat="43.54364" lon="5.74248">
        <ele>595.2</ele>
        <time>2014-03-02T09:59:13Z</time>
      </trkpt>
      <trkpt lat="43.54372" lon="5.74251">
        <ele>596.8</ele>
        <time>2014-03-02T09:59:24Z</time>
      </trkpt>
      <trkpt lat="43.54381" lon="5.74254">
        <ele>598.3</ele>
        <time>2014-03-02T09:59:33Z</time>
      </trkpt>
      <trkpt lat="43.54381" lon="5.74255">
        <ele>598.2</ele>
        <time>2014-03-02T09:59:34Z</time>
      </trkpt>
      <trkpt lat="43.54397" lon="5.74251">
        <ele>598.8</ele>
        <time>2014-03-02T09:59:58Z</time>
      </trkpt>
      <trkpt lat="43.54404" lon="5.74242">
        <ele>599.4</ele>
        <time>2014-03-02T10:00:25Z</time>
      </trkpt>
      <trkpt lat="43.54412" lon="5.7424">
        <ele>600.1</ele>
        <time>2014-03-02T10:01:12Z</time>
      </trkpt>
      <trkpt lat="43.54413" lon="5.7424">
        <ele>600.3</ele>
        <time>2014-03-02T10:01:13Z</time>
      </trkpt>
      <trkpt lat="43.54429" lon="5.7424">
        <ele>604.3</ele>
        <time>2014-03-02T10:01:51Z</time>
      </trkpt>
      <trkpt lat="43.54437" lon="5.74241">
        <ele>603.9</ele>
        <time>2014-03-02T10:02:01Z</time>
      </trkpt>
      <trkpt lat="43.54446" lon="5.74238">
        <ele>607.2</ele>
        <time>2014-03-02T10:02:39Z</time>
      </trkpt>
      <trkpt lat="43.54446" lon="5.74238">
        <ele>607.4</ele>
        <time>2014-03-02T10:02:40Z</time>
      </trkpt>
      <trkpt lat="43.54462" lon="5.74231">
        <ele>608.2</ele>
        <time>2014-03-02T10:03:01Z</time>
      </trkpt>
      <trkpt lat="43.54471" lon="5.74228">
        <ele>608.8</ele>
        <time>2014-03-02T10:03:20Z</time>
      </trkpt>
      <trkpt lat="43.54478" lon="5.74234">
        <ele>608.8</ele>
        <time>2014-03-02T10:03:33Z</time>
      </trkpt>
      <trkpt lat="43.54483" lon="5.74244">
        <ele>609.2</ele>
        <time>2014-03-02T10:03:46Z</time>
      </trkpt>
      <trkpt lat="43.54483" lon="5.74244">
        <ele>609.3</ele>
        <time>2014-03-02T10:03:47Z</time>
      </trkpt>
      <trkpt lat="43.54488" lon="5.74264">
        <ele>609.4</ele>
        <time>2014-03-02T10:04:53Z</time>
      </trkpt>
      <trkpt lat="43.54488" lon="5.74264">
        <ele>608.7</ele>
        <time>2014-03-02T10:04:54Z</time>
      </trkpt>
      <trkpt lat="43.54497" lon="5.74267">
        <ele>609.3</ele>
        <time>2014-03-02T10:14:46Z</time>
      </trkpt>
      <trkpt lat="43.54497" lon="5.74268">
        <ele>609.3</ele>
        <time>2014-03-02T10:14:47Z</time>
      </trkpt>
      <trkpt lat="43.5451" lon="5.74277">
        <ele>607.4</ele>
        <time>2014-03-02T10:15:41Z</time>
      </trkpt>
      <trkpt lat="43.54519" lon="5.7428">
        <ele>605.3</ele>
        <time>2014-03-02T10:16:12Z</time>
      </trkpt>
      <trkpt lat="43.54519" lon="5.7428">
        <ele>604.8</ele>
        <time>2014-03-02T10:16:13Z</time>
      </trkpt>
      <trkpt lat="43.54534" lon="5.74289">
        <ele>602</ele>
        <time>2014-03-02T10:16:57Z</time>
      </trkpt>
      <trkpt lat="43.54542" lon="5.74284">
        <ele>599.4</ele>
        <time>2014-03-02T10:17:37Z</time>
      </trkpt>
      <trkpt lat="43.54543" lon="5.74282">
        <ele>599.6</ele>
        <time>2014-03-02T10:17:38Z</time>
      </trkpt>
      <trkpt lat="43.54553" lon="5.74266">
        <ele>598.3</ele>
        <time>2014-03-02T10:19:37Z</time>
      </trkpt>
      <trkpt lat="43.54553" lon="5.74265">
        <ele>598.1</ele>
        <time>2014-03-02T10:19:38Z</time>
      </trkpt>
      <trkpt lat="43.54552" lon="5.74242">
        <ele>596.8</ele>
        <time>2014-03-02T10:20:15Z</time>
      </trkpt>
      <trkpt lat="43.5456" lon="5.74237">
        <ele>593.8</ele>
        <time>2014-03-02T10:21:07Z</time>
      </trkpt>
      <trkpt lat="43.5456" lon="5.74235">
        <ele>593.7</ele>
        <time>2014-03-02T10:21:08Z</time>
      </trkpt>
      <trkpt lat="43.54575" lon="5.74233">
        <ele>587.5</ele>
        <time>2014-03-02T10:21:54Z</time>
      </trkpt>
      <trkpt lat="43.54584" lon="5.7423">
        <ele>582.5</ele>
        <time>2014-03-02T10:22:39Z</time>
      </trkpt>
      <trkpt lat="43.54584" lon="5.7423">
        <ele>582.2</ele>
        <time>2014-03-02T10:22:40Z</time>
      </trkpt>
      <trkpt lat="43.54596" lon="5.74213">
        <ele>573.7</ele>
        <time>2014-03-02T10:24:00Z</time>
      </trkpt>
      <trkpt lat="43.54596" lon="5.74213">
        <ele>573.5</ele>
        <time>2014-03-02T10:24:01Z</time>
      </trkpt>
      <trkpt lat="43.54603" lon="5.74205">
        <ele>567.3</ele>
        <time>2014-03-02T10:25:17Z</time>
      </trkpt>
      <trkpt lat="43.54609" lon="5.74196">
        <ele>558.7</ele>
        <time>2014-03-02T10:26:42Z</time>
      </trkpt>
      <trkpt lat="43.54607" lon="5.74184">
        <ele>555.9</ele>
        <time>2014-03-02T10:28:31Z</time>
      </trkpt>
      <trkpt lat="43.54612" lon="5.74174">
        <ele>552.4</ele>
        <time>2014-03-02T10:29:47Z</time>
      </trkpt>
      <trkpt lat="43.54628" lon="5.74166">
        <ele>544.6</ele>
        <time>2014-03-02T10:31:44Z</time>
      </trkpt>
      <trkpt lat="43.54628" lon="5.74166">
        <ele>544.4</ele>
        <time>2014-03-02T10:31:45Z</time>
      </trkpt>
      <trkpt lat="43.54637" lon="5.74162">
        <ele>536.9</ele>
        <time>2014-03-02T10:33:15Z</time>
      </trkpt>
      <trkpt lat="43.54637" lon="5.74139">
        <ele>531.7</ele>
        <time>2014-03-02T10:38:07Z</time>
      </trkpt>
      <trkpt lat="43.54637" lon="5.74138">
        <ele>531.7</ele>
        <time>2014-03-02T10:38:08Z</time>
      </trkpt>
      <trkpt lat="43.54651" lon="5.7415">
        <ele>526</ele>
        <time>2014-03-02T10:38:51Z</time>
      </trkpt>
      <trkpt lat="43.5466" lon="5.74151">
        <ele>522.4</ele>
        <time>2014-03-02T10:39:19Z</time>
      </trkpt>
      <trkpt lat="43.54661" lon="5.74151">
        <ele>522.4</ele>
        <time>2014-03-02T10:39:20Z</time>
      </trkpt>
      <trkpt lat="43.54676" lon="5.74141">
        <ele>513.2</ele>
        <time>2014-03-02T10:41:16Z</time>
      </trkpt>
      <trkpt lat="43.54676" lon="5.74141">
        <ele>513.1</ele>
        <time>2014-03-02T10:41:17Z</time>
      </trkpt>
      <trkpt lat="43.54685" lon="5.74139">
        <ele>508.5</ele>
        <time>2014-03-02T10:42:20Z</time>
      </trkpt>
      <trkpt lat="43.54699" lon="5.7413">
        <ele>499.4</ele>
        <time>2014-03-02T10:43:29Z</time>
      </trkpt>
      <trkpt lat="43.54699" lon="5.74129">
        <ele>499.3</ele>
        <time>2014-03-02T10:43:30Z</time>
      </trkpt>
      <trkpt lat="43.54711" lon="5.74113">
        <ele>494.4</ele>
        <time>2014-03-02T10:44:45Z</time>
      </trkpt>
      <trkpt lat="43.54711" lon="5.74113">
        <ele>494.5</ele>
        <time>2014-03-02T10:44:46Z</time>
      </trkpt>
      <trkpt lat="43.54724" lon="5.74098">
        <ele>487.1</ele>
        <time>2014-03-02T10:45:33Z</time>
      </trkpt>
      <trkpt lat="43.54732" lon="5.74095">
        <ele>483.2</ele>
        <time>2014-03-02T10:45:52Z</time>
      </trkpt>
      <trkpt lat="43.54732" lon="5.74094">
        <ele>483</ele>
        <time>2014-03-02T10:45:53Z</time>
      </trkpt>
      <trkpt lat="43.54729" lon="5.74091">
        <ele>481</ele>
        <time>2014-03-02T10:47:11Z</time>
      </trkpt>
      <trkpt lat="43.54729" lon="5.74094">
        <ele>481.7</ele>
        <time>2014-03-02T10:47:15Z</time>
      </trkpt>
      <trkpt lat="43.54738" lon="5.74087">
        <ele>480</ele>
        <time>2014-03-02T10:48:56Z</time>
      </trkpt>
      <trkpt lat="43.54752" lon="5.74098">
        <ele>474.2</ele>
        <time>2014-03-02T10:50:12Z</time>
      </trkpt>
      <trkpt lat="43.54752" lon="5.74099">
        <ele>474.2</ele>
        <time>2014-03-02T10:50:13Z</time>
      </trkpt>
      <trkpt lat="43.54767" lon="5.74109">
        <ele>470.3</ele>
        <time>2014-03-02T10:51:26Z</time>
      </trkpt>
      <trkpt lat="43.54767" lon="5.74109">
        <ele>470.6</ele>
        <time>2014-03-02T10:51:27Z</time>
      </trkpt>
      <trkpt lat="43.54783" lon="5.74112">
        <ele>465.3</ele>
        <time>2014-03-02T10:52:44Z</time>
      </trkpt>
      <trkpt lat="43.54783" lon="5.74112">
        <ele>465.1</ele>
        <time>2014-03-02T10:52:45Z</time>
      </trkpt>
      <trkpt lat="43.548" lon="5.74119">
        <ele>461.1</ele>
        <time>2014-03-02T10:53:47Z</time>
      </trkpt>
      <trkpt lat="43.548" lon="5.74119">
        <ele>461.1</ele>
        <time>2014-03-02T10:53:48Z</time>
      </trkpt>
      <trkpt lat="43.54816" lon="5.74114">
        <ele>457.1</ele>
        <time>2014-03-02T10:54:22Z</time>
      </trkpt>
      <trkpt lat="43.54812" lon="5.74124">
        <ele>456</ele>
        <time>2014-03-02T10:56:29Z</time>
      </trkpt>
      <trkpt lat="43.54812" lon="5.74125">
        <ele>456</ele>
        <time>2014-03-02T10:56:30Z</time>
      </trkpt>
      <trkpt lat="43.54818" lon="5.74145">
        <ele>456.9</ele>
        <time>2014-03-02T10:56:45Z</time>
      </trkpt>
      <trkpt lat="43.54822" lon="5.74155">
        <ele>457.1</ele>
        <time>2014-03-02T10:56:53Z</time>
      </trkpt>
      <trkpt lat="43.54826" lon="5.74166">
        <ele>457.1</ele>
        <time>2014-03-02T10:57:01Z</time>
      </trkpt>
      <trkpt lat="43.54828" lon="5.74177">
        <ele>458</ele>
        <time>2014-03-02T10:57:08Z</time>
      </trkpt>
      <trkpt lat="43.5483" lon="5.74187">
        <ele>457.3</ele>
        <time>2014-03-02T10:57:13Z</time>
      </trkpt>
      <trkpt lat="43.54832" lon="5.74199">
        <ele>458</ele>
        <time>2014-03-02T10:57:20Z</time>
      </trkpt>
      <trkpt lat="43.54833" lon="5.7421">
        <ele>458.5</ele>
        <time>2014-03-02T10:57:26Z</time>
      </trkpt>
      <trkpt lat="43.54833" lon="5.74221">
        <ele>458.3</ele>
        <time>2014-03-02T10:57:37Z</time>
      </trkpt>
      <trkpt lat="43.54833" lon="5.74222">
        <ele>458.5</ele>
        <time>2014-03-02T10:57:38Z</time>
      </trkpt>
      <trkpt lat="43.5483" lon="5.74244">
        <ele>459.2</ele>
        <time>2014-03-02T10:57:52Z</time>
      </trkpt>
      <trkpt lat="43.54828" lon="5.74254">
        <ele>459.6</ele>
        <time>2014-03-02T10:57:59Z</time>
      </trkpt>
      <trkpt lat="43.54827" lon="5.74266">
        <ele>459.4</ele>
        <time>2014-03-02T10:58:06Z</time>
      </trkpt>
      <trkpt lat="43.54825" lon="5.74278">
        <ele>459.8</ele>
        <time>2014-03-02T10:58:14Z</time>
      </trkpt>
      <trkpt lat="43.54824" lon="5.7429">
        <ele>459.7</ele>
        <time>2014-03-02T10:58:21Z</time>
      </trkpt>
      <trkpt lat="43.54822" lon="5.743">
        <ele>460.3</ele>
        <time>2014-03-02T10:58:27Z</time>
      </trkpt>
      <trkpt lat="43.54819" lon="5.74311">
        <ele>460.6</ele>
        <time>2014-03-02T10:58:34Z</time>
      </trkpt>
      <trkpt lat="43.54817" lon="5.74322">
        <ele>461</ele>
        <time>2014-03-02T10:58:42Z</time>
      </trkpt>
      <trkpt lat="43.54817" lon="5.74323">
        <ele>461.1</ele>
        <time>2014-03-02T10:58:43Z</time>
      </trkpt>
      <trkpt lat="43.54815" lon="5.74346">
        <ele>461.8</ele>
        <time>2014-03-02T10:58:56Z</time>
      </trkpt>
      <trkpt lat="43.54813" lon="5.74358">
        <ele>462.1</ele>
        <time>2014-03-02T10:59:03Z</time>
      </trkpt>
      <trkpt lat="43.54812" lon="5.74368">
        <ele>462.6</ele>
        <time>2014-03-02T10:59:09Z</time>
      </trkpt>
      <trkpt lat="43.5481" lon="5.74379">
        <ele>462.4</ele>
        <time>2014-03-02T10:59:14Z</time>
      </trkpt>
      <trkpt lat="43.54809" lon="5.7439">
        <ele>462.5</ele>
        <time>2014-03-02T10:59:21Z</time>
      </trkpt>
      <trkpt lat="43.54809" lon="5.74402">
        <ele>462.1</ele>
        <time>2014-03-02T10:59:29Z</time>
      </trkpt>
      <trkpt lat="43.54807" lon="5.74413">
        <ele>462</ele>
        <time>2014-03-02T10:59:36Z</time>
      </trkpt>
      <trkpt lat="43.54807" lon="5.74424">
        <ele>462.4</ele>
        <time>2014-03-02T10:59:44Z</time>
      </trkpt>
      <trkpt lat="43.54807" lon="5.74426">
        <ele>462.5</ele>
        <time>2014-03-02T10:59:45Z</time>
      </trkpt>
      <trkpt lat="43.54803" lon="5.74448">
        <ele>462.4</ele>
        <time>2014-03-02T11:00:00Z</time>
      </trkpt>
      <trkpt lat="43.54802" lon="5.7446">
        <ele>462.7</ele>
        <time>2014-03-02T11:00:09Z</time>
      </trkpt>
      <trkpt lat="43.54798" lon="5.7447">
        <ele>462.6</ele>
        <time>2014-03-02T11:00:17Z</time>
      </trkpt>
      <trkpt lat="43.54795" lon="5.74481">
        <ele>462</ele>
        <time>2014-03-02T11:00:25Z</time>
      </trkpt>
      <trkpt lat="43.54791" lon="5.74492">
        <ele>462.9</ele>
        <time>2014-03-02T11:00:32Z</time>
      </trkpt>
      <trkpt lat="43.54787" lon="5.74502">
        <ele>462.5</ele>
        <time>2014-03-02T11:00:40Z</time>
      </trkpt>
      <trkpt lat="43.54783" lon="5.74512">
        <ele>462.4</ele>
        <time>2014-03-02T11:00:48Z</time>
      </trkpt>
      <trkpt lat="43.54783" lon="5.74513">
        <ele>462.5</ele>
        <time>2014-03-02T11:00:49Z</time>
      </trkpt>
      <trkpt lat="43.54777" lon="5.74535">
        <ele>462.8</ele>
        <time>2014-03-02T11:01:03Z</time>
      </trkpt>
      <trkpt lat="43.54774" lon="5.74546">
        <ele>463</ele>
        <time>2014-03-02T11:01:11Z</time>
      </trkpt>
      <trkpt lat="43.54769" lon="5.74556">
        <ele>462.6</ele>
        <time>2014-03-02T11:01:20Z</time>
      </trkpt>
      <trkpt lat="43.54764" lon="5.74565">
        <ele>462.8</ele>
        <time>2014-03-02T11:01:27Z</time>
      </trkpt>
      <trkpt lat="43.54761" lon="5.74575">
        <ele>463.2</ele>
        <time>2014-03-02T11:01:34Z</time>
      </trkpt>
      <trkpt lat="43.54758" lon="5.74585">
        <ele>462.9</ele>
        <time>2014-03-02T11:01:40Z</time>
      </trkpt>
      <trkpt lat="43.54753" lon="5.74593">
        <ele>463</ele>
        <time>2014-03-02T11:01:47Z</time>
      </trkpt>
      <trkpt lat="43.54748" lon="5.74602">
        <ele>463.5</ele>
        <time>2014-03-02T11:01:54Z</time>
      </trkpt>
      <trkpt lat="43.54747" lon="5.74604">
        <ele>463.5</ele>
        <time>2014-03-02T11:01:55Z</time>
      </trkpt>
      <trkpt lat="43.54737" lon="5.74619">
        <ele>463.5</ele>
        <time>2014-03-02T11:02:08Z</time>
      </trkpt>
      <trkpt lat="43.54731" lon="5.74628">
        <ele>463.5</ele>
        <time>2014-03-02T11:02:16Z</time>
      </trkpt>
      <trkpt lat="43.54726" lon="5.74637">
        <ele>462.9</ele>
        <time>2014-03-02T11:02:24Z</time>
      </trkpt>
      <trkpt lat="43.5472" lon="5.74646">
        <ele>463.1</ele>
        <time>2014-03-02T11:02:31Z</time>
      </trkpt>
      <trkpt lat="43.54715" lon="5.74656">
        <ele>463.6</ele>
        <time>2014-03-02T11:02:39Z</time>
      </trkpt>
      <trkpt lat="43.5471" lon="5.74666">
        <ele>463</ele>
        <time>2014-03-02T11:02:47Z</time>
      </trkpt>
      <trkpt lat="43.54703" lon="5.74674">
        <ele>463.6</ele>
        <time>2014-03-02T11:02:54Z</time>
      </trkpt>
      <trkpt lat="43.54697" lon="5.7468">
        <ele>463.9</ele>
        <time>2014-03-02T11:03:02Z</time>
      </trkpt>
      <trkpt lat="43.54696" lon="5.74681">
        <ele>463.8</ele>
        <time>2014-03-02T11:03:03Z</time>
      </trkpt>
      <trkpt lat="43.54686" lon="5.74696">
        <ele>463.1</ele>
        <time>2014-03-02T11:03:17Z</time>
      </trkpt>
      <trkpt lat="43.54681" lon="5.74704">
        <ele>463.5</ele>
        <time>2014-03-02T11:03:24Z</time>
      </trkpt>
      <trkpt lat="43.54675" lon="5.74712">
        <ele>463.5</ele>
        <time>2014-03-02T11:03:31Z</time>
      </trkpt>
      <trkpt lat="43.5467" lon="5.74721">
        <ele>463.1</ele>
        <time>2014-03-02T11:03:38Z</time>
      </trkpt>
      <trkpt lat="43.54666" lon="5.74731">
        <ele>463.8</ele>
        <time>2014-03-02T11:03:45Z</time>
      </trkpt>
      <trkpt lat="43.54661" lon="5.74741">
        <ele>463.7</ele>
        <time>2014-03-02T11:03:52Z</time>
      </trkpt>
      <trkpt lat="43.54656" lon="5.74751">
        <ele>463.2</ele>
        <time>2014-03-02T11:03:59Z</time>
      </trkpt>
      <trkpt lat="43.54651" lon="5.74761">
        <ele>463.1</ele>
        <time>2014-03-02T11:04:07Z</time>
      </trkpt>
      <trkpt lat="43.54651" lon="5.74762">
        <ele>463</ele>
        <time>2014-03-02T11:04:08Z</time>
      </trkpt>
      <trkpt lat="43.54641" lon="5.74777">
        <ele>463.2</ele>
        <time>2014-03-02T11:04:21Z</time>
      </trkpt>
      <trkpt lat="43.54636" lon="5.74787">
        <ele>463</ele>
        <time>2014-03-02T11:04:29Z</time>
      </trkpt>
      <trkpt lat="43.54631" lon="5.74797">
        <ele>462.5</ele>
        <time>2014-03-02T11:04:37Z</time>
      </trkpt>
      <trkpt lat="43.54626" lon="5.74806">
        <ele>462.3</ele>
        <time>2014-03-02T11:04:43Z</time>
      </trkpt>
      <trkpt lat="43.5462" lon="5.74814">
        <ele>462.8</ele>
        <time>2014-03-02T11:04:50Z</time>
      </trkpt>
      <trkpt lat="43.54608" lon="5.74825">
        <ele>494</ele>
        <time>2014-03-02T12:16:54Z</time>
      </trkpt>
      <trkpt lat="43.5461" lon="5.74838">
        <ele>492.4</ele>
        <time>2014-03-02T12:18:54Z</time>
      </trkpt>
      <trkpt lat="43.54601" lon="5.74857">
        <ele>492.9</ele>
        <time>2014-03-02T12:19:24Z</time>
      </trkpt>
      <trkpt lat="43.54597" lon="5.74867">
        <ele>492.9</ele>
        <time>2014-03-02T12:19:33Z</time>
      </trkpt>
      <trkpt lat="43.54592" lon="5.74877">
        <ele>493.9</ele>
        <time>2014-03-02T12:19:43Z</time>
      </trkpt>
      <trkpt lat="43.54587" lon="5.74886">
        <ele>493.7</ele>
        <time>2014-03-02T12:19:53Z</time>
      </trkpt>
      <trkpt lat="43.54582" lon="5.74896">
        <ele>493.8</ele>
        <time>2014-03-02T12:20:00Z</time>
      </trkpt>
      <trkpt lat="43.54581" lon="5.74896">
        <ele>494</ele>
        <time>2014-03-02T12:20:01Z</time>
      </trkpt>
      <trkpt lat="43.54573" lon="5.74915">
        <ele>494.6</ele>
        <time>2014-03-02T12:20:15Z</time>
      </trkpt>
      <trkpt lat="43.54567" lon="5.74924">
        <ele>494.3</ele>
        <time>2014-03-02T12:20:23Z</time>
      </trkpt>
      <trkpt lat="43.54563" lon="5.74934">
        <ele>494.3</ele>
        <time>2014-03-02T12:20:30Z</time>
      </trkpt>
      <trkpt lat="43.54558" lon="5.74944">
        <ele>495</ele>
        <time>2014-03-02T12:20:39Z</time>
      </trkpt>
      <trkpt lat="43.54552" lon="5.74953">
        <ele>494.8</ele>
        <time>2014-03-02T12:20:47Z</time>
      </trkpt>
      <trkpt lat="43.54546" lon="5.74962">
        <ele>494.4</ele>
        <time>2014-03-02T12:20:54Z</time>
      </trkpt>
      <trkpt lat="43.54541" lon="5.7497">
        <ele>494.7</ele>
        <time>2014-03-02T12:21:02Z</time>
      </trkpt>
      <trkpt lat="43.5454" lon="5.74971">
        <ele>494.6</ele>
        <time>2014-03-02T12:21:03Z</time>
      </trkpt>
      <trkpt lat="43.54528" lon="5.74986">
        <ele>494.5</ele>
        <time>2014-03-02T12:21:17Z</time>
      </trkpt>
      <trkpt lat="43.54521" lon="5.74991">
        <ele>494.1</ele>
        <time>2014-03-02T12:21:23Z</time>
      </trkpt>
      <trkpt lat="43.54515" lon="5.74997">
        <ele>494.6</ele>
        <time>2014-03-02T12:21:31Z</time>
      </trkpt>
      <trkpt lat="43.54507" lon="5.75003">
        <ele>493.6</ele>
        <time>2014-03-02T12:21:39Z</time>
      </trkpt>
      <trkpt lat="43.54499" lon="5.75006">
        <ele>493.4</ele>
        <time>2014-03-02T12:21:46Z</time>
      </trkpt>
      <trkpt lat="43.54492" lon="5.75011">
        <ele>493.3</ele>
        <time>2014-03-02T12:21:57Z</time>
      </trkpt>
      <trkpt lat="43.54485" lon="5.75018">
        <ele>493.6</ele>
        <time>2014-03-02T12:22:04Z</time>
      </trkpt>
      <trkpt lat="43.54484" lon="5.75019">
        <ele>493.7</ele>
        <time>2014-03-02T12:22:05Z</time>
      </trkpt>
      <trkpt lat="43.54473" lon="5.75032">
        <ele>493.2</ele>
        <time>2014-03-02T12:22:20Z</time>
      </trkpt>
      <trkpt lat="43.54465" lon="5.75036">
        <ele>493.4</ele>
        <time>2014-03-02T12:22:26Z</time>
      </trkpt>
      <trkpt lat="43.54458" lon="5.75044">
        <ele>493.6</ele>
        <time>2014-03-02T12:22:34Z</time>
      </trkpt>
      <trkpt lat="43.54451" lon="5.7505">
        <ele>494.2</ele>
        <time>2014-03-02T12:22:41Z</time>
      </trkpt>
      <trkpt lat="43.54444" lon="5.75057">
        <ele>494.7</ele>
        <time>2014-03-02T12:22:48Z</time>
      </trkpt>
      <trkpt lat="43.54437" lon="5.75065">
        <ele>495.5</ele>
        <time>2014-03-02T12:22:57Z</time>
      </trkpt>
      <trkpt lat="43.54431" lon="5.75071">
        <ele>495.7</ele>
        <time>2014-03-02T12:23:05Z</time>
      </trkpt>
      <trkpt lat="43.5443" lon="5.75072">
        <ele>495.8</ele>
        <time>2014-03-02T12:23:06Z</time>
      </trkpt>
      <trkpt lat="43.54417" lon="5.75083">
        <ele>496.6</ele>
        <time>2014-03-02T12:23:21Z</time>
      </trkpt>
      <trkpt lat="43.5441" lon="5.75091">
        <ele>497</ele>
        <time>2014-03-02T12:23:28Z</time>
      </trkpt>
      <trkpt lat="43.54404" lon="5.75099">
        <ele>497.1</ele>
        <time>2014-03-02T12:23:37Z</time>
      </trkpt>
      <trkpt lat="43.54399" lon="5.75107">
        <ele>497.9</ele>
        <time>2014-03-02T12:23:43Z</time>
      </trkpt>
      <trkpt lat="43.54393" lon="5.75115">
        <ele>496.7</ele>
        <time>2014-03-02T12:23:51Z</time>
      </trkpt>
      <trkpt lat="43.54388" lon="5.75124">
        <ele>497.2</ele>
        <time>2014-03-02T12:23:58Z</time>
      </trkpt>
      <trkpt lat="43.54381" lon="5.75132">
        <ele>497.1</ele>
        <time>2014-03-02T12:24:05Z</time>
      </trkpt>
      <trkpt lat="43.54375" lon="5.7514">
        <ele>496.5</ele>
        <time>2014-03-02T12:24:12Z</time>
      </trkpt>
      <trkpt lat="43.54374" lon="5.75142">
        <ele>496.5</ele>
        <time>2014-03-02T12:24:13Z</time>
      </trkpt>
      <trkpt lat="43.54363" lon="5.75157">
        <ele>495.9</ele>
        <time>2014-03-02T12:24:26Z</time>
      </trkpt>
      <trkpt lat="43.54356" lon="5.75164">
        <ele>496.1</ele>
        <time>2014-03-02T12:24:33Z</time>
      </trkpt>
      <trkpt lat="43.5435" lon="5.75173">
        <ele>496.2</ele>
        <time>2014-03-02T12:24:41Z</time>
      </trkpt>
      <trkpt lat="43.54344" lon="5.7518">
        <ele>497.1</ele>
        <time>2014-03-02T12:24:49Z</time>
      </trkpt>
      <trkpt lat="43.54337" lon="5.75187">
        <ele>497.5</ele>
        <time>2014-03-02T12:24:56Z</time>
      </trkpt>
      <trkpt lat="43.5433" lon="5.75192">
        <ele>497.3</ele>
        <time>2014-03-02T12:25:03Z</time>
      </trkpt>
      <trkpt lat="43.54322" lon="5.75197">
        <ele>497</ele>
        <time>2014-03-02T12:25:10Z</time>
      </trkpt>
      <trkpt lat="43.54315" lon="5.75201">
        <ele>497.4</ele>
        <time>2014-03-02T12:25:17Z</time>
      </trkpt>
      <trkpt lat="43.54314" lon="5.75202">
        <ele>497.5</ele>
        <time>2014-03-02T12:25:18Z</time>
      </trkpt>
      <trkpt lat="43.543" lon="5.75214">
        <ele>497.9</ele>
        <time>2014-03-02T12:25:32Z</time>
      </trkpt>
      <trkpt lat="43.54293" lon="5.75217">
        <ele>497.8</ele>
        <time>2014-03-02T12:25:38Z</time>
      </trkpt>
      <trkpt lat="43.54285" lon="5.75221">
        <ele>498.4</ele>
        <time>2014-03-02T12:25:45Z</time>
      </trkpt>
      <trkpt lat="43.54278" lon="5.75228">
        <ele>498.6</ele>
        <time>2014-03-02T12:25:53Z</time>
      </trkpt>
      <trkpt lat="43.5427" lon="5.75233">
        <ele>499.2</ele>
        <time>2014-03-02T12:26:02Z</time>
      </trkpt>
      <trkpt lat="43.54262" lon="5.75238">
        <ele>499.4</ele>
        <time>2014-03-02T12:26:10Z</time>
      </trkpt>
      <trkpt lat="43.54255" lon="5.75243">
        <ele>498.7</ele>
        <time>2014-03-02T12:26:16Z</time>
      </trkpt>
      <trkpt lat="43.54247" lon="5.7525">
        <ele>498.9</ele>
        <time>2014-03-02T12:26:23Z</time>
      </trkpt>
      <trkpt lat="43.54246" lon="5.7525">
        <ele>499</ele>
        <time>2014-03-02T12:26:24Z</time>
      </trkpt>
      <trkpt lat="43.54231" lon="5.75257">
        <ele>499.6</ele>
        <time>2014-03-02T12:26:42Z</time>
      </trkpt>
      <trkpt lat="43.54223" lon="5.75261">
        <ele>500.4</ele>
        <time>2014-03-02T12:26:49Z</time>
      </trkpt>
      <trkpt lat="43.54215" lon="5.75265">
        <ele>500.2</ele>
        <time>2014-03-02T12:26:55Z</time>
      </trkpt>
      <trkpt lat="43.54208" lon="5.75265">
        <ele>500.2</ele>
        <time>2014-03-02T12:27:01Z</time>
      </trkpt>
      <trkpt lat="43.54199" lon="5.75267">
        <ele>501</ele>
        <time>2014-03-02T12:27:09Z</time>
      </trkpt>
      <trkpt lat="43.54191" lon="5.75268">
        <ele>501.6</ele>
        <time>2014-03-02T12:27:17Z</time>
      </trkpt>
      <trkpt lat="43.54182" lon="5.75269">
        <ele>501.7</ele>
        <time>2014-03-02T12:27:26Z</time>
      </trkpt>
      <trkpt lat="43.54181" lon="5.7527">
        <ele>501.7</ele>
        <time>2014-03-02T12:27:27Z</time>
      </trkpt>
      <trkpt lat="43.54166" lon="5.7527">
        <ele>502</ele>
        <time>2014-03-02T12:27:42Z</time>
      </trkpt>
      <trkpt lat="43.54157" lon="5.75272">
        <ele>502.4</ele>
        <time>2014-03-02T12:27:51Z</time>
      </trkpt>
      <trkpt lat="43.54149" lon="5.7527">
        <ele>502.9</ele>
        <time>2014-03-02T12:27:58Z</time>
      </trkpt>
      <trkpt lat="43.54141" lon="5.75271">
        <ele>503.7</ele>
        <time>2014-03-02T12:28:05Z</time>
      </trkpt>
      <trkpt lat="43.54132" lon="5.75271">
        <ele>502.6</ele>
        <time>2014-03-02T12:28:12Z</time>
      </trkpt>
      <trkpt lat="43.54124" lon="5.75272">
        <ele>502.2</ele>
        <time>2014-03-02T12:28:18Z</time>
      </trkpt>
      <trkpt lat="43.54119" lon="5.75281">
        <ele>502.7</ele>
        <time>2014-03-02T12:28:26Z</time>
      </trkpt>
      <trkpt lat="43.54118" lon="5.75282">
        <ele>502.4</ele>
        <time>2014-03-02T12:28:27Z</time>
      </trkpt>
      <trkpt lat="43.5411" lon="5.753">
        <ele>501.7</ele>
        <time>2014-03-02T12:28:43Z</time>
      </trkpt>
      <trkpt lat="43.5411" lon="5.75311">
        <ele>502</ele>
        <time>2014-03-02T12:28:51Z</time>
      </trkpt>
      <trkpt lat="43.54109" lon="5.75322">
        <ele>502.3</ele>
        <time>2014-03-02T12:28:58Z</time>
      </trkpt>
      <trkpt lat="43.54109" lon="5.75334">
        <ele>502.8</ele>
        <time>2014-03-02T12:29:04Z</time>
      </trkpt>
      <trkpt lat="43.54108" lon="5.75346">
        <ele>503</ele>
        <time>2014-03-02T12:29:11Z</time>
      </trkpt>
      <trkpt lat="43.54107" lon="5.75358">
        <ele>503.2</ele>
        <time>2014-03-02T12:29:18Z</time>
      </trkpt>
      <trkpt lat="43.54105" lon="5.75368">
        <ele>504</ele>
        <time>2014-03-02T12:29:24Z</time>
      </trkpt>
      <trkpt lat="43.54104" lon="5.75379">
        <ele>504.1</ele>
        <time>2014-03-02T12:29:30Z</time>
      </trkpt>
      <trkpt lat="43.54104" lon="5.75381">
        <ele>503.9</ele>
        <time>2014-03-02T12:29:31Z</time>
      </trkpt>
      <trkpt lat="43.54102" lon="5.75404">
        <ele>504.7</ele>
        <time>2014-03-02T12:29:50Z</time>
      </trkpt>
      <trkpt lat="43.54102" lon="5.75416">
        <ele>504.6</ele>
        <time>2014-03-02T12:29:58Z</time>
      </trkpt>
      <trkpt lat="43.54102" lon="5.75428">
        <ele>504.8</ele>
        <time>2014-03-02T12:30:06Z</time>
      </trkpt>
      <trkpt lat="43.54103" lon="5.75439">
        <ele>505.1</ele>
        <time>2014-03-02T12:30:13Z</time>
      </trkpt>
      <trkpt lat="43.54102" lon="5.7545">
        <ele>505.3</ele>
        <time>2014-03-02T12:30:21Z</time>
      </trkpt>
      <trkpt lat="43.541" lon="5.75461">
        <ele>505.9</ele>
        <time>2014-03-02T12:30:28Z</time>
      </trkpt>
      <trkpt lat="43.541" lon="5.75473">
        <ele>505.7</ele>
        <time>2014-03-02T12:30:36Z</time>
      </trkpt>
      <trkpt lat="43.541" lon="5.75475">
        <ele>505.7</ele>
        <time>2014-03-02T12:30:37Z</time>
      </trkpt>
      <trkpt lat="43.541" lon="5.75496">
        <ele>505.8</ele>
        <time>2014-03-02T12:30:50Z</time>
      </trkpt>
      <trkpt lat="43.541" lon="5.75508">
        <ele>505.5</ele>
        <time>2014-03-02T12:30:58Z</time>
      </trkpt>
      <trkpt lat="43.54097" lon="5.7552">
        <ele>505.6</ele>
        <time>2014-03-02T12:31:05Z</time>
      </trkpt>
      <trkpt lat="43.54096" lon="5.75531">
        <ele>505.3</ele>
        <time>2014-03-02T12:31:14Z</time>
      </trkpt>
      <trkpt lat="43.54092" lon="5.75542">
        <ele>505.6</ele>
        <time>2014-03-02T12:31:24Z</time>
      </trkpt>
      <trkpt lat="43.54089" lon="5.75553">
        <ele>506</ele>
        <time>2014-03-02T12:31:45Z</time>
      </trkpt>
      <trkpt lat="43.54089" lon="5.75554">
        <ele>505.9</ele>
        <time>2014-03-02T12:31:46Z</time>
      </trkpt>
      <trkpt lat="43.54085" lon="5.75576">
        <ele>506.6</ele>
        <time>2014-03-02T12:32:02Z</time>
      </trkpt>
      <trkpt lat="43.54083" lon="5.75588">
        <ele>506.6</ele>
        <time>2014-03-02T12:32:10Z</time>
      </trkpt>
      <trkpt lat="43.54079" lon="5.75598">
        <ele>507.1</ele>
        <time>2014-03-02T12:32:17Z</time>
      </trkpt>
      <trkpt lat="43.54076" lon="5.75609">
        <ele>507.5</ele>
        <time>2014-03-02T12:32:25Z</time>
      </trkpt>
      <trkpt lat="43.54074" lon="5.75619">
        <ele>507.6</ele>
        <time>2014-03-02T12:32:32Z</time>
      </trkpt>
      <trkpt lat="43.54071" lon="5.75629">
        <ele>507.3</ele>
        <time>2014-03-02T12:32:40Z</time>
      </trkpt>
      <trkpt lat="43.54067" lon="5.75639">
        <ele>507.7</ele>
        <time>2014-03-02T12:32:48Z</time>
      </trkpt>
      <trkpt lat="43.54066" lon="5.75641">
        <ele>507.8</ele>
        <time>2014-03-02T12:32:49Z</time>
      </trkpt>
      <trkpt lat="43.54062" lon="5.75661">
        <ele>506.9</ele>
        <time>2014-03-02T12:33:03Z</time>
      </trkpt>
      <trkpt lat="43.54059" lon="5.75673">
        <ele>506.7</ele>
        <time>2014-03-02T12:33:15Z</time>
      </trkpt>
      <trkpt lat="43.54055" lon="5.75683">
        <ele>506.1</ele>
        <time>2014-03-02T12:33:22Z</time>
      </trkpt>
      <trkpt lat="43.54049" lon="5.75692">
        <ele>506.8</ele>
        <time>2014-03-02T12:33:29Z</time>
      </trkpt>
      <trkpt lat="43.54044" lon="5.75701">
        <ele>507.2</ele>
        <time>2014-03-02T12:33:36Z</time>
      </trkpt>
      <trkpt lat="43.54038" lon="5.75711">
        <ele>507.4</ele>
        <time>2014-03-02T12:33:44Z</time>
      </trkpt>
      <trkpt lat="43.54033" lon="5.7572">
        <ele>507.3</ele>
        <time>2014-03-02T12:33:51Z</time>
      </trkpt>
      <trkpt lat="43.54033" lon="5.75721">
        <ele>507.3</ele>
        <time>2014-03-02T12:33:52Z</time>
      </trkpt>
      <trkpt lat="43.54023" lon="5.75739">
        <ele>507.7</ele>
        <time>2014-03-02T12:34:06Z</time>
      </trkpt>
      <trkpt lat="43.54017" lon="5.75749">
        <ele>508.5</ele>
        <time>2014-03-02T12:34:14Z</time>
      </trkpt>
      <trkpt lat="43.54013" lon="5.75759">
        <ele>509.4</ele>
        <time>2014-03-02T12:34:22Z</time>
      </trkpt>
      <trkpt lat="43.54007" lon="5.75766">
        <ele>509.3</ele>
        <time>2014-03-02T12:34:30Z</time>
      </trkpt>
      <trkpt lat="43.54004" lon="5.75776">
        <ele>509.5</ele>
        <time>2014-03-02T12:34:39Z</time>
      </trkpt>
      <trkpt lat="43.54" lon="5.75786">
        <ele>509.7</ele>
        <time>2014-03-02T12:34:48Z</time>
      </trkpt>
      <trkpt lat="43.53994" lon="5.75794">
        <ele>509.2</ele>
        <time>2014-03-02T12:34:54Z</time>
      </trkpt>
      <trkpt lat="43.53993" lon="5.75796">
        <ele>509.3</ele>
        <time>2014-03-02T12:34:55Z</time>
      </trkpt>
      <trkpt lat="43.53983" lon="5.75811">
        <ele>510.3</ele>
        <time>2014-03-02T12:35:08Z</time>
      </trkpt>
      <trkpt lat="43.53977" lon="5.7582">
        <ele>509.7</ele>
        <time>2014-03-02T12:35:14Z</time>
      </trkpt>
      <trkpt lat="43.53972" lon="5.75828">
        <ele>510.3</ele>
        <time>2014-03-02T12:35:19Z</time>
      </trkpt>
      <trkpt lat="43.53966" lon="5.75838">
        <ele>510.5</ele>
        <time>2014-03-02T12:35:30Z</time>
      </trkpt>
      <trkpt lat="43.53961" lon="5.75845">
        <ele>510</ele>
        <time>2014-03-02T12:35:37Z</time>
      </trkpt>
      <trkpt lat="43.53956" lon="5.75853">
        <ele>509.5</ele>
        <time>2014-03-02T12:35:44Z</time>
      </trkpt>
      <trkpt lat="43.53951" lon="5.75864">
        <ele>509.7</ele>
        <time>2014-03-02T12:35:51Z</time>
      </trkpt>
      <trkpt lat="43.53945" lon="5.75873">
        <ele>509.2</ele>
        <time>2014-03-02T12:35:58Z</time>
      </trkpt>
      <trkpt lat="43.53945" lon="5.75874">
        <ele>509.5</ele>
        <time>2014-03-02T12:35:59Z</time>
      </trkpt>
      <trkpt lat="43.53934" lon="5.7589">
        <ele>510.1</ele>
        <time>2014-03-02T12:36:13Z</time>
      </trkpt>
      <trkpt lat="43.53928" lon="5.75898">
        <ele>509.2</ele>
        <time>2014-03-02T12:36:20Z</time>
      </trkpt>
      <trkpt lat="43.53923" lon="5.75907">
        <ele>509.4</ele>
        <time>2014-03-02T12:36:28Z</time>
      </trkpt>
      <trkpt lat="43.53919" lon="5.75918">
        <ele>509.5</ele>
        <time>2014-03-02T12:36:39Z</time>
      </trkpt>
      <trkpt lat="43.53914" lon="5.75927">
        <ele>508.9</ele>
        <time>2014-03-02T12:36:48Z</time>
      </trkpt>
      <trkpt lat="43.5391" lon="5.75936">
        <ele>509.7</ele>
        <time>2014-03-02T12:36:55Z</time>
      </trkpt>
      <trkpt lat="43.53903" lon="5.75942">
        <ele>509.6</ele>
        <time>2014-03-02T12:37:02Z</time>
      </trkpt>
      <trkpt lat="43.53902" lon="5.75943">
        <ele>509.6</ele>
        <time>2014-03-02T12:37:03Z</time>
      </trkpt>
      <trkpt lat="43.53896" lon="5.75963">
        <ele>509.6</ele>
        <time>2014-03-02T12:37:19Z</time>
      </trkpt>
      <trkpt lat="43.53897" lon="5.75974">
        <ele>510.2</ele>
        <time>2014-03-02T12:37:37Z</time>
      </trkpt>
      <trkpt lat="43.53898" lon="5.75986">
        <ele>511.5</ele>
        <time>2014-03-02T12:37:46Z</time>
      </trkpt>
      <trkpt lat="43.53899" lon="5.75998">
        <ele>512.7</ele>
        <time>2014-03-02T12:37:54Z</time>
      </trkpt>
      <trkpt lat="43.53903" lon="5.76009">
        <ele>512.9</ele>
        <time>2014-03-02T12:38:03Z</time>
      </trkpt>
      <trkpt lat="43.53904" lon="5.7602">
        <ele>513.3</ele>
        <time>2014-03-02T12:38:11Z</time>
      </trkpt>
      <trkpt lat="43.53905" lon="5.76022">
        <ele>513.5</ele>
        <time>2014-03-02T12:38:12Z</time>
      </trkpt>
      <trkpt lat="43.5391" lon="5.76042">
        <ele>514.8</ele>
        <time>2014-03-02T12:38:30Z</time>
      </trkpt>
      <trkpt lat="43.53911" lon="5.76053">
        <ele>515.6</ele>
        <time>2014-03-02T12:38:36Z</time>
      </trkpt>
      <trkpt lat="43.53913" lon="5.76063">
        <ele>515.9</ele>
        <time>2014-03-02T12:38:44Z</time>
      </trkpt>
      <trkpt lat="43.53917" lon="5.76074">
        <ele>517.7</ele>
        <time>2014-03-02T12:38:52Z</time>
      </trkpt>
      <trkpt lat="43.5392" lon="5.76086">
        <ele>517.8</ele>
        <time>2014-03-02T12:39:00Z</time>
      </trkpt>
      <trkpt lat="43.5392" lon="5.76098">
        <ele>518.9</ele>
        <time>2014-03-02T12:39:09Z</time>
      </trkpt>
      <trkpt lat="43.53923" lon="5.76109">
        <ele>519.5</ele>
        <time>2014-03-02T12:39:18Z</time>
      </trkpt>
      <trkpt lat="43.53923" lon="5.76111">
        <ele>519.7</ele>
        <time>2014-03-02T12:39:19Z</time>
      </trkpt>
      <trkpt lat="43.53929" lon="5.7613">
        <ele>519.9</ele>
        <time>2014-03-02T12:39:34Z</time>
      </trkpt>
      <trkpt lat="43.53932" lon="5.76141">
        <ele>521.1</ele>
        <time>2014-03-02T12:39:41Z</time>
      </trkpt>
      <trkpt lat="43.53932" lon="5.76152">
        <ele>521.4</ele>
        <time>2014-03-02T12:39:49Z</time>
      </trkpt>
      <trkpt lat="43.53934" lon="5.76163">
        <ele>522.9</ele>
        <time>2014-03-02T12:39:58Z</time>
      </trkpt>
      <trkpt lat="43.53934" lon="5.76175">
        <ele>523.1</ele>
        <time>2014-03-02T12:40:07Z</time>
      </trkpt>
      <trkpt lat="43.53938" lon="5.76185">
        <ele>524.4</ele>
        <time>2014-03-02T12:40:16Z</time>
      </trkpt>
      <trkpt lat="43.5394" lon="5.76197">
        <ele>525.6</ele>
        <time>2014-03-02T12:40:26Z</time>
      </trkpt>
      <trkpt lat="43.53941" lon="5.76197">
        <ele>525.4</ele>
        <time>2014-03-02T12:40:27Z</time>
      </trkpt>
      <trkpt lat="43.53951" lon="5.76214">
        <ele>526.5</ele>
        <time>2014-03-02T12:40:43Z</time>
      </trkpt>
      <trkpt lat="43.53954" lon="5.76225">
        <ele>527.5</ele>
        <time>2014-03-02T12:40:52Z</time>
      </trkpt>
      <trkpt lat="43.53959" lon="5.76235">
        <ele>528.3</ele>
        <time>2014-03-02T12:41:00Z</time>
      </trkpt>
      <trkpt lat="43.53966" lon="5.76242">
        <ele>529.7</ele>
        <time>2014-03-02T12:41:09Z</time>
      </trkpt>
      <trkpt lat="43.53967" lon="5.76254">
        <ele>529.5</ele>
        <time>2014-03-02T12:41:15Z</time>
      </trkpt>
      <trkpt lat="43.5397" lon="5.76266">
        <ele>529.8</ele>
        <time>2014-03-02T12:41:24Z</time>
      </trkpt>
      <trkpt lat="43.53972" lon="5.76276">
        <ele>530.2</ele>
        <time>2014-03-02T12:41:33Z</time>
      </trkpt>
      <trkpt lat="43.53972" lon="5.76278">
        <ele>530.2</ele>
        <time>2014-03-02T12:41:34Z</time>
      </trkpt>
      <trkpt lat="43.53981" lon="5.76296">
        <ele>531.6</ele>
        <time>2014-03-02T12:41:52Z</time>
      </trkpt>
      <trkpt lat="43.53984" lon="5.76305">
        <ele>532.7</ele>
        <time>2014-03-02T12:42:00Z</time>
      </trkpt>
      <trkpt lat="43.53986" lon="5.76316">
        <ele>533.6</ele>
        <time>2014-03-02T12:42:09Z</time>
      </trkpt>
      <trkpt lat="43.53987" lon="5.76328">
        <ele>534.5</ele>
        <time>2014-03-02T12:42:22Z</time>
      </trkpt>
      <trkpt lat="43.53987" lon="5.7634">
        <ele>535.1</ele>
        <time>2014-03-02T12:42:32Z</time>
      </trkpt>
      <trkpt lat="43.53986" lon="5.76352">
        <ele>536</ele>
        <time>2014-03-02T12:42:41Z</time>
      </trkpt>
      <trkpt lat="43.53985" lon="5.76354">
        <ele>535.9</ele>
        <time>2014-03-02T12:42:42Z</time>
      </trkpt>
      <trkpt lat="43.53991" lon="5.76375">
        <ele>536.6</ele>
        <time>2014-03-02T12:43:02Z</time>
      </trkpt>
      <trkpt lat="43.53995" lon="5.76386">
        <ele>538</ele>
        <time>2014-03-02T12:43:09Z</time>
      </trkpt>
      <trkpt lat="43.53995" lon="5.76398">
        <ele>538.2</ele>
        <time>2014-03-02T12:43:19Z</time>
      </trkpt>
      <trkpt lat="43.53998" lon="5.76409">
        <ele>539.1</ele>
        <time>2014-03-02T12:43:32Z</time>
      </trkpt>
      <trkpt lat="43.53999" lon="5.76421">
        <ele>540.4</ele>
        <time>2014-03-02T12:43:40Z</time>
      </trkpt>
      <trkpt lat="43.53999" lon="5.76433">
        <ele>541.4</ele>
        <time>2014-03-02T12:43:49Z</time>
      </trkpt>
      <trkpt lat="43.53999" lon="5.76434">
        <ele>541.3</ele>
        <time>2014-03-02T12:43:50Z</time>
      </trkpt>
      <trkpt lat="43.53999" lon="5.76456">
        <ele>543.3</ele>
        <time>2014-03-02T12:44:07Z</time>
      </trkpt>
      <trkpt lat="43.54001" lon="5.76468">
        <ele>543.8</ele>
        <time>2014-03-02T12:44:16Z</time>
      </trkpt>
      <trkpt lat="43.54002" lon="5.76479">
        <ele>545.1</ele>
        <time>2014-03-02T12:44:25Z</time>
      </trkpt>
      <trkpt lat="43.54002" lon="5.76491">
        <ele>545.4</ele>
        <time>2014-03-02T12:44:33Z</time>
      </trkpt>
      <trkpt lat="43.54001" lon="5.76503">
        <ele>545.5</ele>
        <time>2014-03-02T12:44:41Z</time>
      </trkpt>
      <trkpt lat="43.54002" lon="5.76514">
        <ele>547</ele>
        <time>2014-03-02T12:44:51Z</time>
      </trkpt>
      <trkpt lat="43.54002" lon="5.76515">
        <ele>547.2</ele>
        <time>2014-03-02T12:44:52Z</time>
      </trkpt>
      <trkpt lat="43.54007" lon="5.76537">
        <ele>548</ele>
        <time>2014-03-02T12:45:10Z</time>
      </trkpt>
      <trkpt lat="43.5401" lon="5.76546">
        <ele>548.8</ele>
        <time>2014-03-02T12:45:19Z</time>
      </trkpt>
      <trkpt lat="43.54015" lon="5.76556">
        <ele>548.5</ele>
        <time>2014-03-02T12:45:28Z</time>
      </trkpt>
      <trkpt lat="43.54021" lon="5.76565">
        <ele>550.1</ele>
        <time>2014-03-02T12:45:38Z</time>
      </trkpt>
      <trkpt lat="43.54029" lon="5.76568">
        <ele>551.5</ele>
        <time>2014-03-02T12:45:50Z</time>
      </trkpt>
      <trkpt lat="43.54037" lon="5.7657">
        <ele>552</ele>
        <time>2014-03-02T12:45:57Z</time>
      </trkpt>
      <trkpt lat="43.54038" lon="5.76571">
        <ele>551.9</ele>
        <time>2014-03-02T12:45:58Z</time>
      </trkpt>
      <trkpt lat="43.54052" lon="5.76574">
        <ele>553.7</ele>
        <time>2014-03-02T12:46:10Z</time>
      </trkpt>
      <trkpt lat="43.54061" lon="5.76576">
        <ele>553.9</ele>
        <time>2014-03-02T12:46:19Z</time>
      </trkpt>
      <trkpt lat="43.54069" lon="5.76576">
        <ele>555.3</ele>
        <time>2014-03-02T12:46:27Z</time>
      </trkpt>
      <trkpt lat="43.54077" lon="5.76573">
        <ele>555.2</ele>
        <time>2014-03-02T12:46:34Z</time>
      </trkpt>
      <trkpt lat="43.54086" lon="5.7657">
        <ele>556.7</ele>
        <time>2014-03-02T12:46:44Z</time>
      </trkpt>
      <trkpt lat="43.54094" lon="5.76565">
        <ele>556.8</ele>
        <time>2014-03-02T12:46:51Z</time>
      </trkpt>
      <trkpt lat="43.54101" lon="5.76559">
        <ele>558.1</ele>
        <time>2014-03-02T12:47:02Z</time>
      </trkpt>
      <trkpt lat="43.54102" lon="5.76558">
        <ele>558.2</ele>
        <time>2014-03-02T12:47:03Z</time>
      </trkpt>
      <trkpt lat="43.54115" lon="5.76549">
        <ele>560.4</ele>
        <time>2014-03-02T12:47:20Z</time>
      </trkpt>
      <trkpt lat="43.54123" lon="5.76544">
        <ele>560.9</ele>
        <time>2014-03-02T12:47:27Z</time>
      </trkpt>
      <trkpt lat="43.5413" lon="5.76539">
        <ele>561.3</ele>
        <time>2014-03-02T12:47:37Z</time>
      </trkpt>
      <trkpt lat="43.54138" lon="5.76533">
        <ele>562.5</ele>
        <time>2014-03-02T12:47:45Z</time>
      </trkpt>
      <trkpt lat="43.54145" lon="5.76529">
        <ele>563</ele>
        <time>2014-03-02T12:47:51Z</time>
      </trkpt>
      <trkpt lat="43.54152" lon="5.76524">
        <ele>563.6</ele>
        <time>2014-03-02T12:48:01Z</time>
      </trkpt>
      <trkpt lat="43.54158" lon="5.76517">
        <ele>564.5</ele>
        <time>2014-03-02T12:48:11Z</time>
      </trkpt>
      <trkpt lat="43.54159" lon="5.76516">
        <ele>564.7</ele>
        <time>2014-03-02T12:48:12Z</time>
      </trkpt>
      <trkpt lat="43.54172" lon="5.76504">
        <ele>565.9</ele>
        <time>2014-03-02T12:48:28Z</time>
      </trkpt>
      <trkpt lat="43.54179" lon="5.76499">
        <ele>567</ele>
        <time>2014-03-02T12:48:38Z</time>
      </trkpt>
      <trkpt lat="43.54186" lon="5.76493">
        <ele>568</ele>
        <time>2014-03-02T12:48:49Z</time>
      </trkpt>
      <trkpt lat="43.54194" lon="5.7649">
        <ele>568</ele>
        <time>2014-03-02T12:48:56Z</time>
      </trkpt>
      <trkpt lat="43.54203" lon="5.76489">
        <ele>569.5</ele>
        <time>2014-03-02T12:49:04Z</time>
      </trkpt>
      <trkpt lat="43.54211" lon="5.76494">
        <ele>569.9</ele>
        <time>2014-03-02T12:49:17Z</time>
      </trkpt>
      <trkpt lat="43.54211" lon="5.76495">
        <ele>570</ele>
        <time>2014-03-02T12:49:18Z</time>
      </trkpt>
      <trkpt lat="43.54222" lon="5.7651">
        <ele>571.3</ele>
        <time>2014-03-02T12:49:36Z</time>
      </trkpt>
      <trkpt lat="43.54225" lon="5.76521">
        <ele>571.9</ele>
        <time>2014-03-02T12:49:44Z</time>
      </trkpt>
      <trkpt lat="43.54226" lon="5.76531">
        <ele>572.4</ele>
        <time>2014-03-02T12:49:51Z</time>
      </trkpt>
      <trkpt lat="43.54227" lon="5.76543">
        <ele>572.5</ele>
        <time>2014-03-02T12:49:58Z</time>
      </trkpt>
      <trkpt lat="43.54228" lon="5.76554">
        <ele>572</ele>
        <time>2014-03-02T12:50:06Z</time>
      </trkpt>
      <trkpt lat="43.54227" lon="5.76565">
        <ele>571.7</ele>
        <time>2014-03-02T12:50:11Z</time>
      </trkpt>
      <trkpt lat="43.54227" lon="5.76577">
        <ele>571.5</ele>
        <time>2014-03-02T12:50:18Z</time>
      </trkpt>
      <trkpt lat="43.54227" lon="5.76589">
        <ele>570.5</ele>
        <time>2014-03-02T12:50:26Z</time>
      </trkpt>
      <trkpt lat="43.54226" lon="5.7659">
        <ele>570.3</ele>
        <time>2014-03-02T12:50:27Z</time>
      </trkpt>
      <trkpt lat="43.54224" lon="5.76611">
        <ele>570.1</ele>
        <time>2014-03-02T12:50:42Z</time>
      </trkpt>
      <trkpt lat="43.54221" lon="5.76623">
        <ele>569.6</ele>
        <time>2014-03-02T12:50:51Z</time>
      </trkpt>
      <trkpt lat="43.5422" lon="5.76633">
        <ele>568.8</ele>
        <time>2014-03-02T12:51:00Z</time>
      </trkpt>
      <trkpt lat="43.54216" lon="5.76644">
        <ele>568.7</ele>
        <time>2014-03-02T12:51:33Z</time>
      </trkpt>
      <trkpt lat="43.54216" lon="5.76645">
        <ele>568.6</ele>
        <time>2014-03-02T12:51:34Z</time>
      </trkpt>
      <trkpt lat="43.54217" lon="5.76657">
        <ele>568.4</ele>
        <time>2014-03-02T12:53:21Z</time>
      </trkpt>
      <trkpt lat="43.54211" lon="5.76668">
        <ele>567</ele>
        <time>2014-03-02T12:56:55Z</time>
      </trkpt>
      <trkpt lat="43.54204" lon="5.76687">
        <ele>567.5</ele>
        <time>2014-03-02T12:57:10Z</time>
      </trkpt>
      <trkpt lat="43.54199" lon="5.76698">
        <ele>567.2</ele>
        <time>2014-03-02T12:57:18Z</time>
      </trkpt>
      <trkpt lat="43.54197" lon="5.76709">
        <ele>567.3</ele>
        <time>2014-03-02T12:57:26Z</time>
      </trkpt>
      <trkpt lat="43.54193" lon="5.7672">
        <ele>568.2</ele>
        <time>2014-03-02T12:57:35Z</time>
      </trkpt>
      <trkpt lat="43.54189" lon="5.76728">
        <ele>568.7</ele>
        <time>2014-03-02T12:57:41Z</time>
      </trkpt>
      <trkpt lat="43.54185" lon="5.76738">
        <ele>568.2</ele>
        <time>2014-03-02T12:57:48Z</time>
      </trkpt>
      <trkpt lat="43.54181" lon="5.76748">
        <ele>569.4</ele>
        <time>2014-03-02T12:57:55Z</time>
      </trkpt>
      <trkpt lat="43.5418" lon="5.7675">
        <ele>569.3</ele>
        <time>2014-03-02T12:57:56Z</time>
      </trkpt>
      <trkpt lat="43.54173" lon="5.76769">
        <ele>569.1</ele>
        <time>2014-03-02T12:58:11Z</time>
      </trkpt>
      <trkpt lat="43.5417" lon="5.76779">
        <ele>569.9</ele>
        <time>2014-03-02T12:58:18Z</time>
      </trkpt>
      <trkpt lat="43.54167" lon="5.7679">
        <ele>570.7</ele>
        <time>2014-03-02T12:58:26Z</time>
      </trkpt>
      <trkpt lat="43.54164" lon="5.76801">
        <ele>570.9</ele>
        <time>2014-03-02T12:58:32Z</time>
      </trkpt>
      <trkpt lat="43.54162" lon="5.76813">
        <ele>570.7</ele>
        <time>2014-03-02T12:58:40Z</time>
      </trkpt>
      <trkpt lat="43.5416" lon="5.76824">
        <ele>571.7</ele>
        <time>2014-03-02T12:58:48Z</time>
      </trkpt>
      <trkpt lat="43.54157" lon="5.76836">
        <ele>572.4</ele>
        <time>2014-03-02T12:58:56Z</time>
      </trkpt>
      <trkpt lat="43.54157" lon="5.76848">
        <ele>573.2</ele>
        <time>2014-03-02T12:59:04Z</time>
      </trkpt>
      <trkpt lat="43.54157" lon="5.76849">
        <ele>573.1</ele>
        <time>2014-03-02T12:59:05Z</time>
      </trkpt>
      <trkpt lat="43.54156" lon="5.76871">
        <ele>571.9</ele>
        <time>2014-03-02T12:59:20Z</time>
      </trkpt>
      <trkpt lat="43.54155" lon="5.76883">
        <ele>572.6</ele>
        <time>2014-03-02T12:59:27Z</time>
      </trkpt>
      <trkpt lat="43.54153" lon="5.76894">
        <ele>573.1</ele>
        <time>2014-03-02T12:59:34Z</time>
      </trkpt>
      <trkpt lat="43.5415" lon="5.76906">
        <ele>572.2</ele>
        <time>2014-03-02T12:59:42Z</time>
      </trkpt>
      <trkpt lat="43.54147" lon="5.76917">
        <ele>571.7</ele>
        <time>2014-03-02T12:59:50Z</time>
      </trkpt>
      <trkpt lat="43.54144" lon="5.76927">
        <ele>572.1</ele>
        <time>2014-03-02T12:59:55Z</time>
      </trkpt>
      <trkpt lat="43.54143" lon="5.76937">
        <ele>572.2</ele>
        <time>2014-03-02T13:00:02Z</time>
      </trkpt>
      <trkpt lat="43.54142" lon="5.76948">
        <ele>571.7</ele>
        <time>2014-03-02T13:00:09Z</time>
      </trkpt>
      <trkpt lat="43.54142" lon="5.76951">
        <ele>571</ele>
        <time>2014-03-02T13:00:10Z</time>
      </trkpt>
      <trkpt lat="43.54141" lon="5.76972">
        <ele>570.9</ele>
        <time>2014-03-02T13:00:23Z</time>
      </trkpt>
      <trkpt lat="43.54137" lon="5.76983">
        <ele>570.4</ele>
        <time>2014-03-02T13:00:30Z</time>
      </trkpt>
      <trkpt lat="43.54134" lon="5.76994">
        <ele>570.6</ele>
        <time>2014-03-02T13:00:37Z</time>
      </trkpt>
      <trkpt lat="43.54132" lon="5.77005">
        <ele>569.9</ele>
        <time>2014-03-02T13:00:44Z</time>
      </trkpt>
      <trkpt lat="43.54129" lon="5.77016">
        <ele>568.7</ele>
        <time>2014-03-02T13:00:51Z</time>
      </trkpt>
      <trkpt lat="43.54125" lon="5.77025">
        <ele>568.4</ele>
        <time>2014-03-02T13:00:58Z</time>
      </trkpt>
      <trkpt lat="43.54119" lon="5.77034">
        <ele>568.1</ele>
        <time>2014-03-02T13:01:05Z</time>
      </trkpt>
      <trkpt lat="43.54113" lon="5.77043">
        <ele>568</ele>
        <time>2014-03-02T13:01:13Z</time>
      </trkpt>
      <trkpt lat="43.54112" lon="5.77044">
        <ele>568.1</ele>
        <time>2014-03-02T13:01:14Z</time>
      </trkpt>
      <trkpt lat="43.54103" lon="5.7706">
        <ele>566.9</ele>
        <time>2014-03-02T13:01:27Z</time>
      </trkpt>
      <trkpt lat="43.54097" lon="5.77069">
        <ele>565.7</ele>
        <time>2014-03-02T13:01:35Z</time>
      </trkpt>
      <trkpt lat="43.54091" lon="5.77078">
        <ele>565.5</ele>
        <time>2014-03-02T13:01:42Z</time>
      </trkpt>
      <trkpt lat="43.54087" lon="5.77087">
        <ele>565.3</ele>
        <time>2014-03-02T13:01:51Z</time>
      </trkpt>
      <trkpt lat="43.54084" lon="5.77099">
        <ele>563.4</ele>
        <time>2014-03-02T13:02:06Z</time>
      </trkpt>
      <trkpt lat="43.54091" lon="5.77107">
        <ele>563.9</ele>
        <time>2014-03-02T13:02:31Z</time>
      </trkpt>
      <trkpt lat="43.54091" lon="5.77107">
        <ele>563.9</ele>
        <time>2014-03-02T13:02:32Z</time>
      </trkpt>
      <trkpt lat="43.54091" lon="5.77104">
        <ele>562.1</ele>
        <time>2014-03-02T13:03:55Z</time>
      </trkpt>
      <trkpt lat="43.54091" lon="5.77104">
        <ele>562.3</ele>
        <time>2014-03-02T13:03:56Z</time>
      </trkpt>
      <trkpt lat="43.54082" lon="5.77098">
        <ele>561</ele>
        <time>2014-03-02T13:05:27Z</time>
      </trkpt>
      <trkpt lat="43.54067" lon="5.77107">
        <ele>559.5</ele>
        <time>2014-03-02T13:05:53Z</time>
      </trkpt>
      <trkpt lat="43.54059" lon="5.77112">
        <ele>559.1</ele>
        <time>2014-03-02T13:06:00Z</time>
      </trkpt>
      <trkpt lat="43.54051" lon="5.77117">
        <ele>557.3</ele>
        <time>2014-03-02T13:06:07Z</time>
      </trkpt>
      <trkpt lat="43.54044" lon="5.77123">
        <ele>557.1</ele>
        <time>2014-03-02T13:06:15Z</time>
      </trkpt>
      <trkpt lat="43.54036" lon="5.77129">
        <ele>555.9</ele>
        <time>2014-03-02T13:06:23Z</time>
      </trkpt>
      <trkpt lat="43.54028" lon="5.77133">
        <ele>555.7</ele>
        <time>2014-03-02T13:06:31Z</time>
      </trkpt>
      <trkpt lat="43.54027" lon="5.77133">
        <ele>556</ele>
        <time>2014-03-02T13:06:32Z</time>
      </trkpt>
      <trkpt lat="43.54013" lon="5.77144">
        <ele>552.9</ele>
        <time>2014-03-02T13:06:51Z</time>
      </trkpt>
      <trkpt lat="43.54005" lon="5.77148">
        <ele>551.8</ele>
        <time>2014-03-02T13:06:59Z</time>
      </trkpt>
      <trkpt lat="43.53996" lon="5.7715">
        <ele>550.9</ele>
        <time>2014-03-02T13:07:07Z</time>
      </trkpt>
      <trkpt lat="43.53988" lon="5.77152">
        <ele>551.1</ele>
        <time>2014-03-02T13:07:15Z</time>
      </trkpt>
      <trkpt lat="43.5398" lon="5.77154">
        <ele>549.6</ele>
        <time>2014-03-02T13:07:21Z</time>
      </trkpt>
      <trkpt lat="43.53972" lon="5.77157">
        <ele>549.3</ele>
        <time>2014-03-02T13:07:27Z</time>
      </trkpt>
      <trkpt lat="43.53963" lon="5.77159">
        <ele>547.6</ele>
        <time>2014-03-02T13:07:34Z</time>
      </trkpt>
      <trkpt lat="43.53961" lon="5.7716">
        <ele>548.1</ele>
        <time>2014-03-02T13:07:35Z</time>
      </trkpt>
      <trkpt lat="43.53946" lon="5.77165">
        <ele>546.8</ele>
        <time>2014-03-02T13:07:49Z</time>
      </trkpt>
      <trkpt lat="43.53938" lon="5.77169">
        <ele>545.5</ele>
        <time>2014-03-02T13:07:56Z</time>
      </trkpt>
      <trkpt lat="43.5393" lon="5.77171">
        <ele>544.9</ele>
        <time>2014-03-02T13:08:03Z</time>
      </trkpt>
      <trkpt lat="43.53922" lon="5.77173">
        <ele>544.8</ele>
        <time>2014-03-02T13:08:11Z</time>
      </trkpt>
      <trkpt lat="43.53913" lon="5.77176">
        <ele>543.7</ele>
        <time>2014-03-02T13:08:20Z</time>
      </trkpt>
      <trkpt lat="43.53905" lon="5.77172">
        <ele>543.2</ele>
        <time>2014-03-02T13:08:29Z</time>
      </trkpt>
      <trkpt lat="43.53898" lon="5.77167">
        <ele>543.7</ele>
        <time>2014-03-02T13:08:40Z</time>
      </trkpt>
      <trkpt lat="43.53897" lon="5.77166">
        <ele>543.6</ele>
        <time>2014-03-02T13:08:41Z</time>
      </trkpt>
      <trkpt lat="43.53885" lon="5.77152">
        <ele>542.6</ele>
        <time>2014-03-02T13:08:58Z</time>
      </trkpt>
      <trkpt lat="43.53881" lon="5.77141">
        <ele>541.5</ele>
        <time>2014-03-02T13:09:09Z</time>
      </trkpt>
      <trkpt lat="43.53878" lon="5.77131">
        <ele>540.9</ele>
        <time>2014-03-02T13:09:18Z</time>
      </trkpt>
      <trkpt lat="43.53876" lon="5.77119">
        <ele>539.5</ele>
        <time>2014-03-02T13:09:26Z</time>
      </trkpt>
      <trkpt lat="43.53875" lon="5.77109">
        <ele>539.1</ele>
        <time>2014-03-02T13:09:34Z</time>
      </trkpt>
      <trkpt lat="43.53872" lon="5.77098">
        <ele>538.8</ele>
        <time>2014-03-02T13:09:40Z</time>
      </trkpt>
      <trkpt lat="43.53869" lon="5.77088">
        <ele>538.6</ele>
        <time>2014-03-02T13:09:47Z</time>
      </trkpt>
      <trkpt lat="43.53868" lon="5.77087">
        <ele>538.7</ele>
        <time>2014-03-02T13:09:48Z</time>
      </trkpt>
      <trkpt lat="43.53861" lon="5.77068">
        <ele>539.3</ele>
        <time>2014-03-02T13:10:00Z</time>
      </trkpt>
      <trkpt lat="43.53855" lon="5.7706">
        <ele>537.9</ele>
        <time>2014-03-02T13:10:07Z</time>
      </trkpt>
      <trkpt lat="43.53851" lon="5.7705">
        <ele>537.3</ele>
        <time>2014-03-02T13:10:15Z</time>
      </trkpt>
      <trkpt lat="43.53847" lon="5.77039">
        <ele>535.9</ele>
        <time>2014-03-02T13:10:22Z</time>
      </trkpt>
      <trkpt lat="43.53844" lon="5.77029">
        <ele>535.6</ele>
        <time>2014-03-02T13:10:28Z</time>
      </trkpt>
      <trkpt lat="43.53841" lon="5.77018">
        <ele>535.2</ele>
        <time>2014-03-02T13:10:36Z</time>
      </trkpt>
      <trkpt lat="43.5384" lon="5.77007">
        <ele>533.8</ele>
        <time>2014-03-02T13:10:42Z</time>
      </trkpt>
      <trkpt lat="43.53837" lon="5.76995">
        <ele>532.3</ele>
        <time>2014-03-02T13:10:50Z</time>
      </trkpt>
      <trkpt lat="43.53837" lon="5.76994">
        <ele>532.3</ele>
        <time>2014-03-02T13:10:51Z</time>
      </trkpt>
      <trkpt lat="43.5383" lon="5.76973">
        <ele>530.1</ele>
        <time>2014-03-02T13:11:06Z</time>
      </trkpt>
      <trkpt lat="43.53825" lon="5.76964">
        <ele>530.3</ele>
        <time>2014-03-02T13:11:12Z</time>
      </trkpt>
      <trkpt lat="43.53821" lon="5.76955">
        <ele>529.8</ele>
        <time>2014-03-02T13:11:18Z</time>
      </trkpt>
      <trkpt lat="43.53817" lon="5.76946">
        <ele>528.8</ele>
        <time>2014-03-02T13:11:24Z</time>
      </trkpt>
      <trkpt lat="43.53812" lon="5.76936">
        <ele>528</ele>
        <time>2014-03-02T13:11:30Z</time>
      </trkpt>
      <trkpt lat="43.53807" lon="5.76927">
        <ele>528</ele>
        <time>2014-03-02T13:11:35Z</time>
      </trkpt>
      <trkpt lat="43.53801" lon="5.7692">
        <ele>527.1</ele>
        <time>2014-03-02T13:11:43Z</time>
      </trkpt>
      <trkpt lat="43.53795" lon="5.76911">
        <ele>526.3</ele>
        <time>2014-03-02T13:11:51Z</time>
      </trkpt>
      <trkpt lat="43.53788" lon="5.76903">
        <ele>525.2</ele>
        <time>2014-03-02T13:11:56Z</time>
      </trkpt>
      <trkpt lat="43.53787" lon="5.76902">
        <ele>525</ele>
        <time>2014-03-02T13:11:57Z</time>
      </trkpt>
      <trkpt lat="43.53773" lon="5.76893">
        <ele>525.1</ele>
        <time>2014-03-02T13:12:10Z</time>
      </trkpt>
      <trkpt lat="43.53765" lon="5.76888">
        <ele>524</ele>
        <time>2014-03-02T13:12:18Z</time>
      </trkpt>
      <trkpt lat="43.53757" lon="5.76883">
        <ele>522.6</ele>
        <time>2014-03-02T13:12:26Z</time>
      </trkpt>
      <trkpt lat="43.53749" lon="5.7688">
        <ele>521.5</ele>
        <time>2014-03-02T13:12:34Z</time>
      </trkpt>
      <trkpt lat="43.53741" lon="5.76875">
        <ele>521.2</ele>
        <time>2014-03-02T13:12:41Z</time>
      </trkpt>
      <trkpt lat="43.53733" lon="5.76871">
        <ele>520.7</ele>
        <time>2014-03-02T13:12:47Z</time>
      </trkpt>
      <trkpt lat="43.53725" lon="5.76867">
        <ele>520.1</ele>
        <time>2014-03-02T13:12:51Z</time>
      </trkpt>
      <trkpt lat="43.53717" lon="5.76864">
        <ele>519.3</ele>
        <time>2014-03-02T13:12:57Z</time>
      </trkpt>
      <trkpt lat="43.53715" lon="5.76863">
        <ele>519.3</ele>
        <time>2014-03-02T13:12:58Z</time>
      </trkpt>
      <trkpt lat="43.537" lon="5.76863">
        <ele>517.8</ele>
        <time>2014-03-02T13:13:13Z</time>
      </trkpt>
      <trkpt lat="43.53691" lon="5.76862">
        <ele>517</ele>
        <time>2014-03-02T13:13:19Z</time>
      </trkpt>
      <trkpt lat="43.53682" lon="5.76859">
        <ele>516.6</ele>
        <time>2014-03-02T13:13:27Z</time>
      </trkpt>
      <trkpt lat="43.53674" lon="5.76857">
        <ele>516.1</ele>
        <time>2014-03-02T13:13:34Z</time>
      </trkpt>
      <trkpt lat="43.53666" lon="5.76852">
        <ele>515.2</ele>
        <time>2014-03-02T13:13:40Z</time>
      </trkpt>
      <trkpt lat="43.53658" lon="5.76848">
        <ele>514.4</ele>
        <time>2014-03-02T13:13:47Z</time>
      </trkpt>
      <trkpt lat="43.5365" lon="5.76846">
        <ele>514</ele>
        <time>2014-03-02T13:13:54Z</time>
      </trkpt>
      <trkpt lat="43.53643" lon="5.76844">
        <ele>513.2</ele>
        <time>2014-03-02T13:14:00Z</time>
      </trkpt>
      <trkpt lat="43.53641" lon="5.76844">
        <ele>513.2</ele>
        <time>2014-03-02T13:14:01Z</time>
      </trkpt>
      <trkpt lat="43.53626" lon="5.76841">
        <ele>511.7</ele>
        <time>2014-03-02T13:14:14Z</time>
      </trkpt>
      <trkpt lat="43.53618" lon="5.76838">
        <ele>510.9</ele>
        <time>2014-03-02T13:14:22Z</time>
      </trkpt>
      <trkpt lat="43.5361" lon="5.76836">
        <ele>509.7</ele>
        <time>2014-03-02T13:14:30Z</time>
      </trkpt>
      <trkpt lat="43.53602" lon="5.76834">
        <ele>508.5</ele>
        <time>2014-03-02T13:14:37Z</time>
      </trkpt>
      <trkpt lat="43.53594" lon="5.76832">
        <ele>507.7</ele>
        <time>2014-03-02T13:14:46Z</time>
      </trkpt>
      <trkpt lat="43.53585" lon="5.76829">
        <ele>506.4</ele>
        <time>2014-03-02T13:14:52Z</time>
      </trkpt>
      <trkpt lat="43.53576" lon="5.76828">
        <ele>506</ele>
        <time>2014-03-02T13:14:59Z</time>
      </trkpt>
      <trkpt lat="43.53568" lon="5.76828">
        <ele>505.8</ele>
        <time>2014-03-02T13:15:06Z</time>
      </trkpt>
      <trkpt lat="43.53567" lon="5.76828">
        <ele>505.8</ele>
        <time>2014-03-02T13:15:07Z</time>
      </trkpt>
      <trkpt lat="43.53551" lon="5.76825">
        <ele>503.8</ele>
        <time>2014-03-02T13:15:22Z</time>
      </trkpt>
      <trkpt lat="43.53543" lon="5.76824">
        <ele>503.3</ele>
        <time>2014-03-02T13:15:29Z</time>
      </trkpt>
      <trkpt lat="43.53535" lon="5.76821">
        <ele>501.9</ele>
        <time>2014-03-02T13:15:36Z</time>
      </trkpt>
      <trkpt lat="43.53527" lon="5.76818">
        <ele>500.6</ele>
        <time>2014-03-02T13:15:43Z</time>
      </trkpt>
      <trkpt lat="43.53519" lon="5.76817">
        <ele>499.9</ele>
        <time>2014-03-02T13:15:51Z</time>
      </trkpt>
      <trkpt lat="43.53511" lon="5.76814">
        <ele>499.1</ele>
        <time>2014-03-02T13:15:58Z</time>
      </trkpt>
      <trkpt lat="43.53503" lon="5.7681">
        <ele>498.7</ele>
        <time>2014-03-02T13:16:04Z</time>
      </trkpt>
      <trkpt lat="43.53496" lon="5.76807">
        <ele>497.7</ele>
        <time>2014-03-02T13:16:11Z</time>
      </trkpt>
      <trkpt lat="43.53494" lon="5.76807">
        <ele>497.7</ele>
        <time>2014-03-02T13:16:12Z</time>
      </trkpt>
      <trkpt lat="43.53479" lon="5.76801">
        <ele>498.8</ele>
        <time>2014-03-02T13:16:44Z</time>
      </trkpt>
      <trkpt lat="43.53471" lon="5.76795">
        <ele>498.2</ele>
        <time>2014-03-02T13:16:54Z</time>
      </trkpt>
      <trkpt lat="43.53462" lon="5.76792">
        <ele>497.6</ele>
        <time>2014-03-02T13:16:59Z</time>
      </trkpt>
      <trkpt lat="43.53455" lon="5.76787">
        <ele>497.6</ele>
        <time>2014-03-02T13:17:05Z</time>
      </trkpt>
      <trkpt lat="43.53447" lon="5.76782">
        <ele>497.2</ele>
        <time>2014-03-02T13:17:10Z</time>
      </trkpt>
      <trkpt lat="43.53441" lon="5.76777">
        <ele>496.1</ele>
        <time>2014-03-02T13:17:18Z</time>
      </trkpt>
      <trkpt lat="43.53439" lon="5.76775">
        <ele>495.8</ele>
        <time>2014-03-02T13:17:19Z</time>
      </trkpt>
      <trkpt lat="43.53428" lon="5.76764">
        <ele>494.8</ele>
        <time>2014-03-02T13:17:28Z</time>
      </trkpt>
      <trkpt lat="43.53423" lon="5.76758">
        <ele>494.9</ele>
        <time>2014-03-02T13:17:33Z</time>
      </trkpt>
      <trkpt lat="43.53416" lon="5.76751">
        <ele>494.2</ele>
        <time>2014-03-02T13:17:39Z</time>
      </trkpt>
      <trkpt lat="43.53411" lon="5.76743">
        <ele>494</ele>
        <time>2014-03-02T13:17:45Z</time>
      </trkpt>
      <trkpt lat="43.53403" lon="5.76737">
        <ele>493.5</ele>
        <time>2014-03-02T13:17:52Z</time>
      </trkpt>
      <trkpt lat="43.53396" lon="5.76731">
        <ele>493.5</ele>
        <time>2014-03-02T13:17:58Z</time>
      </trkpt>
      <trkpt lat="43.53389" lon="5.76728">
        <ele>492.7</ele>
        <time>2014-03-02T13:18:03Z</time>
      </trkpt>
      <trkpt lat="43.53382" lon="5.76724">
        <ele>492.1</ele>
        <time>2014-03-02T13:18:07Z</time>
      </trkpt>
      <trkpt lat="43.53375" lon="5.76719">
        <ele>492</ele>
        <time>2014-03-02T13:18:13Z</time>
      </trkpt>
      <trkpt lat="43.53368" lon="5.76715">
        <ele>491.4</ele>
        <time>2014-03-02T13:18:18Z</time>
      </trkpt>
      <trkpt lat="43.5336" lon="5.76712">
        <ele>490.8</ele>
        <time>2014-03-02T13:18:25Z</time>
      </trkpt>
      <trkpt lat="43.53358" lon="5.76711">
        <ele>491</ele>
        <time>2014-03-02T13:18:26Z</time>
      </trkpt>
      <trkpt lat="43.53345" lon="5.76703">
        <ele>490.1</ele>
        <time>2014-03-02T13:18:36Z</time>
      </trkpt>
      <trkpt lat="43.53338" lon="5.76699">
        <ele>489.5</ele>
        <time>2014-03-02T13:18:43Z</time>
      </trkpt>
      <trkpt lat="43.5333" lon="5.76695">
        <ele>488.8</ele>
        <time>2014-03-02T13:18:50Z</time>
      </trkpt>
      <trkpt lat="43.53322" lon="5.76694">
        <ele>487.9</ele>
        <time>2014-03-02T13:18:59Z</time>
      </trkpt>
      <trkpt lat="43.53314" lon="5.76694">
        <ele>487.2</ele>
        <time>2014-03-02T13:19:05Z</time>
      </trkpt>
      <trkpt lat="43.53305" lon="5.76694">
        <ele>486.7</ele>
        <time>2014-03-02T13:19:12Z</time>
      </trkpt>
      <trkpt lat="43.53298" lon="5.76696">
        <ele>486</ele>
        <time>2014-03-02T13:19:19Z</time>
      </trkpt>
      <trkpt lat="43.53289" lon="5.76694">
        <ele>485.6</ele>
        <time>2014-03-02T13:19:25Z</time>
      </trkpt>
      <trkpt lat="43.53282" lon="5.76689">
        <ele>485</ele>
        <time>2014-03-02T13:19:34Z</time>
      </trkpt>
      <trkpt lat="43.5328" lon="5.76687">
        <ele>484.9</ele>
        <time>2014-03-02T13:19:35Z</time>
      </trkpt>
      <trkpt lat="43.53269" lon="5.76674">
        <ele>484.3</ele>
        <time>2014-03-02T13:19:49Z</time>
      </trkpt>
      <trkpt lat="43.53263" lon="5.76666">
        <ele>483.8</ele>
        <time>2014-03-02T13:19:57Z</time>
      </trkpt>
      <trkpt lat="43.53257" lon="5.76657">
        <ele>482.7</ele>
        <time>2014-03-02T13:20:06Z</time>
      </trkpt>
      <trkpt lat="43.5325" lon="5.76648">
        <ele>482.4</ele>
        <time>2014-03-02T13:20:13Z</time>
      </trkpt>
      <trkpt lat="43.53245" lon="5.7664">
        <ele>481.8</ele>
        <time>2014-03-02T13:20:21Z</time>
      </trkpt>
      <trkpt lat="43.53238" lon="5.76633">
        <ele>481.6</ele>
        <time>2014-03-02T13:20:27Z</time>
      </trkpt>
      <trkpt lat="43.53232" lon="5.76626">
        <ele>481</ele>
        <time>2014-03-02T13:20:33Z</time>
      </trkpt>
      <trkpt lat="43.53227" lon="5.76617">
        <ele>480.3</ele>
        <time>2014-03-02T13:20:41Z</time>
      </trkpt>
      <trkpt lat="43.53226" lon="5.76614">
        <ele>480.2</ele>
        <time>2014-03-02T13:20:42Z</time>
      </trkpt>
      <trkpt lat="43.53222" lon="5.76595">
        <ele>479.2</ele>
        <time>2014-03-02T13:20:54Z</time>
      </trkpt>
      <trkpt lat="43.5322" lon="5.76583">
        <ele>479.4</ele>
        <time>2014-03-02T13:21:01Z</time>
      </trkpt>
      <trkpt lat="43.53217" lon="5.76572">
        <ele>478.7</ele>
        <time>2014-03-02T13:21:09Z</time>
      </trkpt>
      <trkpt lat="43.53216" lon="5.7656">
        <ele>478</ele>
        <time>2014-03-02T13:21:18Z</time>
      </trkpt>
      <trkpt lat="43.53213" lon="5.7655">
        <ele>478</ele>
        <time>2014-03-02T13:21:24Z</time>
      </trkpt>
      <trkpt lat="43.5321" lon="5.7654">
        <ele>477.6</ele>
        <time>2014-03-02T13:21:31Z</time>
      </trkpt>
      <trkpt lat="43.53209" lon="5.76529">
        <ele>477.5</ele>
        <time>2014-03-02T13:21:38Z</time>
      </trkpt>
      <trkpt lat="43.53206" lon="5.76518">
        <ele>476.8</ele>
        <time>2014-03-02T13:21:45Z</time>
      </trkpt>
      <trkpt lat="43.53206" lon="5.76516">
        <ele>477</ele>
        <time>2014-03-02T13:21:46Z</time>
      </trkpt>
      <trkpt lat="43.53201" lon="5.76496">
        <ele>476.6</ele>
        <time>2014-03-02T13:21:58Z</time>
      </trkpt>
      <trkpt lat="43.53198" lon="5.76485">
        <ele>475.7</ele>
        <time>2014-03-02T13:22:05Z</time>
      </trkpt>
      <trkpt lat="43.53196" lon="5.76474">
        <ele>476</ele>
        <time>2014-03-02T13:22:11Z</time>
      </trkpt>
      <trkpt lat="43.53195" lon="5.76462">
        <ele>475.4</ele>
        <time>2014-03-02T13:22:19Z</time>
      </trkpt>
      <trkpt lat="43.53195" lon="5.76449">
        <ele>474.8</ele>
        <time>2014-03-02T13:22:26Z</time>
      </trkpt>
      <trkpt lat="43.53193" lon="5.76438">
        <ele>474.7</ele>
        <time>2014-03-02T13:22:33Z</time>
      </trkpt>
      <trkpt lat="43.53191" lon="5.76426">
        <ele>474.5</ele>
        <time>2014-03-02T13:22:40Z</time>
      </trkpt>
      <trkpt lat="43.53191" lon="5.76415">
        <ele>474.7</ele>
        <time>2014-03-02T13:22:46Z</time>
      </trkpt>
      <trkpt lat="43.53189" lon="5.76404">
        <ele>474.3</ele>
        <time>2014-03-02T13:22:53Z</time>
      </trkpt>
      <trkpt lat="43.53189" lon="5.76403">
        <ele>474.4</ele>
        <time>2014-03-02T13:22:54Z</time>
      </trkpt>
      <trkpt lat="43.53182" lon="5.76384">
        <ele>473.8</ele>
        <time>2014-03-02T13:23:07Z</time>
      </trkpt>
      <trkpt lat="43.53177" lon="5.76374">
        <ele>474.7</ele>
        <time>2014-03-02T13:23:13Z</time>
      </trkpt>
      <trkpt lat="43.5317" lon="5.76367">
        <ele>474.3</ele>
        <time>2014-03-02T13:23:20Z</time>
      </trkpt>
      <trkpt lat="43.53167" lon="5.76357">
        <ele>473.8</ele>
        <time>2014-03-02T13:23:27Z</time>
      </trkpt>
      <trkpt lat="43.53162" lon="5.76348">
        <ele>473.9</ele>
        <time>2014-03-02T13:23:35Z</time>
      </trkpt>
      <trkpt lat="43.53157" lon="5.7634">
        <ele>473.7</ele>
        <time>2014-03-02T13:23:41Z</time>
      </trkpt>
      <trkpt lat="43.53152" lon="5.76331">
        <ele>473.9</ele>
        <time>2014-03-02T13:23:48Z</time>
      </trkpt>
      <trkpt lat="43.53147" lon="5.76323">
        <ele>473.5</ele>
        <time>2014-03-02T13:23:54Z</time>
      </trkpt>
      <trkpt lat="43.53146" lon="5.76321">
        <ele>473.3</ele>
        <time>2014-03-02T13:23:55Z</time>
      </trkpt>
      <trkpt lat="43.53138" lon="5.76304">
        <ele>472.9</ele>
        <time>2014-03-02T13:24:09Z</time>
      </trkpt>
      <trkpt lat="43.53131" lon="5.76298">
        <ele>472.4</ele>
        <time>2014-03-02T13:24:14Z</time>
      </trkpt>
      <trkpt lat="43.53127" lon="5.76289">
        <ele>472.5</ele>
        <time>2014-03-02T13:24:20Z</time>
      </trkpt>
      <trkpt lat="43.53122" lon="5.76278">
        <ele>471.8</ele>
        <time>2014-03-02T13:24:26Z</time>
      </trkpt>
      <trkpt lat="43.53118" lon="5.76269">
        <ele>471.9</ele>
        <time>2014-03-02T13:24:34Z</time>
      </trkpt>
      <trkpt lat="43.53115" lon="5.76258">
        <ele>471.2</ele>
        <time>2014-03-02T13:24:42Z</time>
      </trkpt>
      <trkpt lat="43.53112" lon="5.76247">
        <ele>470.6</ele>
        <time>2014-03-02T13:24:49Z</time>
      </trkpt>
      <trkpt lat="43.53109" lon="5.76237">
        <ele>469.8</ele>
        <time>2014-03-02T13:24:56Z</time>
      </trkpt>
      <trkpt lat="43.53108" lon="5.76235">
        <ele>469.8</ele>
        <time>2014-03-02T13:24:57Z</time>
      </trkpt>
      <trkpt lat="43.53097" lon="5.76227">
        <ele>469.6</ele>
        <time>2014-03-02T13:25:11Z</time>
      </trkpt>
      <trkpt lat="43.53089" lon="5.76228">
        <ele>468.2</ele>
        <time>2014-03-02T13:25:18Z</time>
      </trkpt>
      <trkpt lat="43.53081" lon="5.76226">
        <ele>468.1</ele>
        <time>2014-03-02T13:25:24Z</time>
      </trkpt>
      <trkpt lat="43.53072" lon="5.76228">
        <ele>467.2</ele>
        <time>2014-03-02T13:25:31Z</time>
      </trkpt>
      <trkpt lat="43.53065" lon="5.76231">
        <ele>466.3</ele>
        <time>2014-03-02T13:25:39Z</time>
      </trkpt>
      <trkpt lat="43.53057" lon="5.76236">
        <ele>466.3</ele>
        <time>2014-03-02T13:25:46Z</time>
      </trkpt>
      <trkpt lat="43.53051" lon="5.76245">
        <ele>465.1</ele>
        <time>2014-03-02T13:26:03Z</time>
      </trkpt>
      <trkpt lat="43.5305" lon="5.76246">
        <ele>465.1</ele>
        <time>2014-03-02T13:26:04Z</time>
      </trkpt>
      <trkpt lat="43.53036" lon="5.76257">
        <ele>464.5</ele>
        <time>2014-03-02T13:26:21Z</time>
      </trkpt>
      <trkpt lat="43.53029" lon="5.76262">
        <ele>464.8</ele>
        <time>2014-03-02T13:26:29Z</time>
      </trkpt>
      <trkpt lat="43.53021" lon="5.76266">
        <ele>464.6</ele>
        <time>2014-03-02T13:26:36Z</time>
      </trkpt>
      <trkpt lat="43.53013" lon="5.76269">
        <ele>463.6</ele>
        <time>2014-03-02T13:26:44Z</time>
      </trkpt>
      <trkpt lat="43.53005" lon="5.76271">
        <ele>463.4</ele>
        <time>2014-03-02T13:26:54Z</time>
      </trkpt>
      <trkpt lat="43.53001" lon="5.76282">
        <ele>463.5</ele>
        <time>2014-03-02T13:27:05Z</time>
      </trkpt>
      <trkpt lat="43.53" lon="5.76283">
        <ele>463.5</ele>
        <time>2014-03-02T13:27:06Z</time>
      </trkpt>
      <trkpt lat="43.52987" lon="5.76291">
        <ele>463.4</ele>
        <time>2014-03-02T13:27:20Z</time>
      </trkpt>
      <trkpt lat="43.52979" lon="5.76297">
        <ele>462.9</ele>
        <time>2014-03-02T13:27:27Z</time>
      </trkpt>
      <trkpt lat="43.52973" lon="5.76304">
        <ele>462.3</ele>
        <time>2014-03-02T13:27:34Z</time>
      </trkpt>
      <trkpt lat="43.52965" lon="5.76306">
        <ele>462.1</ele>
        <time>2014-03-02T13:27:40Z</time>
      </trkpt>
      <trkpt lat="43.52957" lon="5.76307">
        <ele>461.7</ele>
        <time>2014-03-02T13:27:47Z</time>
      </trkpt>
      <trkpt lat="43.5295" lon="5.76313">
        <ele>461.1</ele>
        <time>2014-03-02T13:27:57Z</time>
      </trkpt>
      <trkpt lat="43.52946" lon="5.76324">
        <ele>460.3</ele>
        <time>2014-03-02T13:28:06Z</time>
      </trkpt>
      <trkpt lat="43.5294" lon="5.7633">
        <ele>460.7</ele>
        <time>2014-03-02T13:28:13Z</time>
      </trkpt>
      <trkpt lat="43.52938" lon="5.76331">
        <ele>460.3</ele>
        <time>2014-03-02T13:28:14Z</time>
      </trkpt>
      <trkpt lat="43.52928" lon="5.76347">
        <ele>459.5</ele>
        <time>2014-03-02T13:28:27Z</time>
      </trkpt>
      <trkpt lat="43.52921" lon="5.76354">
        <ele>459.4</ele>
        <time>2014-03-02T13:28:33Z</time>
      </trkpt>
      <trkpt lat="43.52916" lon="5.76363">
        <ele>459.2</ele>
        <time>2014-03-02T13:28:41Z</time>
      </trkpt>
      <trkpt lat="43.5291" lon="5.76372">
        <ele>458.8</ele>
        <time>2014-03-02T13:28:49Z</time>
      </trkpt>
      <trkpt lat="43.52901" lon="5.76375">
        <ele>458.5</ele>
        <time>2014-03-02T13:28:57Z</time>
      </trkpt>
      <trkpt lat="43.52894" lon="5.76379">
        <ele>457.6</ele>
        <time>2014-03-02T13:29:04Z</time>
      </trkpt>
      <trkpt lat="43.52888" lon="5.76386">
        <ele>458.1</ele>
        <time>2014-03-02T13:29:13Z</time>
      </trkpt>
      <trkpt lat="43.52882" lon="5.76394">
        <ele>457.9</ele>
        <time>2014-03-02T13:29:22Z</time>
      </trkpt>
      <trkpt lat="43.52881" lon="5.76395">
        <ele>457.7</ele>
        <time>2014-03-02T13:29:23Z</time>
      </trkpt>
      <trkpt lat="43.52872" lon="5.76412">
        <ele>457.9</ele>
        <time>2014-03-02T13:29:36Z</time>
      </trkpt>
      <trkpt lat="43.52867" lon="5.7642">
        <ele>457.8</ele>
        <time>2014-03-02T13:29:43Z</time>
      </trkpt>
      <trkpt lat="43.52861" lon="5.76427">
        <ele>457</ele>
        <time>2014-03-02T13:29:52Z</time>
      </trkpt>
      <trkpt lat="43.52854" lon="5.76432">
        <ele>457.5</ele>
        <time>2014-03-02T13:29:59Z</time>
      </trkpt>
      <trkpt lat="43.52846" lon="5.76437">
        <ele>457.4</ele>
        <time>2014-03-02T13:30:06Z</time>
      </trkpt>
      <trkpt lat="43.52839" lon="5.76443">
        <ele>457</ele>
        <time>2014-03-02T13:30:13Z</time>
      </trkpt>
      <trkpt lat="43.5283" lon="5.76444">
        <ele>456.9</ele>
        <time>2014-03-02T13:30:35Z</time>
      </trkpt>
      <trkpt lat="43.5283" lon="5.76443">
        <ele>456.7</ele>
        <time>2014-03-02T13:30:36Z</time>
      </trkpt>
      <trkpt lat="43.52821" lon="5.76465">
        <ele>456.8</ele>
        <time>2014-03-02T13:31:14Z</time>
      </trkpt>
      <trkpt lat="43.52818" lon="5.76476">
        <ele>456.7</ele>
        <time>2014-03-02T13:31:22Z</time>
      </trkpt>
      <trkpt lat="43.52811" lon="5.76484">
        <ele>456.3</ele>
        <time>2014-03-02T13:31:35Z</time>
      </trkpt>
      <trkpt lat="43.52804" lon="5.7649">
        <ele>456.3</ele>
        <time>2014-03-02T13:31:43Z</time>
      </trkpt>
      <trkpt lat="43.52803" lon="5.7649">
        <ele>456.6</ele>
        <time>2014-03-02T13:31:44Z</time>
      </trkpt>
      <trkpt lat="43.52787" lon="5.76491">
        <ele>455.6</ele>
        <time>2014-03-02T13:31:59Z</time>
      </trkpt>
      <trkpt lat="43.52779" lon="5.76492">
        <ele>454.8</ele>
        <time>2014-03-02T13:32:07Z</time>
      </trkpt>
      <trkpt lat="43.52771" lon="5.76494">
        <ele>454.9</ele>
        <time>2014-03-02T13:32:15Z</time>
      </trkpt>
      <trkpt lat="43.52763" lon="5.76499">
        <ele>454.6</ele>
        <time>2014-03-02T13:32:23Z</time>
      </trkpt>
      <trkpt lat="43.52755" lon="5.76501">
        <ele>454.4</ele>
        <time>2014-03-02T13:32:31Z</time>
      </trkpt>
      <trkpt lat="43.52747" lon="5.76502">
        <ele>454.7</ele>
        <time>2014-03-02T13:32:39Z</time>
      </trkpt>
      <trkpt lat="43.52738" lon="5.76501">
        <ele>454.3</ele>
        <time>2014-03-02T13:32:47Z</time>
      </trkpt>
      <trkpt lat="43.52738" lon="5.76501">
        <ele>454.4</ele>
        <time>2014-03-02T13:32:48Z</time>
      </trkpt>
      <trkpt lat="43.52723" lon="5.76505">
        <ele>453.8</ele>
        <time>2014-03-02T13:33:03Z</time>
      </trkpt>
      <trkpt lat="43.52714" lon="5.76506">
        <ele>453.6</ele>
        <time>2014-03-02T13:33:12Z</time>
      </trkpt>
      <trkpt lat="43.52706" lon="5.76508">
        <ele>454.1</ele>
        <time>2014-03-02T13:33:19Z</time>
      </trkpt>
      <trkpt lat="43.52698" lon="5.76511">
        <ele>454</ele>
        <time>2014-03-02T13:33:27Z</time>
      </trkpt>
      <trkpt lat="43.5269" lon="5.76513">
        <ele>452.6</ele>
        <time>2014-03-02T13:33:35Z</time>
      </trkpt>
      <trkpt lat="43.52682" lon="5.76515">
        <ele>452.8</ele>
        <time>2014-03-02T13:33:41Z</time>
      </trkpt>
      <trkpt lat="43.52674" lon="5.76518">
        <ele>453.1</ele>
        <time>2014-03-02T13:33:49Z</time>
      </trkpt>
      <trkpt lat="43.52674" lon="5.76518">
        <ele>453.2</ele>
        <time>2014-03-02T13:33:50Z</time>
      </trkpt>
      <trkpt lat="43.52659" lon="5.76522">
        <ele>452.9</ele>
        <time>2014-03-02T13:34:05Z</time>
      </trkpt>
      <trkpt lat="43.5265" lon="5.76522">
        <ele>451.7</ele>
        <time>2014-03-02T13:34:12Z</time>
      </trkpt>
      <trkpt lat="43.52642" lon="5.76526">
        <ele>451.5</ele>
        <time>2014-03-02T13:34:21Z</time>
      </trkpt>
      <trkpt lat="43.52635" lon="5.76531">
        <ele>452.3</ele>
        <time>2014-03-02T13:34:30Z</time>
      </trkpt>
      <trkpt lat="43.52627" lon="5.76533">
        <ele>451.5</ele>
        <time>2014-03-02T13:34:39Z</time>
      </trkpt>
      <trkpt lat="43.52618" lon="5.76537">
        <ele>451.1</ele>
        <time>2014-03-02T13:35:05Z</time>
      </trkpt>
      <trkpt lat="43.52618" lon="5.76537">
        <ele>451</ele>
        <time>2014-03-02T13:35:06Z</time>
      </trkpt>
      <trkpt lat="43.52602" lon="5.76544">
        <ele>451.8</ele>
        <time>2014-03-02T13:35:52Z</time>
      </trkpt>
      <trkpt lat="43.52594" lon="5.76544">
        <ele>450.7</ele>
        <time>2014-03-02T13:36:02Z</time>
      </trkpt>
      <trkpt lat="43.52585" lon="5.76544">
        <ele>449.8</ele>
        <time>2014-03-02T13:36:17Z</time>
      </trkpt>
      <trkpt lat="43.52585" lon="5.76544">
        <ele>449.9</ele>
        <time>2014-03-02T13:36:18Z</time>
      </trkpt>
      <trkpt lat="43.52569" lon="5.76536">
        <ele>448.7</ele>
        <time>2014-03-02T13:36:37Z</time>
      </trkpt>
      <trkpt lat="43.52563" lon="5.76528">
        <ele>448.1</ele>
        <time>2014-03-02T13:36:55Z</time>
      </trkpt>
      <trkpt lat="43.52555" lon="5.76527">
        <ele>447.2</ele>
        <time>2014-03-02T13:37:10Z</time>
      </trkpt>
      <trkpt lat="43.52547" lon="5.76523">
        <ele>446.8</ele>
        <time>2014-03-02T13:37:21Z</time>
      </trkpt>
      <trkpt lat="43.52546" lon="5.76523">
        <ele>446.4</ele>
        <time>2014-03-02T13:37:22Z</time>
      </trkpt>
      <trkpt lat="43.52536" lon="5.76505">
        <ele>446.7</ele>
        <time>2014-03-02T13:37:42Z</time>
      </trkpt>
      <trkpt lat="43.52528" lon="5.76502">
        <ele>447.1</ele>
        <time>2014-03-02T13:37:53Z</time>
      </trkpt>
      <trkpt lat="43.5252" lon="5.76496">
        <ele>446.9</ele>
        <time>2014-03-02T13:38:02Z</time>
      </trkpt>
      <trkpt lat="43.52512" lon="5.76491">
        <ele>446.3</ele>
        <time>2014-03-02T13:38:10Z</time>
      </trkpt>
      <trkpt lat="43.52504" lon="5.76488">
        <ele>445.7</ele>
        <time>2014-03-02T13:38:21Z</time>
      </trkpt>
      <trkpt lat="43.52496" lon="5.76482">
        <ele>446.6</ele>
        <time>2014-03-02T13:38:31Z</time>
      </trkpt>
      <trkpt lat="43.52496" lon="5.76481">
        <ele>446.3</ele>
        <time>2014-03-02T13:38:32Z</time>
      </trkpt>
      <trkpt lat="43.52481" lon="5.76476">
        <ele>445.7</ele>
        <time>2014-03-02T13:38:45Z</time>
      </trkpt>
      <trkpt lat="43.52473" lon="5.76477">
        <ele>445.4</ele>
        <time>2014-03-02T13:38:52Z</time>
      </trkpt>
      <trkpt lat="43.52465" lon="5.76477">
        <ele>445.4</ele>
        <time>2014-03-02T13:39:04Z</time>
      </trkpt>
      <trkpt lat="43.52456" lon="5.76477">
        <ele>445.1</ele>
        <time>2014-03-02T13:39:14Z</time>
      </trkpt>
      <trkpt lat="43.52449" lon="5.76475">
        <ele>445.1</ele>
        <time>2014-03-02T13:39:20Z</time>
      </trkpt>
      <trkpt lat="43.5244" lon="5.76472">
        <ele>445.5</ele>
        <time>2014-03-02T13:39:32Z</time>
      </trkpt>
      <trkpt lat="43.52433" lon="5.76472">
        <ele>444.9</ele>
        <time>2014-03-02T13:39:40Z</time>
      </trkpt>
      <trkpt lat="43.52431" lon="5.76471">
        <ele>444.8</ele>
        <time>2014-03-02T13:39:41Z</time>
      </trkpt>
      <trkpt lat="43.52416" lon="5.76475">
        <ele>445.4</ele>
        <time>2014-03-02T13:39:54Z</time>
      </trkpt>
      <trkpt lat="43.52408" lon="5.76477">
        <ele>444.8</ele>
        <time>2014-03-02T13:40:01Z</time>
      </trkpt>
      <trkpt lat="43.52399" lon="5.76478">
        <ele>445.1</ele>
        <time>2014-03-02T13:40:40Z</time>
      </trkpt>
      <trkpt lat="43.52391" lon="5.76476">
        <ele>446</ele>
        <time>2014-03-02T13:40:51Z</time>
      </trkpt>
      <trkpt lat="43.52391" lon="5.76475">
        <ele>446.1</ele>
        <time>2014-03-02T13:40:52Z</time>
      </trkpt>
      <trkpt lat="43.52377" lon="5.76485">
        <ele>444.5</ele>
        <time>2014-03-02T13:42:11Z</time>
      </trkpt>
      <trkpt lat="43.52377" lon="5.76485">
        <ele>444.7</ele>
        <time>2014-03-02T13:42:12Z</time>
      </trkpt>
      <trkpt lat="43.52371" lon="5.76476">
        <ele>445</ele>
        <time>2014-03-02T13:43:42Z</time>
      </trkpt>
      <trkpt lat="43.52366" lon="5.76479">
        <ele>443.9</ele>
        <time>2014-03-02T13:44:30Z</time>
      </trkpt>
      <trkpt lat="43.52357" lon="5.76478">
        <ele>444.8</ele>
        <time>2014-03-02T13:44:41Z</time>
      </trkpt>
      <trkpt lat="43.5235" lon="5.76482">
        <ele>444</ele>
        <time>2014-03-02T13:44:49Z</time>
      </trkpt>
      <trkpt lat="43.52349" lon="5.76483">
        <ele>443.5</ele>
        <time>2014-03-02T13:44:50Z</time>
      </trkpt>
      <trkpt lat="43.52333" lon="5.76484">
        <ele>443.4</ele>
        <time>2014-03-02T13:45:06Z</time>
      </trkpt>
      <trkpt lat="43.52325" lon="5.76488">
        <ele>443.5</ele>
        <time>2014-03-02T13:45:14Z</time>
      </trkpt>
      <trkpt lat="43.52318" lon="5.76493">
        <ele>444.1</ele>
        <time>2014-03-02T13:45:20Z</time>
      </trkpt>
      <trkpt lat="43.5231" lon="5.76498">
        <ele>443.1</ele>
        <time>2014-03-02T13:45:28Z</time>
      </trkpt>
      <trkpt lat="43.52302" lon="5.76504">
        <ele>443</ele>
        <time>2014-03-02T13:45:39Z</time>
      </trkpt>
      <trkpt lat="43.52294" lon="5.76505">
        <ele>442.8</ele>
        <time>2014-03-02T13:45:47Z</time>
      </trkpt>
      <trkpt lat="43.52285" lon="5.76507">
        <ele>442.5</ele>
        <time>2014-03-02T13:45:57Z</time>
      </trkpt>
      <trkpt lat="43.52284" lon="5.76508">
        <ele>442.8</ele>
        <time>2014-03-02T13:45:58Z</time>
      </trkpt>
      <trkpt lat="43.5227" lon="5.76511">
        <ele>443.8</ele>
        <time>2014-03-02T13:46:12Z</time>
      </trkpt>
      <trkpt lat="43.52262" lon="5.76509">
        <ele>443.4</ele>
        <time>2014-03-02T13:46:19Z</time>
      </trkpt>
      <trkpt lat="43.52254" lon="5.76506">
        <ele>442.4</ele>
        <time>2014-03-02T13:46:27Z</time>
      </trkpt>
      <trkpt lat="43.52247" lon="5.76503">
        <ele>441.7</ele>
        <time>2014-03-02T13:46:35Z</time>
      </trkpt>
      <trkpt lat="43.52239" lon="5.765">
        <ele>442.2</ele>
        <time>2014-03-02T13:46:42Z</time>
      </trkpt>
      <trkpt lat="43.52231" lon="5.76496">
        <ele>442.7</ele>
        <time>2014-03-02T13:46:52Z</time>
      </trkpt>
      <trkpt lat="43.52225" lon="5.76488">
        <ele>443.6</ele>
        <time>2014-03-02T13:46:58Z</time>
      </trkpt>
      <trkpt lat="43.52217" lon="5.76484">
        <ele>443.1</ele>
        <time>2014-03-02T13:47:07Z</time>
      </trkpt>
      <trkpt lat="43.52216" lon="5.76484">
        <ele>443.2</ele>
        <time>2014-03-02T13:47:08Z</time>
      </trkpt>
      <trkpt lat="43.52201" lon="5.76473">
        <ele>441.7</ele>
        <time>2014-03-02T13:47:26Z</time>
      </trkpt>
      <trkpt lat="43.52194" lon="5.76469">
        <ele>443</ele>
        <time>2014-03-02T13:47:34Z</time>
      </trkpt>
      <trkpt lat="43.52185" lon="5.76466">
        <ele>442.7</ele>
        <time>2014-03-02T13:47:41Z</time>
      </trkpt>
      <trkpt lat="43.52177" lon="5.76463">
        <ele>442.5</ele>
        <time>2014-03-02T13:47:46Z</time>
      </trkpt>
      <trkpt lat="43.52169" lon="5.76465">
        <ele>442.7</ele>
        <time>2014-03-02T13:47:54Z</time>
      </trkpt>
      <trkpt lat="43.5216" lon="5.76465">
        <ele>442.3</ele>
        <time>2014-03-02T13:48:00Z</time>
      </trkpt>
      <trkpt lat="43.52152" lon="5.76464">
        <ele>442.4</ele>
        <time>2014-03-02T13:48:06Z</time>
      </trkpt>
      <trkpt lat="43.52143" lon="5.76463">
        <ele>441.9</ele>
        <time>2014-03-02T13:48:14Z</time>
      </trkpt>
      <trkpt lat="43.52142" lon="5.76463">
        <ele>441.9</ele>
        <time>2014-03-02T13:48:15Z</time>
      </trkpt>
      <trkpt lat="43.52127" lon="5.76467">
        <ele>441.5</ele>
        <time>2014-03-02T13:48:30Z</time>
      </trkpt>
      <trkpt lat="43.52118" lon="5.76467">
        <ele>441.9</ele>
        <time>2014-03-02T13:48:39Z</time>
      </trkpt>
      <trkpt lat="43.52111" lon="5.76473">
        <ele>441</ele>
        <time>2014-03-02T13:48:48Z</time>
      </trkpt>
      <trkpt lat="43.52102" lon="5.76475">
        <ele>441.4</ele>
        <time>2014-03-02T13:49:07Z</time>
      </trkpt>
      <trkpt lat="43.52094" lon="5.76479">
        <ele>441.1</ele>
        <time>2014-03-02T13:49:20Z</time>
      </trkpt>
      <trkpt lat="43.52093" lon="5.7648">
        <ele>441.3</ele>
        <time>2014-03-02T13:49:21Z</time>
      </trkpt>
      <trkpt lat="43.5208" lon="5.76492">
        <ele>440.5</ele>
        <time>2014-03-02T13:49:34Z</time>
      </trkpt>
      <trkpt lat="43.52074" lon="5.765">
        <ele>439.5</ele>
        <time>2014-03-02T13:49:43Z</time>
      </trkpt>
      <trkpt lat="43.52069" lon="5.76508">
        <ele>439.2</ele>
        <time>2014-03-02T13:49:51Z</time>
      </trkpt>
      <trkpt lat="43.52062" lon="5.76516">
        <ele>439.1</ele>
        <time>2014-03-02T13:49:58Z</time>
      </trkpt>
      <trkpt lat="43.52057" lon="5.76525">
        <ele>439.6</ele>
        <time>2014-03-02T13:50:09Z</time>
      </trkpt>
      <trkpt lat="43.52056" lon="5.76536">
        <ele>439.2</ele>
        <time>2014-03-02T13:50:17Z</time>
      </trkpt>
      <trkpt lat="43.52052" lon="5.76546">
        <ele>439.4</ele>
        <time>2014-03-02T13:50:24Z</time>
      </trkpt>
      <trkpt lat="43.52051" lon="5.76547">
        <ele>439.6</ele>
        <time>2014-03-02T13:50:25Z</time>
      </trkpt>
      <trkpt lat="43.52049" lon="5.7657">
        <ele>439.8</ele>
        <time>2014-03-02T13:50:42Z</time>
      </trkpt>
      <trkpt lat="43.52049" lon="5.76581">
        <ele>439.8</ele>
        <time>2014-03-02T13:50:50Z</time>
      </trkpt>
      <trkpt lat="43.52047" lon="5.76592">
        <ele>439.6</ele>
        <time>2014-03-02T13:50:58Z</time>
      </trkpt>
      <trkpt lat="43.52042" lon="5.76601">
        <ele>438.9</ele>
        <time>2014-03-02T13:51:06Z</time>
      </trkpt>
      <trkpt lat="43.52038" lon="5.76612">
        <ele>438.8</ele>
        <time>2014-03-02T13:51:14Z</time>
      </trkpt>
      <trkpt lat="43.52036" lon="5.76624">
        <ele>438.8</ele>
        <time>2014-03-02T13:51:23Z</time>
      </trkpt>
      <trkpt lat="43.52038" lon="5.76634">
        <ele>439.2</ele>
        <time>2014-03-02T13:51:32Z</time>
      </trkpt>
      <trkpt lat="43.52039" lon="5.76636">
        <ele>439.1</ele>
        <time>2014-03-02T13:51:33Z</time>
      </trkpt>
      <trkpt lat="43.52036" lon="5.76657">
        <ele>438.7</ele>
        <time>2014-03-02T13:51:53Z</time>
      </trkpt>
      <trkpt lat="43.52034" lon="5.76668">
        <ele>438</ele>
        <time>2014-03-02T13:52:02Z</time>
      </trkpt>
      <trkpt lat="43.52032" lon="5.76679">
        <ele>438.5</ele>
        <time>2014-03-02T13:52:12Z</time>
      </trkpt>
      <trkpt lat="43.52027" lon="5.76688">
        <ele>438.1</ele>
        <time>2014-03-02T13:52:23Z</time>
      </trkpt>
      <trkpt lat="43.5202" lon="5.76696">
        <ele>438.4</ele>
        <time>2014-03-02T13:52:33Z</time>
      </trkpt>
      <trkpt lat="43.52019" lon="5.76696">
        <ele>438.5</ele>
        <time>2014-03-02T13:52:34Z</time>
      </trkpt>
      <trkpt lat="43.52006" lon="5.76709">
        <ele>438.9</ele>
        <time>2014-03-02T13:52:49Z</time>
      </trkpt>
      <trkpt lat="43.51998" lon="5.76714">
        <ele>438.8</ele>
        <time>2014-03-02T13:52:56Z</time>
      </trkpt>
      <trkpt lat="43.51991" lon="5.76719">
        <ele>438.2</ele>
        <time>2014-03-02T13:53:05Z</time>
      </trkpt>
      <trkpt lat="43.51983" lon="5.76724">
        <ele>437.8</ele>
        <time>2014-03-02T13:53:15Z</time>
      </trkpt>
      <trkpt lat="43.51975" lon="5.76727">
        <ele>437.5</ele>
        <time>2014-03-02T13:53:23Z</time>
      </trkpt>
      <trkpt lat="43.51966" lon="5.76725">
        <ele>438.2</ele>
        <time>2014-03-02T13:53:30Z</time>
      </trkpt>
      <trkpt lat="43.51959" lon="5.76729">
        <ele>437.5</ele>
        <time>2014-03-02T13:53:36Z</time>
      </trkpt>
      <trkpt lat="43.51958" lon="5.76729">
        <ele>437.4</ele>
        <time>2014-03-02T13:53:37Z</time>
      </trkpt>
      <trkpt lat="43.51947" lon="5.76744">
        <ele>436.1</ele>
        <time>2014-03-02T13:54:12Z</time>
      </trkpt>
      <trkpt lat="43.51939" lon="5.76741">
        <ele>436.9</ele>
        <time>2014-03-02T13:54:51Z</time>
      </trkpt>
      <trkpt lat="43.51938" lon="5.76742">
        <ele>436.8</ele>
        <time>2014-03-02T13:54:52Z</time>
      </trkpt>
      <trkpt lat="43.51923" lon="5.76747">
        <ele>436.9</ele>
        <time>2014-03-02T13:55:06Z</time>
      </trkpt>
      <trkpt lat="43.51915" lon="5.76751">
        <ele>436.8</ele>
        <time>2014-03-02T13:55:17Z</time>
      </trkpt>
      <trkpt lat="43.51907" lon="5.76755">
        <ele>436.2</ele>
        <time>2014-03-02T13:55:25Z</time>
      </trkpt>
      <trkpt lat="43.51902" lon="5.76764">
        <ele>436.5</ele>
        <time>2014-03-02T13:55:33Z</time>
      </trkpt>
      <trkpt lat="43.51894" lon="5.76769">
        <ele>437</ele>
        <time>2014-03-02T13:55:39Z</time>
      </trkpt>
      <trkpt lat="43.51886" lon="5.76773">
        <ele>436.2</ele>
        <time>2014-03-02T13:55:48Z</time>
      </trkpt>
      <trkpt lat="43.51889" lon="5.76761">
        <ele>436.3</ele>
        <time>2014-03-02T13:56:22Z</time>
      </trkpt>
      <trkpt lat="43.51889" lon="5.7676">
        <ele>436.4</ele>
        <time>2014-03-02T13:56:23Z</time>
      </trkpt>
      <trkpt lat="43.51889" lon="5.76738">
        <ele>436.6</ele>
        <time>2014-03-02T13:56:40Z</time>
      </trkpt>
      <trkpt lat="43.51889" lon="5.76726">
        <ele>436.5</ele>
        <time>2014-03-02T13:56:52Z</time>
      </trkpt>
      <trkpt lat="43.51884" lon="5.76716">
        <ele>437.3</ele>
        <time>2014-03-02T13:57:01Z</time>
      </trkpt>
      <trkpt lat="43.51882" lon="5.76704">
        <ele>438</ele>
        <time>2014-03-02T13:57:11Z</time>
      </trkpt>
      <trkpt lat="43.51878" lon="5.76695">
        <ele>438.7</ele>
        <time>2014-03-02T13:57:20Z</time>
      </trkpt>
      <trkpt lat="43.51877" lon="5.76683">
        <ele>438.7</ele>
        <time>2014-03-02T13:57:29Z</time>
      </trkpt>
      <trkpt lat="43.51876" lon="5.76681">
        <ele>438.9</ele>
        <time>2014-03-02T13:57:30Z</time>
      </trkpt>
      <trkpt lat="43.51873" lon="5.76659">
        <ele>440.1</ele>
        <time>2014-03-02T13:57:48Z</time>
      </trkpt>
      <trkpt lat="43.51876" lon="5.7665">
        <ele>440.4</ele>
        <time>2014-03-02T13:57:57Z</time>
      </trkpt>
      <trkpt lat="43.51878" lon="5.76639">
        <ele>440.3</ele>
        <time>2014-03-02T13:58:03Z</time>
      </trkpt>
      <trkpt lat="43.51882" lon="5.7663">
        <ele>439.4</ele>
        <time>2014-03-02T13:58:10Z</time>
      </trkpt>
      <trkpt lat="43.51886" lon="5.7662">
        <ele>439.7</ele>
        <time>2014-03-02T13:58:18Z</time>
      </trkpt>
      <trkpt lat="43.51886" lon="5.76608">
        <ele>439.7</ele>
        <time>2014-03-02T13:58:28Z</time>
      </trkpt>
      <trkpt lat="43.51887" lon="5.76596">
        <ele>440</ele>
        <time>2014-03-02T13:58:37Z</time>
      </trkpt>
      <trkpt lat="43.51886" lon="5.76595">
        <ele>440</ele>
        <time>2014-03-02T13:58:38Z</time>
      </trkpt>
      <trkpt lat="43.51886" lon="5.76575">
        <ele>440.3</ele>
        <time>2014-03-02T13:58:49Z</time>
      </trkpt>
      <trkpt lat="43.51887" lon="5.76563">
        <ele>440.4</ele>
        <time>2014-03-02T13:58:57Z</time>
      </trkpt>
      <trkpt lat="43.51889" lon="5.76551">
        <ele>440.7</ele>
        <time>2014-03-02T13:59:06Z</time>
      </trkpt>
      <trkpt lat="43.51891" lon="5.76539">
        <ele>440.9</ele>
        <time>2014-03-02T13:59:16Z</time>
      </trkpt>
      <trkpt lat="43.51894" lon="5.76528">
        <ele>441.3</ele>
        <time>2014-03-02T13:59:24Z</time>
      </trkpt>
      <trkpt lat="43.51896" lon="5.76517">
        <ele>441.7</ele>
        <time>2014-03-02T13:59:32Z</time>
      </trkpt>
      <trkpt lat="43.51899" lon="5.76506">
        <ele>442</ele>
        <time>2014-03-02T13:59:40Z</time>
      </trkpt>
      <trkpt lat="43.51899" lon="5.76504">
        <ele>442.4</ele>
        <time>2014-03-02T13:59:41Z</time>
      </trkpt>
      <trkpt lat="43.51902" lon="5.76482">
        <ele>442.7</ele>
        <time>2014-03-02T13:59:58Z</time>
      </trkpt>
      <trkpt lat="43.51907" lon="5.76473">
        <ele>442.9</ele>
        <time>2014-03-02T14:00:08Z</time>
      </trkpt>
      <trkpt lat="43.51908" lon="5.76461">
        <ele>443.6</ele>
        <time>2014-03-02T14:00:16Z</time>
      </trkpt>
      <trkpt lat="43.51907" lon="5.7645">
        <ele>443.4</ele>
        <time>2014-03-02T14:00:23Z</time>
      </trkpt>
      <trkpt lat="43.51907" lon="5.76439">
        <ele>443.2</ele>
        <time>2014-03-02T14:00:32Z</time>
      </trkpt>
      <trkpt lat="43.51908" lon="5.76427">
        <ele>443.8</ele>
        <time>2014-03-02T14:00:42Z</time>
      </trkpt>
      <trkpt lat="43.51908" lon="5.76426">
        <ele>443.7</ele>
        <time>2014-03-02T14:00:43Z</time>
      </trkpt>
      <trkpt lat="43.51905" lon="5.76405">
        <ele>443.7</ele>
        <time>2014-03-02T14:00:56Z</time>
      </trkpt>
      <trkpt lat="43.51901" lon="5.76394">
        <ele>443.6</ele>
        <time>2014-03-02T14:01:04Z</time>
      </trkpt>
      <trkpt lat="43.519" lon="5.76382">
        <ele>443.7</ele>
        <time>2014-03-02T14:01:11Z</time>
      </trkpt>
      <trkpt lat="43.51896" lon="5.76373">
        <ele>443.8</ele>
        <time>2014-03-02T14:01:19Z</time>
      </trkpt>
      <trkpt lat="43.51893" lon="5.76362">
        <ele>443.8</ele>
        <time>2014-03-02T14:01:27Z</time>
      </trkpt>
      <trkpt lat="43.51889" lon="5.76351">
        <ele>444.3</ele>
        <time>2014-03-02T14:01:35Z</time>
      </trkpt>
      <trkpt lat="43.51887" lon="5.76339">
        <ele>444.9</ele>
        <time>2014-03-02T14:01:44Z</time>
      </trkpt>
      <trkpt lat="43.51887" lon="5.76338">
        <ele>444.8</ele>
        <time>2014-03-02T14:01:45Z</time>
      </trkpt>
      <trkpt lat="43.51879" lon="5.7632">
        <ele>445</ele>
        <time>2014-03-02T14:02:02Z</time>
      </trkpt>
      <trkpt lat="43.51878" lon="5.76309">
        <ele>445.5</ele>
        <time>2014-03-02T14:02:10Z</time>
      </trkpt>
      <trkpt lat="43.51877" lon="5.76298">
        <ele>445.1</ele>
        <time>2014-03-02T14:02:17Z</time>
      </trkpt>
      <trkpt lat="43.51874" lon="5.76288">
        <ele>445.5</ele>
        <time>2014-03-02T14:02:24Z</time>
      </trkpt>
      <trkpt lat="43.5187" lon="5.76278">
        <ele>445.5</ele>
        <time>2014-03-02T14:02:32Z</time>
      </trkpt>
      <trkpt lat="43.51871" lon="5.76265">
        <ele>446.5</ele>
        <time>2014-03-02T14:02:43Z</time>
      </trkpt>
      <trkpt lat="43.51867" lon="5.76255">
        <ele>446.4</ele>
        <time>2014-03-02T14:02:51Z</time>
      </trkpt>
      <trkpt lat="43.51867" lon="5.76254">
        <ele>446.3</ele>
        <time>2014-03-02T14:02:52Z</time>
      </trkpt>
      <trkpt lat="43.51861" lon="5.76233">
        <ele>446.7</ele>
        <time>2014-03-02T14:03:07Z</time>
      </trkpt>
      <trkpt lat="43.51865" lon="5.76222">
        <ele>446.3</ele>
        <time>2014-03-02T14:03:16Z</time>
      </trkpt>
      <trkpt lat="43.51872" lon="5.76215">
        <ele>447.6</ele>
        <time>2014-03-02T14:03:24Z</time>
      </trkpt>
      <trkpt lat="43.51874" lon="5.76203">
        <ele>448.2</ele>
        <time>2014-03-02T14:03:31Z</time>
      </trkpt>
      <trkpt lat="43.51872" lon="5.76192">
        <ele>448.3</ele>
        <time>2014-03-02T14:03:38Z</time>
      </trkpt>
      <trkpt lat="43.51871" lon="5.76181">
        <ele>448.1</ele>
        <time>2014-03-02T14:03:47Z</time>
      </trkpt>
      <trkpt lat="43.5187" lon="5.76169">
        <ele>448</ele>
        <time>2014-03-02T14:03:55Z</time>
      </trkpt>
      <trkpt lat="43.5187" lon="5.76167">
        <ele>448.2</ele>
        <time>2014-03-02T14:03:56Z</time>
      </trkpt>
      <trkpt lat="43.51876" lon="5.76148">
        <ele>447.9</ele>
        <time>2014-03-02T14:04:11Z</time>
      </trkpt>
      <trkpt lat="43.51875" lon="5.76135">
        <ele>448.6</ele>
        <time>2014-03-02T14:04:26Z</time>
      </trkpt>
      <trkpt lat="43.51869" lon="5.76126">
        <ele>449.3</ele>
        <time>2014-03-02T14:05:05Z</time>
      </trkpt>
      <trkpt lat="43.51869" lon="5.76125">
        <ele>449.3</ele>
        <time>2014-03-02T14:05:06Z</time>
      </trkpt>
      <trkpt lat="43.51856" lon="5.76111">
        <ele>450.4</ele>
        <time>2014-03-02T14:05:28Z</time>
      </trkpt>
      <trkpt lat="43.51849" lon="5.76106">
        <ele>451</ele>
        <time>2014-03-02T14:05:37Z</time>
      </trkpt>
      <trkpt lat="43.51842" lon="5.76099">
        <ele>452</ele>
        <time>2014-03-02T14:05:46Z</time>
      </trkpt>
      <trkpt lat="43.51835" lon="5.76092">
        <ele>452.6</ele>
        <time>2014-03-02T14:05:53Z</time>
      </trkpt>
      <trkpt lat="43.51829" lon="5.76083">
        <ele>453</ele>
        <time>2014-03-02T14:06:03Z</time>
      </trkpt>
      <trkpt lat="43.51822" lon="5.76076">
        <ele>453.7</ele>
        <time>2014-03-02T14:06:11Z</time>
      </trkpt>
      <trkpt lat="43.51822" lon="5.76076">
        <ele>453.8</ele>
        <time>2014-03-02T14:06:12Z</time>
      </trkpt>
      <trkpt lat="43.51808" lon="5.76064">
        <ele>455.1</ele>
        <time>2014-03-02T14:06:28Z</time>
      </trkpt>
      <trkpt lat="43.518" lon="5.76066">
        <ele>455.2</ele>
        <time>2014-03-02T14:06:39Z</time>
      </trkpt>
      <trkpt lat="43.51794" lon="5.76074">
        <ele>455.8</ele>
        <time>2014-03-02T14:06:47Z</time>
      </trkpt>
      <trkpt lat="43.51789" lon="5.76082">
        <ele>455.8</ele>
        <time>2014-03-02T14:06:53Z</time>
      </trkpt>
      <trkpt lat="43.51785" lon="5.76091">
        <ele>455.5</ele>
        <time>2014-03-02T14:06:58Z</time>
      </trkpt>
      <trkpt lat="43.5178" lon="5.761">
        <ele>455.7</ele>
        <time>2014-03-02T14:07:05Z</time>
      </trkpt>
      <trkpt lat="43.51774" lon="5.76108">
        <ele>455.4</ele>
        <time>2014-03-02T14:07:15Z</time>
      </trkpt>
      <trkpt lat="43.51773" lon="5.76108">
        <ele>455.4</ele>
        <time>2014-03-02T14:07:16Z</time>
      </trkpt>
      <trkpt lat="43.51764" lon="5.76128">
        <ele>455.1</ele>
        <time>2014-03-02T14:07:30Z</time>
      </trkpt>
      <trkpt lat="43.51758" lon="5.76137">
        <ele>455.2</ele>
        <time>2014-03-02T14:07:36Z</time>
      </trkpt>
      <trkpt lat="43.51753" lon="5.76145">
        <ele>455.1</ele>
        <time>2014-03-02T14:07:43Z</time>
      </trkpt>
      <trkpt lat="43.51749" lon="5.76155">
        <ele>455</ele>
        <time>2014-03-02T14:07:50Z</time>
      </trkpt>
      <trkpt lat="43.51743" lon="5.76164">
        <ele>454.2</ele>
        <time>2014-03-02T14:07:57Z</time>
      </trkpt>
      <trkpt lat="43.5174" lon="5.76174">
        <ele>454.9</ele>
        <time>2014-03-02T14:08:06Z</time>
      </trkpt>
      <trkpt lat="43.51735" lon="5.76184">
        <ele>455.4</ele>
        <time>2014-03-02T14:08:14Z</time>
      </trkpt>
      <trkpt lat="43.51727" lon="5.7619">
        <ele>455.1</ele>
        <time>2014-03-02T14:08:22Z</time>
      </trkpt>
      <trkpt lat="43.51726" lon="5.76191">
        <ele>455.1</ele>
        <time>2014-03-02T14:08:23Z</time>
      </trkpt>
      <trkpt lat="43.51712" lon="5.76198">
        <ele>455.1</ele>
        <time>2014-03-02T14:08:37Z</time>
      </trkpt>
      <trkpt lat="43.51703" lon="5.76202">
        <ele>455.9</ele>
        <time>2014-03-02T14:08:53Z</time>
      </trkpt>
      <trkpt lat="43.51695" lon="5.76203">
        <ele>456.4</ele>
        <time>2014-03-02T14:09:14Z</time>
      </trkpt>
      <trkpt lat="43.51691" lon="5.76193">
        <ele>456.7</ele>
        <time>2014-03-02T14:09:34Z</time>
      </trkpt>
      <trkpt lat="43.51692" lon="5.76192">
        <ele>456.6</ele>
        <time>2014-03-02T14:09:35Z</time>
      </trkpt>
      <trkpt lat="43.51683" lon="5.7619">
        <ele>456.9</ele>
        <time>2014-03-02T14:10:44Z</time>
      </trkpt>
      <trkpt lat="43.51683" lon="5.76191">
        <ele>456.9</ele>
        <time>2014-03-02T14:10:45Z</time>
      </trkpt>
      <trkpt lat="43.51667" lon="5.76184">
        <ele>457.8</ele>
        <time>2014-03-02T14:11:19Z</time>
      </trkpt>
      <trkpt lat="43.5166" lon="5.76177">
        <ele>458.3</ele>
        <time>2014-03-02T14:11:25Z</time>
      </trkpt>
      <trkpt lat="43.51656" lon="5.76168">
        <ele>458.4</ele>
        <time>2014-03-02T14:11:32Z</time>
      </trkpt>
      <trkpt lat="43.5165" lon="5.7616">
        <ele>458.6</ele>
        <time>2014-03-02T14:11:39Z</time>
      </trkpt>
      <trkpt lat="43.51642" lon="5.76156">
        <ele>458.6</ele>
        <time>2014-03-02T14:11:44Z</time>
      </trkpt>
      <trkpt lat="43.51634" lon="5.76157">
        <ele>459.1</ele>
        <time>2014-03-02T14:11:49Z</time>
      </trkpt>
      <trkpt lat="43.51633" lon="5.76157">
        <ele>459.1</ele>
        <time>2014-03-02T14:11:50Z</time>
      </trkpt>
      <trkpt lat="43.51618" lon="5.76164">
        <ele>458.8</ele>
        <time>2014-03-02T14:12:01Z</time>
      </trkpt>
      <trkpt lat="43.5161" lon="5.76161">
        <ele>459.2</ele>
        <time>2014-03-02T14:12:10Z</time>
      </trkpt>
      <trkpt lat="43.51602" lon="5.76157">
        <ele>459.2</ele>
        <time>2014-03-02T14:12:17Z</time>
      </trkpt>
      <trkpt lat="43.51594" lon="5.76154">
        <ele>458.6</ele>
        <time>2014-03-02T14:12:24Z</time>
      </trkpt>
      <trkpt lat="43.51586" lon="5.76158">
        <ele>458.1</ele>
        <time>2014-03-02T14:12:33Z</time>
      </trkpt>
      <trkpt lat="43.51577" lon="5.76159">
        <ele>457.1</ele>
        <time>2014-03-02T14:12:39Z</time>
      </trkpt>
      <trkpt lat="43.5157" lon="5.76156">
        <ele>456.6</ele>
        <time>2014-03-02T14:12:45Z</time>
      </trkpt>
      <trkpt lat="43.51562" lon="5.76157">
        <ele>455.6</ele>
        <time>2014-03-02T14:12:51Z</time>
      </trkpt>
      <trkpt lat="43.5156" lon="5.76157">
        <ele>455.6</ele>
        <time>2014-03-02T14:12:52Z</time>
      </trkpt>
      <trkpt lat="43.51553" lon="5.76138">
        <ele>453.5</ele>
        <time>2014-03-02T14:13:23Z</time>
      </trkpt>
      <trkpt lat="43.51554" lon="5.76126">
        <ele>453.4</ele>
        <time>2014-03-02T14:13:35Z</time>
      </trkpt>
      <trkpt lat="43.51557" lon="5.76115">
        <ele>452.8</ele>
        <time>2014-03-02T14:14:18Z</time>
      </trkpt>
      <trkpt lat="43.51558" lon="5.76115">
        <ele>452.7</ele>
        <time>2014-03-02T14:14:19Z</time>
      </trkpt>
      <trkpt lat="43.51559" lon="5.76103">
        <ele>452.7</ele>
        <time>2014-03-02T14:15:35Z</time>
      </trkpt>
      <trkpt lat="43.51561" lon="5.7609">
        <ele>452.2</ele>
        <time>2014-03-02T14:17:23Z</time>
      </trkpt>
      <trkpt lat="43.51555" lon="5.7607">
        <ele>450.1</ele>
        <time>2014-03-02T14:18:02Z</time>
      </trkpt>
      <trkpt lat="43.51548" lon="5.76063">
        <ele>448.6</ele>
        <time>2014-03-02T14:18:13Z</time>
      </trkpt>
      <trkpt lat="43.51541" lon="5.76056">
        <ele>447.3</ele>
        <time>2014-03-02T14:18:26Z</time>
      </trkpt>
      <trkpt lat="43.5154" lon="5.76055">
        <ele>447.1</ele>
        <time>2014-03-02T14:18:27Z</time>
      </trkpt>
      <trkpt lat="43.51528" lon="5.76041">
        <ele>444.4</ele>
        <time>2014-03-02T14:18:49Z</time>
      </trkpt>
      <trkpt lat="43.51522" lon="5.76032">
        <ele>442.2</ele>
        <time>2014-03-02T14:19:01Z</time>
      </trkpt>
      <trkpt lat="43.51519" lon="5.76021">
        <ele>440.8</ele>
        <time>2014-03-02T14:19:10Z</time>
      </trkpt>
      <trkpt lat="43.51513" lon="5.76012">
        <ele>439.2</ele>
        <time>2014-03-02T14:19:21Z</time>
      </trkpt>
      <trkpt lat="43.51508" lon="5.76002">
        <ele>436.4</ele>
        <time>2014-03-02T14:19:33Z</time>
      </trkpt>
      <trkpt lat="43.51508" lon="5.76001">
        <ele>436.3</ele>
        <time>2014-03-02T14:19:34Z</time>
      </trkpt>
      <trkpt lat="43.515" lon="5.75982">
        <ele>433.2</ele>
        <time>2014-03-02T14:19:54Z</time>
      </trkpt>
      <trkpt lat="43.51492" lon="5.75976">
        <ele>430.1</ele>
        <time>2014-03-02T14:20:08Z</time>
      </trkpt>
      <trkpt lat="43.51485" lon="5.75972">
        <ele>427.6</ele>
        <time>2014-03-02T14:20:22Z</time>
      </trkpt>
      <trkpt lat="43.51477" lon="5.7597">
        <ele>425.8</ele>
        <time>2014-03-02T14:20:29Z</time>
      </trkpt>
      <trkpt lat="43.51469" lon="5.75964">
        <ele>423.6</ele>
        <time>2014-03-02T14:20:43Z</time>
      </trkpt>
      <trkpt lat="43.51468" lon="5.75964">
        <ele>423.7</ele>
        <time>2014-03-02T14:20:44Z</time>
      </trkpt>
      <trkpt lat="43.51458" lon="5.75946">
        <ele>418.9</ele>
        <time>2014-03-02T14:21:16Z</time>
      </trkpt>
      <trkpt lat="43.51454" lon="5.75936">
        <ele>416.9</ele>
        <time>2014-03-02T14:21:26Z</time>
      </trkpt>
      <trkpt lat="43.51449" lon="5.75926">
        <ele>414.7</ele>
        <time>2014-03-02T14:21:38Z</time>
      </trkpt>
      <trkpt lat="43.51443" lon="5.75917">
        <ele>413.7</ele>
        <time>2014-03-02T14:21:46Z</time>
      </trkpt>
      <trkpt lat="43.51442" lon="5.75916">
        <ele>413.9</ele>
        <time>2014-03-02T14:21:47Z</time>
      </trkpt>
      <trkpt lat="43.5143" lon="5.75901">
        <ele>412.3</ele>
        <time>2014-03-02T14:22:07Z</time>
      </trkpt>
      <trkpt lat="43.51425" lon="5.7589">
        <ele>410.7</ele>
        <time>2014-03-02T14:22:22Z</time>
      </trkpt>
      <trkpt lat="43.5142" lon="5.75881">
        <ele>409.5</ele>
        <time>2014-03-02T14:22:33Z</time>
      </trkpt>
      <trkpt lat="43.51415" lon="5.75871">
        <ele>407.1</ele>
        <time>2014-03-02T14:22:44Z</time>
      </trkpt>
      <trkpt lat="43.51411" lon="5.7586">
        <ele>405</ele>
        <time>2014-03-02T14:23:00Z</time>
      </trkpt>
      <trkpt lat="43.51411" lon="5.7586">
        <ele>404.9</ele>
        <time>2014-03-02T14:23:01Z</time>
      </trkpt>
      <trkpt lat="43.514" lon="5.75843">
        <ele>401.5</ele>
        <time>2014-03-02T14:23:42Z</time>
      </trkpt>
      <trkpt lat="43.51396" lon="5.75834">
        <ele>400.4</ele>
        <time>2014-03-02T14:23:52Z</time>
      </trkpt>
      <trkpt lat="43.51389" lon="5.75825">
        <ele>398.7</ele>
        <time>2014-03-02T14:24:00Z</time>
      </trkpt>
      <trkpt lat="43.51388" lon="5.75813">
        <ele>397</ele>
        <time>2014-03-02T14:24:11Z</time>
      </trkpt>
      <trkpt lat="43.51388" lon="5.75812">
        <ele>396.6</ele>
        <time>2014-03-02T14:24:12Z</time>
      </trkpt>
      <trkpt lat="43.51392" lon="5.75793">
        <ele>395.2</ele>
        <time>2014-03-02T14:24:47Z</time>
      </trkpt>
      <trkpt lat="43.51394" lon="5.75781">
        <ele>394.5</ele>
        <time>2014-03-02T14:25:05Z</time>
      </trkpt>
      <trkpt lat="43.51388" lon="5.75789">
        <ele>394.7</ele>
        <time>2014-03-02T14:26:16Z</time>
      </trkpt>
      <trkpt lat="43.51388" lon="5.7579">
        <ele>394.4</ele>
        <time>2014-03-02T14:26:17Z</time>
      </trkpt>
      <trkpt lat="43.51385" lon="5.75786">
        <ele>393.2</ele>
        <time>2014-03-02T14:27:50Z</time>
      </trkpt>
      <trkpt lat="43.51384" lon="5.75785">
        <ele>393.2</ele>
        <time>2014-03-02T14:27:51Z</time>
      </trkpt>
      <trkpt lat="43.51374" lon="5.75769">
        <ele>394</ele>
        <time>2014-03-02T14:28:10Z</time>
      </trkpt>
      <trkpt lat="43.51368" lon="5.75761">
        <ele>395</ele>
        <time>2014-03-02T14:28:21Z</time>
      </trkpt>
      <trkpt lat="43.51362" lon="5.75752">
        <ele>395.3</ele>
        <time>2014-03-02T14:28:29Z</time>
      </trkpt>
      <trkpt lat="43.51356" lon="5.75745">
        <ele>395.9</ele>
        <time>2014-03-02T14:28:36Z</time>
      </trkpt>
      <trkpt lat="43.5135" lon="5.75738">
        <ele>396.3</ele>
        <time>2014-03-02T14:28:42Z</time>
      </trkpt>
      <trkpt lat="43.51344" lon="5.75732">
        <ele>396.4</ele>
        <time>2014-03-02T14:28:49Z</time>
      </trkpt>
      <trkpt lat="43.5134" lon="5.75721">
        <ele>396.6</ele>
        <time>2014-03-02T14:29:00Z</time>
      </trkpt>
      <trkpt lat="43.51339" lon="5.7572">
        <ele>396.5</ele>
        <time>2014-03-02T14:29:01Z</time>
      </trkpt>
      <trkpt lat="43.51343" lon="5.75698">
        <ele>397.1</ele>
        <time>2014-03-02T14:29:18Z</time>
      </trkpt>
      <trkpt lat="43.51346" lon="5.75686">
        <ele>397.5</ele>
        <time>2014-03-02T14:29:27Z</time>
      </trkpt>
      <trkpt lat="43.51352" lon="5.75677">
        <ele>397.7</ele>
        <time>2014-03-02T14:29:37Z</time>
      </trkpt>
      <trkpt lat="43.51359" lon="5.75672">
        <ele>397.2</ele>
        <time>2014-03-02T14:29:45Z</time>
      </trkpt>
      <trkpt lat="43.51367" lon="5.75666">
        <ele>397.6</ele>
        <time>2014-03-02T14:29:54Z</time>
      </trkpt>
      <trkpt lat="43.51376" lon="5.75664">
        <ele>397.2</ele>
        <time>2014-03-02T14:30:03Z</time>
      </trkpt>
      <trkpt lat="43.51376" lon="5.75664">
        <ele>397.2</ele>
        <time>2014-03-02T14:30:04Z</time>
      </trkpt>
      <trkpt lat="43.51393" lon="5.75666">
        <ele>398.1</ele>
        <time>2014-03-02T14:30:21Z</time>
      </trkpt>
      <trkpt lat="43.51401" lon="5.75668">
        <ele>397.7</ele>
        <time>2014-03-02T14:30:31Z</time>
      </trkpt>
      <trkpt lat="43.51409" lon="5.75669">
        <ele>398.3</ele>
        <time>2014-03-02T14:30:39Z</time>
      </trkpt>
      <trkpt lat="43.51418" lon="5.75669">
        <ele>398</ele>
        <time>2014-03-02T14:30:46Z</time>
      </trkpt>
      <trkpt lat="43.51425" lon="5.75664">
        <ele>398.1</ele>
        <time>2014-03-02T14:30:52Z</time>
      </trkpt>
      <trkpt lat="43.51433" lon="5.75664">
        <ele>398.6</ele>
        <time>2014-03-02T14:30:58Z</time>
      </trkpt>
      <trkpt lat="43.51441" lon="5.75663">
        <ele>398.4</ele>
        <time>2014-03-02T14:31:04Z</time>
      </trkpt>
      <trkpt lat="43.51449" lon="5.75661">
        <ele>398.6</ele>
        <time>2014-03-02T14:31:10Z</time>
      </trkpt>
      <trkpt lat="43.5145" lon="5.75659">
        <ele>398.4</ele>
        <time>2014-03-02T14:31:11Z</time>
      </trkpt>
      <trkpt lat="43.51451" lon="5.75638">
        <ele>398.8</ele>
        <time>2014-03-02T14:31:25Z</time>
      </trkpt>
      <trkpt lat="43.51446" lon="5.75628">
        <ele>398.7</ele>
        <time>2014-03-02T14:31:34Z</time>
      </trkpt>
      <trkpt lat="43.51441" lon="5.75618">
        <ele>398.1</ele>
        <time>2014-03-02T14:31:43Z</time>
      </trkpt>
      <trkpt lat="43.51437" lon="5.75608">
        <ele>397.9</ele>
        <time>2014-03-02T14:31:51Z</time>
      </trkpt>
      <trkpt lat="43.51436" lon="5.75596">
        <ele>398.5</ele>
        <time>2014-03-02T14:31:59Z</time>
      </trkpt>
      <trkpt lat="43.51439" lon="5.75587">
        <ele>398.2</ele>
        <time>2014-03-02T14:32:06Z</time>
      </trkpt>
      <trkpt lat="43.51445" lon="5.75577">
        <ele>398.2</ele>
        <time>2014-03-02T14:32:15Z</time>
      </trkpt>
      <trkpt lat="43.51445" lon="5.75577">
        <ele>398.3</ele>
        <time>2014-03-02T14:32:16Z</time>
      </trkpt>
      <trkpt lat="43.51461" lon="5.7557">
        <ele>398.3</ele>
        <time>2014-03-02T14:32:32Z</time>
      </trkpt>
      <trkpt lat="43.5147" lon="5.75569">
        <ele>398.5</ele>
        <time>2014-03-02T14:32:39Z</time>
      </trkpt>
      <trkpt lat="43.51478" lon="5.75569">
        <ele>399.1</ele>
        <time>2014-03-02T14:32:47Z</time>
      </trkpt>
      <trkpt lat="43.51487" lon="5.7557">
        <ele>398.6</ele>
        <time>2014-03-02T14:32:55Z</time>
      </trkpt>
      <trkpt lat="43.51495" lon="5.75571">
        <ele>398.5</ele>
        <time>2014-03-02T14:33:03Z</time>
      </trkpt>
      <trkpt lat="43.51504" lon="5.75572">
        <ele>399.3</ele>
        <time>2014-03-02T14:33:11Z</time>
      </trkpt>
      <trkpt lat="43.51512" lon="5.75572">
        <ele>400</ele>
        <time>2014-03-02T14:33:19Z</time>
      </trkpt>
      <trkpt lat="43.51513" lon="5.75571">
        <ele>400.1</ele>
        <time>2014-03-02T14:33:20Z</time>
      </trkpt>
      <trkpt lat="43.51527" lon="5.75562">
        <ele>400.2</ele>
        <time>2014-03-02T14:33:33Z</time>
      </trkpt>
      <trkpt lat="43.51534" lon="5.75555">
        <ele>400.4</ele>
        <time>2014-03-02T14:33:41Z</time>
      </trkpt>
      <trkpt lat="43.51535" lon="5.75544">
        <ele>400.7</ele>
        <time>2014-03-02T14:33:50Z</time>
      </trkpt>
      <trkpt lat="43.51529" lon="5.75537">
        <ele>400.9</ele>
        <time>2014-03-02T14:33:58Z</time>
      </trkpt>
      <trkpt lat="43.51521" lon="5.75531">
        <ele>400.6</ele>
        <time>2014-03-02T14:34:06Z</time>
      </trkpt>
      <trkpt lat="43.51514" lon="5.75524">
        <ele>401.3</ele>
        <time>2014-03-02T14:34:16Z</time>
      </trkpt>
      <trkpt lat="43.51512" lon="5.75513">
        <ele>400.6</ele>
        <time>2014-03-02T14:34:23Z</time>
      </trkpt>
      <trkpt lat="43.51511" lon="5.75512">
        <ele>400.6</ele>
        <time>2014-03-02T14:34:24Z</time>
      </trkpt>
      <trkpt lat="43.51514" lon="5.7549">
        <ele>401.6</ele>
        <time>2014-03-02T14:34:37Z</time>
      </trkpt>
      <trkpt lat="43.51516" lon="5.75478">
        <ele>401.4</ele>
        <time>2014-03-02T14:34:45Z</time>
      </trkpt>
      <trkpt lat="43.51522" lon="5.75469">
        <ele>401.1</ele>
        <time>2014-03-02T14:34:55Z</time>
      </trkpt>
      <trkpt lat="43.51528" lon="5.75462">
        <ele>400.9</ele>
        <time>2014-03-02T14:35:02Z</time>
      </trkpt>
      <trkpt lat="43.51536" lon="5.75455">
        <ele>400.4</ele>
        <time>2014-03-02T14:35:09Z</time>
      </trkpt>
      <trkpt lat="43.51542" lon="5.75448">
        <ele>400.4</ele>
        <time>2014-03-02T14:35:15Z</time>
      </trkpt>
      <trkpt lat="43.51549" lon="5.75442">
        <ele>400.5</ele>
        <time>2014-03-02T14:35:22Z</time>
      </trkpt>
      <trkpt lat="43.51556" lon="5.75437">
        <ele>400.6</ele>
        <time>2014-03-02T14:35:30Z</time>
      </trkpt>
      <trkpt lat="43.51557" lon="5.75435">
        <ele>400.3</ele>
        <time>2014-03-02T14:35:31Z</time>
      </trkpt>
      <trkpt lat="43.51567" lon="5.7542">
        <ele>400.4</ele>
        <time>2014-03-02T14:35:45Z</time>
      </trkpt>
      <trkpt lat="43.51575" lon="5.75415">
        <ele>400.3</ele>
        <time>2014-03-02T14:35:52Z</time>
      </trkpt>
      <trkpt lat="43.5158" lon="5.75407">
        <ele>400</ele>
        <time>2014-03-02T14:35:59Z</time>
      </trkpt>
      <trkpt lat="43.51587" lon="5.75399">
        <ele>400.1</ele>
        <time>2014-03-02T14:36:07Z</time>
      </trkpt>
      <trkpt lat="43.51594" lon="5.75393">
        <ele>400.2</ele>
        <time>2014-03-02T14:36:15Z</time>
      </trkpt>
      <trkpt lat="43.51602" lon="5.75391">
        <ele>399.9</ele>
        <time>2014-03-02T14:36:22Z</time>
      </trkpt>
      <trkpt lat="43.5161" lon="5.75391">
        <ele>399.7</ele>
        <time>2014-03-02T14:36:30Z</time>
      </trkpt>
      <trkpt lat="43.51618" lon="5.75394">
        <ele>399.7</ele>
        <time>2014-03-02T14:36:38Z</time>
      </trkpt>
      <trkpt lat="43.51619" lon="5.75395">
        <ele>399.7</ele>
        <time>2014-03-02T14:36:39Z</time>
      </trkpt>
      <trkpt lat="43.51633" lon="5.75405">
        <ele>398.9</ele>
        <time>2014-03-02T14:36:57Z</time>
      </trkpt>
      <trkpt lat="43.51642" lon="5.75407">
        <ele>398.6</ele>
        <time>2014-03-02T14:37:05Z</time>
      </trkpt>
      <trkpt lat="43.5165" lon="5.75408">
        <ele>398.9</ele>
        <time>2014-03-02T14:37:12Z</time>
      </trkpt>
      <trkpt lat="43.51658" lon="5.75409">
        <ele>398.6</ele>
        <time>2014-03-02T14:37:20Z</time>
      </trkpt>
      <trkpt lat="43.51667" lon="5.75407">
        <ele>399</ele>
        <time>2014-03-02T14:37:27Z</time>
      </trkpt>
      <trkpt lat="43.51668" lon="5.75396">
        <ele>398.3</ele>
        <time>2014-03-02T14:37:36Z</time>
      </trkpt>
      <trkpt lat="43.51664" lon="5.75385">
        <ele>398.3</ele>
        <time>2014-03-02T14:37:42Z</time>
      </trkpt>
      <trkpt lat="43.51664" lon="5.75384">
        <ele>398</ele>
        <time>2014-03-02T14:37:43Z</time>
      </trkpt>
      <trkpt lat="43.51656" lon="5.75364">
        <ele>399.1</ele>
        <time>2014-03-02T14:37:59Z</time>
      </trkpt>
      <trkpt lat="43.51653" lon="5.75353">
        <ele>399.5</ele>
        <time>2014-03-02T14:38:08Z</time>
      </trkpt>
      <trkpt lat="43.5165" lon="5.75342">
        <ele>399.1</ele>
        <time>2014-03-02T14:38:15Z</time>
      </trkpt>
      <trkpt lat="43.51648" lon="5.75331">
        <ele>399</ele>
        <time>2014-03-02T14:38:23Z</time>
      </trkpt>
      <trkpt lat="43.51646" lon="5.75321">
        <ele>398.4</ele>
        <time>2014-03-02T14:38:31Z</time>
      </trkpt>
      <trkpt lat="43.51644" lon="5.75309">
        <ele>399.1</ele>
        <time>2014-03-02T14:38:39Z</time>
      </trkpt>
      <trkpt lat="43.51645" lon="5.75297">
        <ele>399.2</ele>
        <time>2014-03-02T14:38:47Z</time>
      </trkpt>
      <trkpt lat="43.51644" lon="5.75296">
        <ele>399.2</ele>
        <time>2014-03-02T14:38:48Z</time>
      </trkpt>
      <trkpt lat="43.51634" lon="5.75279">
        <ele>398.1</ele>
        <time>2014-03-02T14:39:20Z</time>
      </trkpt>
      <trkpt lat="43.51626" lon="5.75273">
        <ele>397.1</ele>
        <time>2014-03-02T14:39:29Z</time>
      </trkpt>
      <trkpt lat="43.51619" lon="5.75268">
        <ele>396.3</ele>
        <time>2014-03-02T14:39:39Z</time>
      </trkpt>
      <trkpt lat="43.51612" lon="5.75261">
        <ele>395.1</ele>
        <time>2014-03-02T14:39:49Z</time>
      </trkpt>
      <trkpt lat="43.51611" lon="5.7526">
        <ele>395.2</ele>
        <time>2014-03-02T14:39:50Z</time>
      </trkpt>
      <trkpt lat="43.51595" lon="5.75254">
        <ele>393.5</ele>
        <time>2014-03-02T14:40:07Z</time>
      </trkpt>
      <trkpt lat="43.51586" lon="5.75251">
        <ele>392.8</ele>
        <time>2014-03-02T14:40:15Z</time>
      </trkpt>
      <trkpt lat="43.51579" lon="5.75249">
        <ele>391.4</ele>
        <time>2014-03-02T14:40:23Z</time>
      </trkpt>
      <trkpt lat="43.51572" lon="5.75242">
        <ele>389.8</ele>
        <time>2014-03-02T14:40:34Z</time>
      </trkpt>
      <trkpt lat="43.5157" lon="5.7523">
        <ele>387.9</ele>
        <time>2014-03-02T14:40:46Z</time>
      </trkpt>
      <trkpt lat="43.51571" lon="5.7522">
        <ele>387.6</ele>
        <time>2014-03-02T14:40:56Z</time>
      </trkpt>
      <trkpt lat="43.51572" lon="5.75217">
        <ele>387.7</ele>
        <time>2014-03-02T14:40:57Z</time>
      </trkpt>
      <trkpt lat="43.51576" lon="5.75198">
        <ele>387.3</ele>
        <time>2014-03-02T14:41:10Z</time>
      </trkpt>
      <trkpt lat="43.51575" lon="5.75186">
        <ele>387.2</ele>
        <time>2014-03-02T14:41:17Z</time>
      </trkpt>
      <trkpt lat="43.5158" lon="5.75176">
        <ele>388</ele>
        <time>2014-03-02T14:41:24Z</time>
      </trkpt>
      <trkpt lat="43.51586" lon="5.75167">
        <ele>388.3</ele>
        <time>2014-03-02T14:41:31Z</time>
      </trkpt>
      <trkpt lat="43.51592" lon="5.75159">
        <ele>388.2</ele>
        <time>2014-03-02T14:41:37Z</time>
      </trkpt>
      <trkpt lat="43.51595" lon="5.75148">
        <ele>387.5</ele>
        <time>2014-03-02T14:41:45Z</time>
      </trkpt>
      <trkpt lat="43.51595" lon="5.75137">
        <ele>387.6</ele>
        <time>2014-03-02T14:41:51Z</time>
      </trkpt>
      <trkpt lat="43.51595" lon="5.75125">
        <ele>387.3</ele>
        <time>2014-03-02T14:42:00Z</time>
      </trkpt>
      <trkpt lat="43.51595" lon="5.75123">
        <ele>387.2</ele>
        <time>2014-03-02T14:42:01Z</time>
      </trkpt>
      <trkpt lat="43.51589" lon="5.75104">
        <ele>386</ele>
        <time>2014-03-02T14:42:14Z</time>
      </trkpt>
      <trkpt lat="43.51582" lon="5.75098">
        <ele>384.9</ele>
        <time>2014-03-02T14:42:21Z</time>
      </trkpt>
      <trkpt lat="43.51575" lon="5.7509">
        <ele>384.1</ele>
        <time>2014-03-02T14:42:31Z</time>
      </trkpt>
      <trkpt lat="43.51568" lon="5.75083">
        <ele>383</ele>
        <time>2014-03-02T14:42:39Z</time>
      </trkpt>
      <trkpt lat="43.5156" lon="5.75079">
        <ele>382.8</ele>
        <time>2014-03-02T14:42:45Z</time>
      </trkpt>
      <trkpt lat="43.51553" lon="5.75073">
        <ele>382.6</ele>
        <time>2014-03-02T14:42:51Z</time>
      </trkpt>
      <trkpt lat="43.51546" lon="5.75067">
        <ele>381.8</ele>
        <time>2014-03-02T14:42:57Z</time>
      </trkpt>
      <trkpt lat="43.51539" lon="5.7506">
        <ele>381.1</ele>
        <time>2014-03-02T14:43:05Z</time>
      </trkpt>
      <trkpt lat="43.51539" lon="5.7506">
        <ele>381.1</ele>
        <time>2014-03-02T14:43:06Z</time>
      </trkpt>
      <trkpt lat="43.51553" lon="5.75049">
        <ele>381.1</ele>
        <time>2014-03-02T14:44:07Z</time>
      </trkpt>
      <trkpt lat="43.51553" lon="5.75048">
        <ele>380.8</ele>
        <time>2014-03-02T14:44:08Z</time>
      </trkpt>
      <trkpt lat="43.5156" lon="5.75027">
        <ele>379.6</ele>
        <time>2014-03-02T14:44:27Z</time>
      </trkpt>
      <trkpt lat="43.51564" lon="5.75017">
        <ele>379.6</ele>
        <time>2014-03-02T14:44:36Z</time>
      </trkpt>
      <trkpt lat="43.51562" lon="5.75006">
        <ele>379</ele>
        <time>2014-03-02T14:45:17Z</time>
      </trkpt>
      <trkpt lat="43.51562" lon="5.75005">
        <ele>379.2</ele>
        <time>2014-03-02T14:45:18Z</time>
      </trkpt>
      <trkpt lat="43.51559" lon="5.74984">
        <ele>378.2</ele>
        <time>2014-03-02T14:45:35Z</time>
      </trkpt>
      <trkpt lat="43.51558" lon="5.74973">
        <ele>378.3</ele>
        <time>2014-03-02T14:45:43Z</time>
      </trkpt>
      <trkpt lat="43.51556" lon="5.74961">
        <ele>377.6</ele>
        <time>2014-03-02T14:45:52Z</time>
      </trkpt>
      <trkpt lat="43.51558" lon="5.7495">
        <ele>375.9</ele>
        <time>2014-03-02T14:46:02Z</time>
      </trkpt>
      <trkpt lat="43.51557" lon="5.74939">
        <ele>374.2</ele>
        <time>2014-03-02T14:46:10Z</time>
      </trkpt>
      <trkpt lat="43.51556" lon="5.74927">
        <ele>372.2</ele>
        <time>2014-03-02T14:46:22Z</time>
      </trkpt>
      <trkpt lat="43.51557" lon="5.74926">
        <ele>371.8</ele>
        <time>2014-03-02T14:46:23Z</time>
      </trkpt>
      <trkpt lat="43.51546" lon="5.74909">
        <ele>368.2</ele>
        <time>2014-03-02T14:46:45Z</time>
      </trkpt>
      <trkpt lat="43.51542" lon="5.74898">
        <ele>367</ele>
        <time>2014-03-02T14:46:55Z</time>
      </trkpt>
      <trkpt lat="43.51537" lon="5.74888">
        <ele>365.3</ele>
        <time>2014-03-02T14:47:07Z</time>
      </trkpt>
      <trkpt lat="43.51535" lon="5.74877">
        <ele>363.1</ele>
        <time>2014-03-02T14:47:23Z</time>
      </trkpt>
      <trkpt lat="43.51535" lon="5.74866">
        <ele>362</ele>
        <time>2014-03-02T14:47:32Z</time>
      </trkpt>
      <trkpt lat="43.51535" lon="5.74865">
        <ele>362</ele>
        <time>2014-03-02T14:47:33Z</time>
      </trkpt>
      <trkpt lat="43.5153" lon="5.74844">
        <ele>359.8</ele>
        <time>2014-03-02T14:47:52Z</time>
      </trkpt>
      <trkpt lat="43.51528" lon="5.74832">
        <ele>357.6</ele>
        <time>2014-03-02T14:48:02Z</time>
      </trkpt>
      <trkpt lat="43.51525" lon="5.74822">
        <ele>355.7</ele>
        <time>2014-03-02T14:48:13Z</time>
      </trkpt>
      <trkpt lat="43.5152" lon="5.74813">
        <ele>355.7</ele>
        <time>2014-03-02T14:48:20Z</time>
      </trkpt>
      <trkpt lat="43.51514" lon="5.74805">
        <ele>355.4</ele>
        <time>2014-03-02T14:48:26Z</time>
      </trkpt>
      <trkpt lat="43.51508" lon="5.74795">
        <ele>354.2</ele>
        <time>2014-03-02T14:48:35Z</time>
      </trkpt>
      <trkpt lat="43.51507" lon="5.74795">
        <ele>354.1</ele>
        <time>2014-03-02T14:48:36Z</time>
      </trkpt>
      <trkpt lat="43.51499" lon="5.74777">
        <ele>353.3</ele>
        <time>2014-03-02T14:48:50Z</time>
      </trkpt>
      <trkpt lat="43.51493" lon="5.74768">
        <ele>351.7</ele>
        <time>2014-03-02T14:48:57Z</time>
      </trkpt>
      <trkpt lat="43.51487" lon="5.74761">
        <ele>351</ele>
        <time>2014-03-02T14:49:02Z</time>
      </trkpt>
      <trkpt lat="43.5148" lon="5.74753">
        <ele>350.7</ele>
        <time>2014-03-02T14:49:09Z</time>
      </trkpt>
      <trkpt lat="43.51477" lon="5.74743">
        <ele>350.5</ele>
        <time>2014-03-02T14:49:18Z</time>
      </trkpt>
      <trkpt lat="43.51472" lon="5.74734">
        <ele>349.9</ele>
        <time>2014-03-02T14:49:24Z</time>
      </trkpt>
      <trkpt lat="43.51468" lon="5.74724">
        <ele>349.7</ele>
        <time>2014-03-02T14:49:31Z</time>
      </trkpt>
      <trkpt lat="43.51463" lon="5.74714">
        <ele>349.9</ele>
        <time>2014-03-02T14:49:39Z</time>
      </trkpt>
      <trkpt lat="43.51462" lon="5.74712">
        <ele>349.8</ele>
        <time>2014-03-02T14:49:40Z</time>
      </trkpt>
      <trkpt lat="43.51451" lon="5.74698">
        <ele>348.8</ele>
        <time>2014-03-02T14:49:52Z</time>
      </trkpt>
      <trkpt lat="43.51444" lon="5.74691">
        <ele>349.3</ele>
        <time>2014-03-02T14:49:57Z</time>
      </trkpt>
      <trkpt lat="43.51437" lon="5.74685">
        <ele>348.7</ele>
        <time>2014-03-02T14:50:10Z</time>
      </trkpt>
      <trkpt lat="43.51431" lon="5.74676">
        <ele>347.8</ele>
        <time>2014-03-02T14:50:18Z</time>
      </trkpt>
      <trkpt lat="43.51425" lon="5.74668">
        <ele>347.8</ele>
        <time>2014-03-02T14:50:26Z</time>
      </trkpt>
      <trkpt lat="43.51423" lon="5.74657">
        <ele>347.1</ele>
        <time>2014-03-02T14:50:37Z</time>
      </trkpt>
      <trkpt lat="43.51423" lon="5.74645">
        <ele>347</ele>
        <time>2014-03-02T14:50:46Z</time>
      </trkpt>
      <trkpt lat="43.51424" lon="5.74644">
        <ele>347</ele>
        <time>2014-03-02T14:50:47Z</time>
      </trkpt>
      <trkpt lat="43.5143" lon="5.74623">
        <ele>346.6</ele>
        <time>2014-03-02T14:51:01Z</time>
      </trkpt>
      <trkpt lat="43.51431" lon="5.74612">
        <ele>346.6</ele>
        <time>2014-03-02T14:51:08Z</time>
      </trkpt>
      <trkpt lat="43.5143" lon="5.74601">
        <ele>345.3</ele>
        <time>2014-03-02T14:51:14Z</time>
      </trkpt>
      <trkpt lat="43.51427" lon="5.7459">
        <ele>345.3</ele>
        <time>2014-03-02T14:51:20Z</time>
      </trkpt>
      <trkpt lat="43.51422" lon="5.74581">
        <ele>344</ele>
        <time>2014-03-02T14:51:28Z</time>
      </trkpt>
      <trkpt lat="43.51419" lon="5.7457">
        <ele>343.8</ele>
        <time>2014-03-02T14:51:40Z</time>
      </trkpt>
      <trkpt lat="43.51415" lon="5.7456">
        <ele>343.1</ele>
        <time>2014-03-02T14:51:49Z</time>
      </trkpt>
      <trkpt lat="43.51414" lon="5.74558">
        <ele>343.4</ele>
        <time>2014-03-02T14:51:50Z</time>
      </trkpt>
      <trkpt lat="43.51417" lon="5.7454">
        <ele>342.5</ele>
        <time>2014-03-02T14:52:04Z</time>
      </trkpt>
      <trkpt lat="43.5142" lon="5.7453">
        <ele>343.1</ele>
        <time>2014-03-02T14:52:14Z</time>
      </trkpt>
      <trkpt lat="43.51418" lon="5.74518">
        <ele>341.7</ele>
        <time>2014-03-02T14:52:26Z</time>
      </trkpt>
      <trkpt lat="43.51412" lon="5.74509">
        <ele>342</ele>
        <time>2014-03-02T14:52:40Z</time>
      </trkpt>
      <trkpt lat="43.51415" lon="5.74499">
        <ele>341.8</ele>
        <time>2014-03-02T14:52:56Z</time>
      </trkpt>
      <trkpt lat="43.51415" lon="5.74498">
        <ele>341.7</ele>
        <time>2014-03-02T14:52:57Z</time>
      </trkpt>
      <trkpt lat="43.51425" lon="5.7448">
        <ele>338.7</ele>
        <time>2014-03-02T14:53:19Z</time>
      </trkpt>
      <trkpt lat="43.51426" lon="5.74467">
        <ele>338.3</ele>
        <time>2014-03-02T14:53:34Z</time>
      </trkpt>
      <trkpt lat="43.51434" lon="5.74464">
        <ele>338.5</ele>
        <time>2014-03-02T14:55:09Z</time>
      </trkpt>
      <trkpt lat="43.51434" lon="5.74464">
        <ele>338.4</ele>
        <time>2014-03-02T14:55:10Z</time>
      </trkpt>
      <trkpt lat="43.51434" lon="5.74442">
        <ele>337.1</ele>
        <time>2014-03-02T14:55:44Z</time>
      </trkpt>
      <trkpt lat="43.51439" lon="5.74434">
        <ele>337.7</ele>
        <time>2014-03-02T14:55:50Z</time>
      </trkpt>
      <trkpt lat="43.51443" lon="5.74422">
        <ele>337.8</ele>
        <time>2014-03-02T14:55:58Z</time>
      </trkpt>
      <trkpt lat="43.51447" lon="5.74412">
        <ele>337.6</ele>
        <time>2014-03-02T14:56:10Z</time>
      </trkpt>
      <trkpt lat="43.51447" lon="5.74411">
        <ele>337.6</ele>
        <time>2014-03-02T14:56:11Z</time>
      </trkpt>
      <trkpt lat="43.51457" lon="5.74392">
        <ele>337.5</ele>
        <time>2014-03-02T14:56:27Z</time>
      </trkpt>
      <trkpt lat="43.5146" lon="5.74382">
        <ele>337.4</ele>
        <time>2014-03-02T14:56:35Z</time>
      </trkpt>
      <trkpt lat="43.51463" lon="5.74371">
        <ele>336.7</ele>
        <time>2014-03-02T14:56:43Z</time>
      </trkpt>
      <trkpt lat="43.51464" lon="5.74359">
        <ele>336.9</ele>
        <time>2014-03-02T14:56:53Z</time>
      </trkpt>
      <trkpt lat="43.5147" lon="5.74351">
        <ele>337.3</ele>
        <time>2014-03-02T14:57:06Z</time>
      </trkpt>
      <trkpt lat="43.51475" lon="5.74341">
        <ele>337.3</ele>
        <time>2014-03-02T14:57:14Z</time>
      </trkpt>
      <trkpt lat="43.51476" lon="5.7434">
        <ele>337.2</ele>
        <time>2014-03-02T14:57:15Z</time>
      </trkpt>
      <trkpt lat="43.51482" lon="5.7432">
        <ele>337.2</ele>
        <time>2014-03-02T14:57:34Z</time>
      </trkpt>
      <trkpt lat="43.51484" lon="5.74308">
        <ele>337</ele>
        <time>2014-03-02T14:57:45Z</time>
      </trkpt>
      <trkpt lat="43.5149" lon="5.74299">
        <ele>337.2</ele>
        <time>2014-03-02T14:57:52Z</time>
      </trkpt>
      <trkpt lat="43.51494" lon="5.74288">
        <ele>337.5</ele>
        <time>2014-03-02T14:57:59Z</time>
      </trkpt>
      <trkpt lat="43.51498" lon="5.74278">
        <ele>337.3</ele>
        <time>2014-03-02T14:58:07Z</time>
      </trkpt>
      <trkpt lat="43.51502" lon="5.74267">
        <ele>337.1</ele>
        <time>2014-03-02T14:58:17Z</time>
      </trkpt>
      <trkpt lat="43.51502" lon="5.74266">
        <ele>336.9</ele>
        <time>2014-03-02T14:58:18Z</time>
      </trkpt>
      <trkpt lat="43.51509" lon="5.74248">
        <ele>336.9</ele>
        <time>2014-03-02T14:58:31Z</time>
      </trkpt>
      <trkpt lat="43.51515" lon="5.74238">
        <ele>336.8</ele>
        <time>2014-03-02T14:58:38Z</time>
      </trkpt>
      <trkpt lat="43.51518" lon="5.74228">
        <ele>336.3</ele>
        <time>2014-03-02T14:58:44Z</time>
      </trkpt>
      <trkpt lat="43.51522" lon="5.74218">
        <ele>336.8</ele>
        <time>2014-03-02T14:58:51Z</time>
      </trkpt>
      <trkpt lat="43.51525" lon="5.74207">
        <ele>336.6</ele>
        <time>2014-03-02T14:58:59Z</time>
      </trkpt>
      <trkpt lat="43.51529" lon="5.74197">
        <ele>337.1</ele>
        <time>2014-03-02T14:59:07Z</time>
      </trkpt>
      <trkpt lat="43.51534" lon="5.74188">
        <ele>336.8</ele>
        <time>2014-03-02T14:59:13Z</time>
      </trkpt>
      <trkpt lat="43.51539" lon="5.74178">
        <ele>337.2</ele>
        <time>2014-03-02T14:59:23Z</time>
      </trkpt>
      <trkpt lat="43.5154" lon="5.74178">
        <ele>337.3</ele>
        <time>2014-03-02T14:59:24Z</time>
      </trkpt>
      <trkpt lat="43.5155" lon="5.74159">
        <ele>336.8</ele>
        <time>2014-03-02T14:59:45Z</time>
      </trkpt>
      <trkpt lat="43.51554" lon="5.74149">
        <ele>336.5</ele>
        <time>2014-03-02T15:00:40Z</time>
      </trkpt>
      <trkpt lat="43.51554" lon="5.74148">
        <ele>336.4</ele>
        <time>2014-03-02T15:00:41Z</time>
      </trkpt>
      <trkpt lat="43.51559" lon="5.74126">
        <ele>336.3</ele>
        <time>2014-03-02T15:01:00Z</time>
      </trkpt>
      <trkpt lat="43.51563" lon="5.74116">
        <ele>336.9</ele>
        <time>2014-03-02T15:01:08Z</time>
      </trkpt>
      <trkpt lat="43.51568" lon="5.74107">
        <ele>336.7</ele>
        <time>2014-03-02T15:01:16Z</time>
      </trkpt>
      <trkpt lat="43.51573" lon="5.74097">
        <ele>337.4</ele>
        <time>2014-03-02T15:01:23Z</time>
      </trkpt>
      <trkpt lat="43.51579" lon="5.74087">
        <ele>336.7</ele>
        <time>2014-03-02T15:01:30Z</time>
      </trkpt>
      <trkpt lat="43.51584" lon="5.74079">
        <ele>337.3</ele>
        <time>2014-03-02T15:01:35Z</time>
      </trkpt>
      <trkpt lat="43.51589" lon="5.7407">
        <ele>336.4</ele>
        <time>2014-03-02T15:01:42Z</time>
      </trkpt>
      <trkpt lat="43.5159" lon="5.74068">
        <ele>336.4</ele>
        <time>2014-03-02T15:01:43Z</time>
      </trkpt>
      <trkpt lat="43.51596" lon="5.74049">
        <ele>336.8</ele>
        <time>2014-03-02T15:01:57Z</time>
      </trkpt>
      <trkpt lat="43.516" lon="5.7404">
        <ele>336.6</ele>
        <time>2014-03-02T15:02:04Z</time>
      </trkpt>
      <trkpt lat="43.51604" lon="5.74031">
        <ele>336.5</ele>
        <time>2014-03-02T15:02:10Z</time>
      </trkpt>
      <trkpt lat="43.51608" lon="5.7402">
        <ele>337</ele>
        <time>2014-03-02T15:02:20Z</time>
      </trkpt>
      <trkpt lat="43.51612" lon="5.7401">
        <ele>336.6</ele>
        <time>2014-03-02T15:02:28Z</time>
      </trkpt>
      <trkpt lat="43.51618" lon="5.74002">
        <ele>336.8</ele>
        <time>2014-03-02T15:02:32Z</time>
      </trkpt>
      <trkpt lat="43.51619" lon="5.73992">
        <ele>337.2</ele>
        <time>2014-03-02T15:02:42Z</time>
      </trkpt>
      <trkpt lat="43.51624" lon="5.73982">
        <ele>336.7</ele>
        <time>2014-03-02T15:02:50Z</time>
      </trkpt>
      <trkpt lat="43.51624" lon="5.7398">
        <ele>336.6</ele>
        <time>2014-03-02T15:02:51Z</time>
      </trkpt>
      <trkpt lat="43.51632" lon="5.73962">
        <ele>336.5</ele>
        <time>2014-03-02T15:03:06Z</time>
      </trkpt>
      <trkpt lat="43.51636" lon="5.73953">
        <ele>336.8</ele>
        <time>2014-03-02T15:03:13Z</time>
      </trkpt>
      <trkpt lat="43.5164" lon="5.73943">
        <ele>336.7</ele>
        <time>2014-03-02T15:03:21Z</time>
      </trkpt>
      <trkpt lat="43.51643" lon="5.73934">
        <ele>336.3</ele>
        <time>2014-03-02T15:03:28Z</time>
      </trkpt>
      <trkpt lat="43.51649" lon="5.73925">
        <ele>336.1</ele>
        <time>2014-03-02T15:03:35Z</time>
      </trkpt>
      <trkpt lat="43.51653" lon="5.73915">
        <ele>336.4</ele>
        <time>2014-03-02T15:03:42Z</time>
      </trkpt>
      <trkpt lat="43.51657" lon="5.73905">
        <ele>335.8</ele>
        <time>2014-03-02T15:03:51Z</time>
      </trkpt>
      <trkpt lat="43.51664" lon="5.73899">
        <ele>335.8</ele>
        <time>2014-03-02T15:03:59Z</time>
      </trkpt>
      <trkpt lat="43.51665" lon="5.73899">
        <ele>335.7</ele>
        <time>2014-03-02T15:04:00Z</time>
      </trkpt>
      <trkpt lat="43.51673" lon="5.73883">
        <ele>336.9</ele>
        <time>2014-03-02T15:04:25Z</time>
      </trkpt>
      <trkpt lat="43.51667" lon="5.73874">
        <ele>337.1</ele>
        <time>2014-03-02T15:04:39Z</time>
      </trkpt>
      <trkpt lat="43.5166" lon="5.73867">
        <ele>336.9</ele>
        <time>2014-03-02T15:05:28Z</time>
      </trkpt>
      <trkpt lat="43.5166" lon="5.73867">
        <ele>336.8</ele>
        <time>2014-03-02T15:05:29Z</time>
      </trkpt>
    </trkseg>
  </trk>
</gpx>